<?xml version="1.0" encoding="UTF-8" standalone="no" ?>
<gpx xmlns="http://www.topografix.com/GPX/1/1" xmlns:xsi="http://www.w3.org/2001/XMLSchema-instance" xsi:schemaLocation="http://www.topografix.com/GPX/1/1 http://www.topografix.com/GPX/1/1/gpx.xsd" version="1.1" creator="VisuGPX - https://www.visugpx.com">
  <metadata>
    <name>N°162 VERS ST JEAN TOULAS - BOZANCON - AQUEDUCS - ST DIDIER S/ RIVERIE</name>
    <desc><![CDATA[26km de niveau moyen à facile aux alentours, de Saint Jean de Toulas à Saint Maurise sur Dargoire en suivant le petit Bozancon, puis remontant sur Saint Didier sous Riverie et enfin retour à Morant]]></desc>
  </metadata>
  <trk>
    <name><![CDATA[162 Bozancon St Jean Toulas]]></name>
    <extensions>
      <line xmlns="http://www.topografix.com/GPX/gpx_style/0/2">
        <color>0000FF</color>
        <width>4</width>
      </line>
    </extensions>
    <trkseg>
      <trkpt lat="45.6197" lon="4.67155">
        <ele>418.223585</ele>
        <time>2025-09-13T06:35:39.315Z</time>
      </trkpt>
      <trkpt lat="45.61964" lon="4.67145">
        <ele>418.223585</ele>
        <time>2025-09-13T06:35:45.313Z</time>
      </trkpt>
      <trkpt lat="45.61961" lon="4.67131">
        <ele>418.223585</ele>
        <time>2025-09-13T06:41:15.683Z</time>
      </trkpt>
      <trkpt lat="45.61952" lon="4.67127">
        <ele>418.223585</ele>
        <time>2025-09-13T06:41:19.686Z</time>
      </trkpt>
      <trkpt lat="45.61942" lon="4.67121">
        <ele>418.223585</ele>
        <time>2025-09-13T06:41:24.690Z</time>
      </trkpt>
      <trkpt lat="45.61938" lon="4.67109">
        <ele>418.223585</ele>
        <time>2025-09-13T06:41:29.675Z</time>
      </trkpt>
      <trkpt lat="45.6194" lon="4.67093">
        <ele>418.223585</ele>
        <time>2025-09-13T06:41:34.709Z</time>
      </trkpt>
      <trkpt lat="45.61937" lon="4.67077">
        <ele>418.223585</ele>
        <time>2025-09-13T06:41:38.668Z</time>
      </trkpt>
      <trkpt lat="45.61934" lon="4.67059">
        <ele>418.223585</ele>
        <time>2025-09-13T06:41:41.686Z</time>
      </trkpt>
      <trkpt lat="45.61932" lon="4.67046">
        <ele>417.918928</ele>
        <time>2025-09-13T06:41:44.688Z</time>
      </trkpt>
      <trkpt lat="45.61933" lon="4.6703">
        <ele>416.772335</ele>
        <time>2025-09-13T06:41:48.691Z</time>
      </trkpt>
      <trkpt lat="45.61933" lon="4.67015">
        <ele>415.784187</ele>
        <time>2025-09-13T06:41:51.683Z</time>
      </trkpt>
      <trkpt lat="45.61931" lon="4.66996">
        <ele>414.490237</ele>
        <time>2025-09-13T06:41:54.696Z</time>
      </trkpt>
      <trkpt lat="45.61921" lon="4.66989">
        <ele>413.415485</ele>
        <time>2025-09-13T06:41:56.680Z</time>
      </trkpt>
      <trkpt lat="45.61909" lon="4.66986">
        <ele>412.204344</ele>
        <time>2025-09-13T06:41:58.680Z</time>
      </trkpt>
      <trkpt lat="45.61894" lon="4.66984">
        <ele>410.686645</ele>
        <time>2025-09-13T06:42:00.690Z</time>
      </trkpt>
      <trkpt lat="45.61877" lon="4.66982">
        <ele>409.025011</ele>
        <time>2025-09-13T06:42:02.688Z</time>
      </trkpt>
      <trkpt lat="45.61862" lon="4.66984">
        <ele>407.58472</ele>
        <time>2025-09-13T06:42:04.694Z</time>
      </trkpt>
      <trkpt lat="45.6185" lon="4.66987">
        <ele>406.362808</ele>
        <time>2025-09-13T06:42:06.677Z</time>
      </trkpt>
      <trkpt lat="45.6184" lon="4.66989">
        <ele>405.355343</ele>
        <time>2025-09-13T06:42:08.681Z</time>
      </trkpt>
      <trkpt lat="45.61831" lon="4.66984">
        <ele>404.426328</ele>
        <time>2025-09-13T06:42:11.697Z</time>
      </trkpt>
      <trkpt lat="45.61837" lon="4.66968">
        <ele>403.192655</ele>
        <time>2025-09-13T06:42:14.689Z</time>
      </trkpt>
      <trkpt lat="45.61842" lon="4.66958">
        <ele>402.297461</ele>
        <time>2025-09-13T06:42:16.670Z</time>
      </trkpt>
      <trkpt lat="45.61848" lon="4.66946">
        <ele>401.357798</ele>
        <time>2025-09-13T06:42:20.672Z</time>
      </trkpt>
      <trkpt lat="45.61847" lon="4.66932">
        <ele>400.438411</ele>
        <time>2025-09-13T06:42:25.676Z</time>
      </trkpt>
      <trkpt lat="45.61836" lon="4.66929">
        <ele>399.772411</ele>
        <time>2025-09-13T06:42:28.677Z</time>
      </trkpt>
      <trkpt lat="45.61828" lon="4.66938">
        <ele>399.207181</ele>
        <time>2025-09-13T06:42:30.676Z</time>
      </trkpt>
      <trkpt lat="45.61822" lon="4.66948">
        <ele>398.65964</ele>
        <time>2025-09-13T06:42:32.720Z</time>
      </trkpt>
      <trkpt lat="45.61813" lon="4.66962">
        <ele>397.907776</ele>
        <time>2025-09-13T06:42:35.689Z</time>
      </trkpt>
      <trkpt lat="45.61806" lon="4.66975">
        <ele>397.235861</ele>
        <time>2025-09-13T06:42:38.694Z</time>
      </trkpt>
      <trkpt lat="45.61799" lon="4.66988">
        <ele>396.561326</ele>
        <time>2025-09-13T06:42:41.689Z</time>
      </trkpt>
      <trkpt lat="45.61791" lon="4.66996">
        <ele>396.015147</ele>
        <time>2025-09-13T06:42:43.694Z</time>
      </trkpt>
      <trkpt lat="45.61782" lon="4.67001">
        <ele>395.474993</ele>
        <time>2025-09-13T06:42:45.693Z</time>
      </trkpt>
      <trkpt lat="45.61773" lon="4.67003">
        <ele>394.925235</ele>
        <time>2025-09-13T06:42:47.686Z</time>
      </trkpt>
      <trkpt lat="45.61762" lon="4.67002">
        <ele>394.281583</ele>
        <time>2025-09-13T06:42:49.685Z</time>
      </trkpt>
      <trkpt lat="45.6175" lon="4.66998">
        <ele>393.591306</ele>
        <time>2025-09-13T06:42:51.684Z</time>
      </trkpt>
      <trkpt lat="45.61738" lon="4.66994">
        <ele>392.830687</ele>
        <time>2025-09-13T06:42:53.668Z</time>
      </trkpt>
      <trkpt lat="45.61724" lon="4.66993">
        <ele>392.02651</ele>
        <time>2025-09-13T06:42:55.678Z</time>
      </trkpt>
      <trkpt lat="45.6171" lon="4.66997">
        <ele>391.217119</ele>
        <time>2025-09-13T06:42:57.670Z</time>
      </trkpt>
      <trkpt lat="45.61698" lon="4.67001">
        <ele>390.496288</ele>
        <time>2025-09-13T06:42:59.671Z</time>
      </trkpt>
      <trkpt lat="45.61686" lon="4.67009">
        <ele>389.887499</ele>
        <time>2025-09-13T06:43:01.678Z</time>
      </trkpt>
      <trkpt lat="45.61674" lon="4.67016">
        <ele>389.371093</ele>
        <time>2025-09-13T06:43:03.661Z</time>
      </trkpt>
      <trkpt lat="45.61663" lon="4.67025">
        <ele>388.873138</ele>
        <time>2025-09-13T06:43:05.673Z</time>
      </trkpt>
      <trkpt lat="45.61653" lon="4.67035">
        <ele>388.395672</ele>
        <time>2025-09-13T06:43:07.670Z</time>
      </trkpt>
      <trkpt lat="45.61643" lon="4.67043">
        <ele>387.951327</ele>
        <time>2025-09-13T06:43:09.657Z</time>
      </trkpt>
      <trkpt lat="45.61633" lon="4.67051">
        <ele>387.527235</ele>
        <time>2025-09-13T06:43:11.670Z</time>
      </trkpt>
      <trkpt lat="45.61625" lon="4.67058">
        <ele>387.13168</ele>
        <time>2025-09-13T06:43:13.664Z</time>
      </trkpt>
      <trkpt lat="45.61616" lon="4.67063">
        <ele>386.777191</ele>
        <time>2025-09-13T06:43:16.673Z</time>
      </trkpt>
      <trkpt lat="45.61605" lon="4.67042">
        <ele>386.039633</ele>
        <time>2025-09-13T06:43:50.876Z</time>
      </trkpt>
      <trkpt lat="45.61598" lon="4.67031">
        <ele>385.636358</ele>
        <time>2025-09-13T06:43:53.675Z</time>
      </trkpt>
      <trkpt lat="45.61587" lon="4.67028">
        <ele>385.193</ele>
        <time>2025-09-13T06:43:56.669Z</time>
      </trkpt>
      <trkpt lat="45.61575" lon="4.67031">
        <ele>384.737633</ele>
        <time>2025-09-13T06:44:00.682Z</time>
      </trkpt>
      <trkpt lat="45.61566" lon="4.67028">
        <ele>384.372108</ele>
        <time>2025-09-13T06:44:05.670Z</time>
      </trkpt>
      <trkpt lat="45.61556" lon="4.67037">
        <ele>383.90563</ele>
        <time>2025-09-13T06:44:10.690Z</time>
      </trkpt>
      <trkpt lat="45.61546" lon="4.67039">
        <ele>383.508964</ele>
        <time>2025-09-13T06:44:12.694Z</time>
      </trkpt>
      <trkpt lat="45.61535" lon="4.67044">
        <ele>383.098597</ele>
        <time>2025-09-13T06:44:14.680Z</time>
      </trkpt>
      <trkpt lat="45.61525" lon="4.67048">
        <ele>382.82431</ele>
        <time>2025-09-13T06:44:16.684Z</time>
      </trkpt>
      <trkpt lat="45.61514" lon="4.6705">
        <ele>382.564595</ele>
        <time>2025-09-13T06:44:18.672Z</time>
      </trkpt>
      <trkpt lat="45.61504" lon="4.67053">
        <ele>382.321969</ele>
        <time>2025-09-13T06:44:20.685Z</time>
      </trkpt>
      <trkpt lat="45.61496" lon="4.67059">
        <ele>382.082858</ele>
        <time>2025-09-13T06:44:22.680Z</time>
      </trkpt>
      <trkpt lat="45.61489" lon="4.67067">
        <ele>381.859884</ele>
        <time>2025-09-13T06:44:24.703Z</time>
      </trkpt>
      <trkpt lat="45.6148" lon="4.67079">
        <ele>381.577089</ele>
        <time>2025-09-13T06:44:27.674Z</time>
      </trkpt>
      <trkpt lat="45.61468" lon="4.67087">
        <ele>381.239887</ele>
        <time>2025-09-13T06:44:30.696Z</time>
      </trkpt>
      <trkpt lat="45.61457" lon="4.67091">
        <ele>380.971128</ele>
        <time>2025-09-13T06:44:32.699Z</time>
      </trkpt>
      <trkpt lat="45.61449" lon="4.67102">
        <ele>380.693636</ele>
        <time>2025-09-13T06:44:34.698Z</time>
      </trkpt>
      <trkpt lat="45.61442" lon="4.67115">
        <ele>380.416696</ele>
        <time>2025-09-13T06:44:36.696Z</time>
      </trkpt>
      <trkpt lat="45.61435" lon="4.67128">
        <ele>380.136826</ele>
        <time>2025-09-13T06:44:38.697Z</time>
      </trkpt>
      <trkpt lat="45.61431" lon="4.67145">
        <ele>379.822343</ele>
        <time>2025-09-13T06:44:41.696Z</time>
      </trkpt>
      <trkpt lat="45.61427" lon="4.67157">
        <ele>379.587604</ele>
        <time>2025-09-13T06:44:43.701Z</time>
      </trkpt>
      <trkpt lat="45.61421" lon="4.6717">
        <ele>379.333133</ele>
        <time>2025-09-13T06:44:45.699Z</time>
      </trkpt>
      <trkpt lat="45.61421" lon="4.67186">
        <ele>379.055127</ele>
        <time>2025-09-13T06:44:48.690Z</time>
      </trkpt>
      <trkpt lat="45.61429" lon="4.67193">
        <ele>378.832899</ele>
        <time>2025-09-13T06:44:51.699Z</time>
      </trkpt>
      <trkpt lat="45.61434" lon="4.67206">
        <ele>378.711796</ele>
        <time>2025-09-13T06:44:55.683Z</time>
      </trkpt>
      <trkpt lat="45.61432" lon="4.67223">
        <ele>378.673956</ele>
        <time>2025-09-13T06:44:59.718Z</time>
      </trkpt>
      <trkpt lat="45.6143" lon="4.67238">
        <ele>378.640769</ele>
        <time>2025-09-13T06:45:02.683Z</time>
      </trkpt>
      <trkpt lat="45.61424" lon="4.67248">
        <ele>378.610059</ele>
        <time>2025-09-13T06:45:04.692Z</time>
      </trkpt>
      <trkpt lat="45.61414" lon="4.67256">
        <ele>378.573896</ele>
        <time>2025-09-13T06:45:06.693Z</time>
      </trkpt>
      <trkpt lat="45.61405" lon="4.67265">
        <ele>378.53842</ele>
        <time>2025-09-13T06:45:08.738Z</time>
      </trkpt>
      <trkpt lat="45.61396" lon="4.67272">
        <ele>378.50447</ele>
        <time>2025-09-13T06:45:10.692Z</time>
      </trkpt>
      <trkpt lat="45.61387" lon="4.67277">
        <ele>378.472435</ele>
        <time>2025-09-13T06:45:12.685Z</time>
      </trkpt>
      <trkpt lat="45.61377" lon="4.67283">
        <ele>378.440236</ele>
        <time>2025-09-13T06:45:14.690Z</time>
      </trkpt>
      <trkpt lat="45.61368" lon="4.6729">
        <ele>378.407108</ele>
        <time>2025-09-13T06:45:16.688Z</time>
      </trkpt>
      <trkpt lat="45.6136" lon="4.67298">
        <ele>378.374506</ele>
        <time>2025-09-13T06:45:18.701Z</time>
      </trkpt>
      <trkpt lat="45.61352" lon="4.67306">
        <ele>378.344253</ele>
        <time>2025-09-13T06:45:20.673Z</time>
      </trkpt>
      <trkpt lat="45.61345" lon="4.67313">
        <ele>378.314753</ele>
        <time>2025-09-13T06:45:22.688Z</time>
      </trkpt>
      <trkpt lat="45.61336" lon="4.6732">
        <ele>378.283092</ele>
        <time>2025-09-13T06:45:24.678Z</time>
      </trkpt>
      <trkpt lat="45.61327" lon="4.67326">
        <ele>378.249316</ele>
        <time>2025-09-13T06:45:26.679Z</time>
      </trkpt>
      <trkpt lat="45.61315" lon="4.67333">
        <ele>378.209798</ele>
        <time>2025-09-13T06:45:28.677Z</time>
      </trkpt>
      <trkpt lat="45.61305" lon="4.67342">
        <ele>378.169593</ele>
        <time>2025-09-13T06:45:30.679Z</time>
      </trkpt>
      <trkpt lat="45.61294" lon="4.67353">
        <ele>378.410602</ele>
        <time>2025-09-13T06:45:32.680Z</time>
      </trkpt>
      <trkpt lat="45.61284" lon="4.67364">
        <ele>378.763582</ele>
        <time>2025-09-13T06:45:34.674Z</time>
      </trkpt>
      <trkpt lat="45.61275" lon="4.67374">
        <ele>379.094988</ele>
        <time>2025-09-13T06:45:36.671Z</time>
      </trkpt>
      <trkpt lat="45.61267" lon="4.67382">
        <ele>379.374851</ele>
        <time>2025-09-13T06:45:38.675Z</time>
      </trkpt>
      <trkpt lat="45.6126" lon="4.67392">
        <ele>379.647744</ele>
        <time>2025-09-13T06:45:41.678Z</time>
      </trkpt>
      <trkpt lat="45.61251" lon="4.67395">
        <ele>379.911001</ele>
        <time>2025-09-13T06:45:51.669Z</time>
      </trkpt>
      <trkpt lat="45.61248" lon="4.6738">
        <ele>380.222312</ele>
        <time>2025-09-13T06:45:55.686Z</time>
      </trkpt>
      <trkpt lat="45.61243" lon="4.67369">
        <ele>380.485217</ele>
        <time>2025-09-13T06:45:59.678Z</time>
      </trkpt>
      <trkpt lat="45.61233" lon="4.67369">
        <ele>380.772939</ele>
        <time>2025-09-13T06:46:04.679Z</time>
      </trkpt>
      <trkpt lat="45.61223" lon="4.67375">
        <ele>381.061524</ele>
        <time>2025-09-13T06:46:08.672Z</time>
      </trkpt>
      <trkpt lat="45.61212" lon="4.67378">
        <ele>381.3865</ele>
        <time>2025-09-13T06:46:12.671Z</time>
      </trkpt>
      <trkpt lat="45.61202" lon="4.67384">
        <ele>381.70643</ele>
        <time>2025-09-13T06:46:16.668Z</time>
      </trkpt>
      <trkpt lat="45.6119" lon="4.67386">
        <ele>382.032939</ele>
        <time>2025-09-13T06:46:20.687Z</time>
      </trkpt>
      <trkpt lat="45.61181" lon="4.6739">
        <ele>382.3145</ele>
        <time>2025-09-13T06:46:24.705Z</time>
      </trkpt>
      <trkpt lat="45.61171" lon="4.6739">
        <ele>382.588037</ele>
        <time>2025-09-13T06:46:28.703Z</time>
      </trkpt>
      <trkpt lat="45.6116" lon="4.6739">
        <ele>382.91009</ele>
        <time>2025-09-13T06:46:33.683Z</time>
      </trkpt>
      <trkpt lat="45.6115" lon="4.67393">
        <ele>383.204362</ele>
        <time>2025-09-13T06:46:39.682Z</time>
      </trkpt>
      <trkpt lat="45.61142" lon="4.674">
        <ele>383.690251</ele>
        <time>2025-09-13T06:46:45.679Z</time>
      </trkpt>
      <trkpt lat="45.61133" lon="4.67404">
        <ele>384.302679</ele>
        <time>2025-09-13T06:46:51.678Z</time>
      </trkpt>
      <trkpt lat="45.61123" lon="4.67408">
        <ele>384.95398</ele>
        <time>2025-09-13T06:46:57.679Z</time>
      </trkpt>
      <trkpt lat="45.61113" lon="4.67413">
        <ele>385.616444</ele>
        <time>2025-09-13T06:47:03.672Z</time>
      </trkpt>
      <trkpt lat="45.61104" lon="4.67418">
        <ele>386.214031</ele>
        <time>2025-09-13T06:47:08.673Z</time>
      </trkpt>
      <trkpt lat="45.61095" lon="4.67423">
        <ele>386.876124</ele>
        <time>2025-09-13T06:47:14.675Z</time>
      </trkpt>
      <trkpt lat="45.61085" lon="4.67429">
        <ele>387.523787</ele>
        <time>2025-09-13T06:47:20.682Z</time>
      </trkpt>
      <trkpt lat="45.61075" lon="4.67434">
        <ele>388.1858</ele>
        <time>2025-09-13T06:47:26.683Z</time>
      </trkpt>
      <trkpt lat="45.61065" lon="4.6744">
        <ele>388.85366</ele>
        <time>2025-09-13T06:47:32.674Z</time>
      </trkpt>
      <trkpt lat="45.61055" lon="4.67445">
        <ele>389.527588</ele>
        <time>2025-09-13T06:47:38.695Z</time>
      </trkpt>
      <trkpt lat="45.61045" lon="4.6745">
        <ele>390.214945</ele>
        <time>2025-09-13T06:47:44.686Z</time>
      </trkpt>
      <trkpt lat="45.61036" lon="4.67452">
        <ele>390.793462</ele>
        <time>2025-09-13T06:47:49.681Z</time>
      </trkpt>
      <trkpt lat="45.61026" lon="4.67455">
        <ele>391.43495</ele>
        <time>2025-09-13T06:47:55.671Z</time>
      </trkpt>
      <trkpt lat="45.61016" lon="4.67458">
        <ele>392.070997</ele>
        <time>2025-09-13T06:48:01.676Z</time>
      </trkpt>
      <trkpt lat="45.61006" lon="4.6746">
        <ele>392.722827</ele>
        <time>2025-09-13T06:48:07.692Z</time>
      </trkpt>
      <trkpt lat="45.60996" lon="4.67462">
        <ele>393.3698</ele>
        <time>2025-09-13T06:48:13.700Z</time>
      </trkpt>
      <trkpt lat="45.60986" lon="4.67464">
        <ele>394.019784</ele>
        <time>2025-09-13T06:48:19.693Z</time>
      </trkpt>
      <trkpt lat="45.60976" lon="4.67467">
        <ele>394.625282</ele>
        <time>2025-09-13T06:48:24.686Z</time>
      </trkpt>
      <trkpt lat="45.60968" lon="4.67473">
        <ele>394.841015</ele>
        <time>2025-09-13T06:48:28.687Z</time>
      </trkpt>
      <trkpt lat="45.60959" lon="4.6748">
        <ele>395.058322</ele>
        <time>2025-09-13T06:48:32.691Z</time>
      </trkpt>
      <trkpt lat="45.60949" lon="4.67486">
        <ele>395.283146</ele>
        <time>2025-09-13T06:48:36.679Z</time>
      </trkpt>
      <trkpt lat="45.6094" lon="4.67495">
        <ele>395.506844</ele>
        <time>2025-09-13T06:48:40.686Z</time>
      </trkpt>
      <trkpt lat="45.60931" lon="4.67503">
        <ele>395.729761</ele>
        <time>2025-09-13T06:48:44.676Z</time>
      </trkpt>
      <trkpt lat="45.60922" lon="4.67508">
        <ele>395.933706</ele>
        <time>2025-09-13T06:48:48.681Z</time>
      </trkpt>
      <trkpt lat="45.60905" lon="4.67532">
        <ele>396.434322</ele>
        <time>2025-09-13T06:52:15.685Z</time>
      </trkpt>
      <trkpt lat="45.60896" lon="4.67543">
        <ele>396.678928</ele>
        <time>2025-09-13T06:52:18.675Z</time>
      </trkpt>
      <trkpt lat="45.60886" lon="4.67554">
        <ele>396.945043</ele>
        <time>2025-09-13T06:52:21.664Z</time>
      </trkpt>
      <trkpt lat="45.60876" lon="4.67566">
        <ele>397.21806</ele>
        <time>2025-09-13T06:52:24.668Z</time>
      </trkpt>
      <trkpt lat="45.60868" lon="4.67578">
        <ele>397.462675</ele>
        <time>2025-09-13T06:52:27.675Z</time>
      </trkpt>
      <trkpt lat="45.60861" lon="4.67592">
        <ele>397.724347</ele>
        <time>2025-09-13T06:52:30.664Z</time>
      </trkpt>
      <trkpt lat="45.60856" lon="4.67603">
        <ele>397.920985</ele>
        <time>2025-09-13T06:52:32.671Z</time>
      </trkpt>
      <trkpt lat="45.6085" lon="4.67615">
        <ele>398.129643</ele>
        <time>2025-09-13T06:52:34.687Z</time>
      </trkpt>
      <trkpt lat="45.60844" lon="4.67626">
        <ele>398.331272</ele>
        <time>2025-09-13T06:52:36.663Z</time>
      </trkpt>
      <trkpt lat="45.60838" lon="4.67636">
        <ele>398.225592</ele>
        <time>2025-09-13T06:52:38.708Z</time>
      </trkpt>
      <trkpt lat="45.60832" lon="4.67647">
        <ele>397.839222</ele>
        <time>2025-09-13T06:52:40.678Z</time>
      </trkpt>
      <trkpt lat="45.60827" lon="4.67658">
        <ele>397.438724</ele>
        <time>2025-09-13T06:52:42.668Z</time>
      </trkpt>
      <trkpt lat="45.6082" lon="4.6767">
        <ele>397.007318</ele>
        <time>2025-09-13T06:52:44.677Z</time>
      </trkpt>
      <trkpt lat="45.60813" lon="4.67682">
        <ele>396.548997</ele>
        <time>2025-09-13T06:52:46.674Z</time>
      </trkpt>
      <trkpt lat="45.60808" lon="4.67693">
        <ele>396.162626</ele>
        <time>2025-09-13T06:52:48.679Z</time>
      </trkpt>
      <trkpt lat="45.60799" lon="4.67709">
        <ele>395.604264</ele>
        <time>2025-09-13T06:52:51.683Z</time>
      </trkpt>
      <trkpt lat="45.60795" lon="4.6772">
        <ele>395.224599</ele>
        <time>2025-09-13T06:52:53.668Z</time>
      </trkpt>
      <trkpt lat="45.60789" lon="4.67731">
        <ele>394.838257</ele>
        <time>2025-09-13T06:52:55.677Z</time>
      </trkpt>
      <trkpt lat="45.60784" lon="4.67743">
        <ele>394.425934</ele>
        <time>2025-09-13T06:52:57.678Z</time>
      </trkpt>
      <trkpt lat="45.60779" lon="4.67754">
        <ele>394.043829</ele>
        <time>2025-09-13T06:52:59.676Z</time>
      </trkpt>
      <trkpt lat="45.60775" lon="4.67767">
        <ele>393.633929</ele>
        <time>2025-09-13T06:53:01.691Z</time>
      </trkpt>
      <trkpt lat="45.60771" lon="4.67782">
        <ele>393.194424</ele>
        <time>2025-09-13T06:53:03.687Z</time>
      </trkpt>
      <trkpt lat="45.6077" lon="4.67797">
        <ele>392.74665</ele>
        <time>2025-09-13T06:53:05.666Z</time>
      </trkpt>
      <trkpt lat="45.60771" lon="4.67813">
        <ele>392.297367</ele>
        <time>2025-09-13T06:53:07.669Z</time>
      </trkpt>
      <trkpt lat="45.60771" lon="4.67827">
        <ele>391.874155</ele>
        <time>2025-09-13T06:53:09.678Z</time>
      </trkpt>
      <trkpt lat="45.60771" lon="4.67842">
        <ele>391.448786</ele>
        <time>2025-09-13T06:53:11.691Z</time>
      </trkpt>
      <trkpt lat="45.60768" lon="4.67858">
        <ele>390.953251</ele>
        <time>2025-09-13T06:53:13.692Z</time>
      </trkpt>
      <trkpt lat="45.60763" lon="4.67875">
        <ele>390.133619</ele>
        <time>2025-09-13T06:53:15.694Z</time>
      </trkpt>
      <trkpt lat="45.60758" lon="4.67893">
        <ele>389.321963</ele>
        <time>2025-09-13T06:53:17.688Z</time>
      </trkpt>
      <trkpt lat="45.60755" lon="4.6791">
        <ele>388.56976</ele>
        <time>2025-09-13T06:53:19.691Z</time>
      </trkpt>
      <trkpt lat="45.60752" lon="4.67927">
        <ele>387.83934</ele>
        <time>2025-09-13T06:53:21.683Z</time>
      </trkpt>
      <trkpt lat="45.60749" lon="4.67942">
        <ele>387.158563</ele>
        <time>2025-09-13T06:53:23.688Z</time>
      </trkpt>
      <trkpt lat="45.60745" lon="4.67959">
        <ele>386.409518</ele>
        <time>2025-09-13T06:53:25.684Z</time>
      </trkpt>
      <trkpt lat="45.60741" lon="4.67976">
        <ele>385.640167</ele>
        <time>2025-09-13T06:53:27.688Z</time>
      </trkpt>
      <trkpt lat="45.60737" lon="4.67991">
        <ele>384.935561</ele>
        <time>2025-09-13T06:53:29.676Z</time>
      </trkpt>
      <trkpt lat="45.60731" lon="4.68006">
        <ele>384.203862</ele>
        <time>2025-09-13T06:53:31.684Z</time>
      </trkpt>
      <trkpt lat="45.60724" lon="4.6802">
        <ele>383.449226</ele>
        <time>2025-09-13T06:53:33.694Z</time>
      </trkpt>
      <trkpt lat="45.60718" lon="4.68032">
        <ele>382.839351</ele>
        <time>2025-09-13T06:53:35.690Z</time>
      </trkpt>
      <trkpt lat="45.60709" lon="4.68035">
        <ele>382.283037</ele>
        <time>2025-09-13T06:53:39.685Z</time>
      </trkpt>
      <trkpt lat="45.607" lon="4.6804">
        <ele>381.664318</ele>
        <time>2025-09-13T06:53:43.675Z</time>
      </trkpt>
      <trkpt lat="45.60695" lon="4.68051">
        <ele>381.108765</ele>
        <time>2025-09-13T06:53:45.671Z</time>
      </trkpt>
      <trkpt lat="45.60689" lon="4.68066">
        <ele>380.385005</ele>
        <time>2025-09-13T06:53:47.681Z</time>
      </trkpt>
      <trkpt lat="45.60682" lon="4.68082">
        <ele>379.720515</ele>
        <time>2025-09-13T06:53:49.682Z</time>
      </trkpt>
      <trkpt lat="45.60676" lon="4.68097">
        <ele>379.194827</ele>
        <time>2025-09-13T06:53:51.673Z</time>
      </trkpt>
      <trkpt lat="45.6067" lon="4.68112">
        <ele>378.680052</ele>
        <time>2025-09-13T06:53:53.671Z</time>
      </trkpt>
      <trkpt lat="45.60664" lon="4.68125">
        <ele>378.223315</ele>
        <time>2025-09-13T06:53:55.673Z</time>
      </trkpt>
      <trkpt lat="45.60659" lon="4.68137">
        <ele>377.832187</ele>
        <time>2025-09-13T06:53:57.696Z</time>
      </trkpt>
      <trkpt lat="45.60655" lon="4.6815">
        <ele>377.389413</ele>
        <time>2025-09-13T06:54:00.697Z</time>
      </trkpt>
      <trkpt lat="45.60644" lon="4.68152">
        <ele>376.929906</ele>
        <time>2025-09-13T06:54:05.689Z</time>
      </trkpt>
      <trkpt lat="45.60637" lon="4.68143">
        <ele>376.541072</ele>
        <time>2025-09-13T06:54:08.703Z</time>
      </trkpt>
      <trkpt lat="45.60629" lon="4.68133">
        <ele>376.106215</ele>
        <time>2025-09-13T06:54:11.676Z</time>
      </trkpt>
      <trkpt lat="45.60622" lon="4.68123">
        <ele>375.689762</ele>
        <time>2025-09-13T06:54:14.711Z</time>
      </trkpt>
      <trkpt lat="45.60616" lon="4.68113">
        <ele>375.29236</ele>
        <time>2025-09-13T06:54:17.670Z</time>
      </trkpt>
      <trkpt lat="45.60609" lon="4.68103">
        <ele>374.855543</ele>
        <time>2025-09-13T06:54:20.670Z</time>
      </trkpt>
      <trkpt lat="45.60601" lon="4.68093">
        <ele>374.43192</ele>
        <time>2025-09-13T06:54:23.665Z</time>
      </trkpt>
      <trkpt lat="45.60593" lon="4.68082">
        <ele>373.966333</ele>
        <time>2025-09-13T06:54:26.679Z</time>
      </trkpt>
      <trkpt lat="45.60583" lon="4.68072">
        <ele>373.439878</ele>
        <time>2025-09-13T06:54:29.669Z</time>
      </trkpt>
      <trkpt lat="45.60573" lon="4.68063">
        <ele>372.923065</ele>
        <time>2025-09-13T06:54:32.661Z</time>
      </trkpt>
      <trkpt lat="45.60563" lon="4.68054">
        <ele>372.447039</ele>
        <time>2025-09-13T06:54:35.669Z</time>
      </trkpt>
      <trkpt lat="45.60554" lon="4.68046">
        <ele>372.240176</ele>
        <time>2025-09-13T06:54:38.664Z</time>
      </trkpt>
      <trkpt lat="45.60544" lon="4.68038">
        <ele>372.026154</ele>
        <time>2025-09-13T06:54:41.669Z</time>
      </trkpt>
      <trkpt lat="45.60534" lon="4.6803">
        <ele>371.817465</ele>
        <time>2025-09-13T06:54:44.663Z</time>
      </trkpt>
      <trkpt lat="45.60524" lon="4.68022">
        <ele>371.613327</ele>
        <time>2025-09-13T06:54:47.671Z</time>
      </trkpt>
      <trkpt lat="45.60514" lon="4.68014">
        <ele>371.403134</ele>
        <time>2025-09-13T06:54:50.671Z</time>
      </trkpt>
      <trkpt lat="45.60504" lon="4.68006">
        <ele>371.193778</ele>
        <time>2025-09-13T06:54:53.673Z</time>
      </trkpt>
      <trkpt lat="45.60494" lon="4.67998">
        <ele>370.981357</ele>
        <time>2025-09-13T06:54:56.666Z</time>
      </trkpt>
      <trkpt lat="45.60483" lon="4.6799">
        <ele>370.755221</ele>
        <time>2025-09-13T06:54:59.692Z</time>
      </trkpt>
      <trkpt lat="45.60473" lon="4.67982">
        <ele>370.540819</ele>
        <time>2025-09-13T06:55:02.670Z</time>
      </trkpt>
      <trkpt lat="45.60463" lon="4.67974">
        <ele>370.331249</ele>
        <time>2025-09-13T06:55:05.659Z</time>
      </trkpt>
      <trkpt lat="45.60452" lon="4.67966">
        <ele>370.109305</ele>
        <time>2025-09-13T06:55:08.675Z</time>
      </trkpt>
      <trkpt lat="45.60441" lon="4.67959">
        <ele>369.88897</ele>
        <time>2025-09-13T06:55:11.692Z</time>
      </trkpt>
      <trkpt lat="45.6043" lon="4.67954">
        <ele>369.669089</ele>
        <time>2025-09-13T06:55:14.679Z</time>
      </trkpt>
      <trkpt lat="45.60418" lon="4.6795">
        <ele>369.444568</ele>
        <time>2025-09-13T06:55:17.694Z</time>
      </trkpt>
      <trkpt lat="45.60407" lon="4.67947">
        <ele>369.239403</ele>
        <time>2025-09-13T06:55:20.662Z</time>
      </trkpt>
      <trkpt lat="45.60396" lon="4.67946">
        <ele>369.030668</ele>
        <time>2025-09-13T06:55:23.705Z</time>
      </trkpt>
      <trkpt lat="45.60384" lon="4.67946">
        <ele>368.773429</ele>
        <time>2025-09-13T06:55:26.678Z</time>
      </trkpt>
      <trkpt lat="45.60372" lon="4.67947">
        <ele>368.513923</ele>
        <time>2025-09-13T06:55:29.687Z</time>
      </trkpt>
      <trkpt lat="45.6036" lon="4.67949">
        <ele>368.23805</ele>
        <time>2025-09-13T06:55:32.670Z</time>
      </trkpt>
      <trkpt lat="45.60348" lon="4.67951">
        <ele>367.98119</ele>
        <time>2025-09-13T06:55:35.686Z</time>
      </trkpt>
      <trkpt lat="45.60336" lon="4.67952">
        <ele>367.714343</ele>
        <time>2025-09-13T06:55:38.675Z</time>
      </trkpt>
      <trkpt lat="45.60323" lon="4.67953">
        <ele>367.449775</ele>
        <time>2025-09-13T06:55:41.696Z</time>
      </trkpt>
      <trkpt lat="45.60311" lon="4.67955">
        <ele>367.191671</ele>
        <time>2025-09-13T06:55:44.685Z</time>
      </trkpt>
      <trkpt lat="45.603" lon="4.67956">
        <ele>366.940152</ele>
        <time>2025-09-13T06:55:47.688Z</time>
      </trkpt>
      <trkpt lat="45.60289" lon="4.67957">
        <ele>366.714611</ele>
        <time>2025-09-13T06:55:50.660Z</time>
      </trkpt>
      <trkpt lat="45.60278" lon="4.67959">
        <ele>366.469673</ele>
        <time>2025-09-13T06:55:53.690Z</time>
      </trkpt>
      <trkpt lat="45.60265" lon="4.6796">
        <ele>366.192571</ele>
        <time>2025-09-13T06:55:56.681Z</time>
      </trkpt>
      <trkpt lat="45.60252" lon="4.67961">
        <ele>365.901903</ele>
        <time>2025-09-13T06:55:59.686Z</time>
      </trkpt>
      <trkpt lat="45.60243" lon="4.67961">
        <ele>365.698659</ele>
        <time>2025-09-13T06:56:01.679Z</time>
      </trkpt>
      <trkpt lat="45.60233" lon="4.67961">
        <ele>365.491054</ele>
        <time>2025-09-13T06:56:03.692Z</time>
      </trkpt>
      <trkpt lat="45.60224" lon="4.6796">
        <ele>365.28891</ele>
        <time>2025-09-13T06:56:05.684Z</time>
      </trkpt>
      <trkpt lat="45.60211" lon="4.67956">
        <ele>365.115273</ele>
        <time>2025-09-13T06:56:08.676Z</time>
      </trkpt>
      <trkpt lat="45.60198" lon="4.6795">
        <ele>364.954796</ele>
        <time>2025-09-13T06:56:11.680Z</time>
      </trkpt>
      <trkpt lat="45.60187" lon="4.67944">
        <ele>364.810481</ele>
        <time>2025-09-13T06:56:14.678Z</time>
      </trkpt>
      <trkpt lat="45.60176" lon="4.67936">
        <ele>364.660666</ele>
        <time>2025-09-13T06:56:17.695Z</time>
      </trkpt>
      <trkpt lat="45.60164" lon="4.67928">
        <ele>364.510048</ele>
        <time>2025-09-13T06:56:20.676Z</time>
      </trkpt>
      <trkpt lat="45.60154" lon="4.67919">
        <ele>364.362451</ele>
        <time>2025-09-13T06:56:23.672Z</time>
      </trkpt>
      <trkpt lat="45.60143" lon="4.67912">
        <ele>364.22413</ele>
        <time>2025-09-13T06:56:26.673Z</time>
      </trkpt>
      <trkpt lat="45.60132" lon="4.67903">
        <ele>364.07564</ele>
        <time>2025-09-13T06:56:29.688Z</time>
      </trkpt>
      <trkpt lat="45.60124" lon="4.67896">
        <ele>363.963911</ele>
        <time>2025-09-13T06:56:31.675Z</time>
      </trkpt>
      <trkpt lat="45.60112" lon="4.67887">
        <ele>363.801447</ele>
        <time>2025-09-13T06:56:34.669Z</time>
      </trkpt>
      <trkpt lat="45.60101" lon="4.67878">
        <ele>363.64805</ele>
        <time>2025-09-13T06:56:37.666Z</time>
      </trkpt>
      <trkpt lat="45.6009" lon="4.67869">
        <ele>363.496923</ele>
        <time>2025-09-13T06:56:40.678Z</time>
      </trkpt>
      <trkpt lat="45.60082" lon="4.67863">
        <ele>363.386829</ele>
        <time>2025-09-13T06:56:42.669Z</time>
      </trkpt>
      <trkpt lat="45.60074" lon="4.67856">
        <ele>363.276872</ele>
        <time>2025-09-13T06:56:44.678Z</time>
      </trkpt>
      <trkpt lat="45.60063" lon="4.67846">
        <ele>363.12224</ele>
        <time>2025-09-13T06:56:47.670Z</time>
      </trkpt>
      <trkpt lat="45.60054" lon="4.67836">
        <ele>363.364551</ele>
        <time>2025-09-13T06:56:50.684Z</time>
      </trkpt>
      <trkpt lat="45.60046" lon="4.67824">
        <ele>363.664386</ele>
        <time>2025-09-13T06:56:53.674Z</time>
      </trkpt>
      <trkpt lat="45.6004" lon="4.67812">
        <ele>363.945432</ele>
        <time>2025-09-13T06:56:56.679Z</time>
      </trkpt>
      <trkpt lat="45.60033" lon="4.67798">
        <ele>364.269613</ele>
        <time>2025-09-13T06:56:59.674Z</time>
      </trkpt>
      <trkpt lat="45.60027" lon="4.67784">
        <ele>364.581329</ele>
        <time>2025-09-13T06:57:02.667Z</time>
      </trkpt>
      <trkpt lat="45.60019" lon="4.67771">
        <ele>364.886641</ele>
        <time>2025-09-13T06:57:05.664Z</time>
      </trkpt>
      <trkpt lat="45.60012" lon="4.67761">
        <ele>365.170975</ele>
        <time>2025-09-13T06:57:08.697Z</time>
      </trkpt>
      <trkpt lat="45.60003" lon="4.67753">
        <ele>365.442198</ele>
        <time>2025-09-13T06:57:11.662Z</time>
      </trkpt>
      <trkpt lat="45.59995" lon="4.67744">
        <ele>365.721146</ele>
        <time>2025-09-13T06:57:14.688Z</time>
      </trkpt>
      <trkpt lat="45.59987" lon="4.67736">
        <ele>365.974981</ele>
        <time>2025-09-13T06:57:17.673Z</time>
      </trkpt>
      <trkpt lat="45.5998" lon="4.67728">
        <ele>366.226686</ele>
        <time>2025-09-13T06:57:20.697Z</time>
      </trkpt>
      <trkpt lat="45.59972" lon="4.67721">
        <ele>366.479441</ele>
        <time>2025-09-13T06:57:23.697Z</time>
      </trkpt>
      <trkpt lat="45.59964" lon="4.67713">
        <ele>366.72887</ele>
        <time>2025-09-13T06:57:26.676Z</time>
      </trkpt>
      <trkpt lat="45.59957" lon="4.67705">
        <ele>366.980483</ele>
        <time>2025-09-13T06:57:29.666Z</time>
      </trkpt>
      <trkpt lat="45.59948" lon="4.67694">
        <ele>367.295979</ele>
        <time>2025-09-13T06:57:33.659Z</time>
      </trkpt>
      <trkpt lat="45.59942" lon="4.67683">
        <ele>367.550823</ele>
        <time>2025-09-13T06:57:36.685Z</time>
      </trkpt>
      <trkpt lat="45.59935" lon="4.67672">
        <ele>367.837067</ele>
        <time>2025-09-13T06:57:39.670Z</time>
      </trkpt>
      <trkpt lat="45.59924" lon="4.67669">
        <ele>368.722831</ele>
        <time>2025-09-13T06:57:42.697Z</time>
      </trkpt>
      <trkpt lat="45.59914" lon="4.67668">
        <ele>369.653153</ele>
        <time>2025-09-13T06:57:48.664Z</time>
      </trkpt>
      <trkpt lat="45.59907" lon="4.67659">
        <ele>370.572038</ele>
        <time>2025-09-13T06:57:54.689Z</time>
      </trkpt>
      <trkpt lat="45.59898" lon="4.67651">
        <ele>371.633515</ele>
        <time>2025-09-13T06:58:10.671Z</time>
      </trkpt>
      <trkpt lat="45.59887" lon="4.67647">
        <ele>372.658504</ele>
        <time>2025-09-13T06:58:15.661Z</time>
      </trkpt>
      <trkpt lat="45.59877" lon="4.67643">
        <ele>373.683261</ele>
        <time>2025-09-13T06:58:22.704Z</time>
      </trkpt>
      <trkpt lat="45.59868" lon="4.67636">
        <ele>374.739127</ele>
        <time>2025-09-13T06:58:27.690Z</time>
      </trkpt>
      <trkpt lat="45.59859" lon="4.6763">
        <ele>375.660641</ele>
        <time>2025-09-13T06:58:30.670Z</time>
      </trkpt>
      <trkpt lat="45.59852" lon="4.67621">
        <ele>376.575517</ele>
        <time>2025-09-13T06:58:33.658Z</time>
      </trkpt>
      <trkpt lat="45.59843" lon="4.67612">
        <ele>377.65952</ele>
        <time>2025-09-13T06:58:37.667Z</time>
      </trkpt>
      <trkpt lat="45.59835" lon="4.676">
        <ele>378.755337</ele>
        <time>2025-09-13T06:58:41.692Z</time>
      </trkpt>
      <trkpt lat="45.59827" lon="4.6759">
        <ele>379.756197</ele>
        <time>2025-09-13T06:58:44.679Z</time>
      </trkpt>
      <trkpt lat="45.59821" lon="4.67579">
        <ele>380.713731</ele>
        <time>2025-09-13T06:58:47.693Z</time>
      </trkpt>
      <trkpt lat="45.59813" lon="4.67569">
        <ele>381.792167</ele>
        <time>2025-09-13T06:58:51.670Z</time>
      </trkpt>
      <trkpt lat="45.59805" lon="4.67559">
        <ele>382.763117</ele>
        <time>2025-09-13T06:58:56.678Z</time>
      </trkpt>
      <trkpt lat="45.59798" lon="4.67551">
        <ele>383.665784</ele>
        <time>2025-09-13T06:59:01.666Z</time>
      </trkpt>
      <trkpt lat="45.5979" lon="4.67542">
        <ele>384.620988</ele>
        <time>2025-09-13T06:59:06.695Z</time>
      </trkpt>
      <trkpt lat="45.59781" lon="4.67534">
        <ele>385.447332</ele>
        <time>2025-09-13T06:59:11.698Z</time>
      </trkpt>
      <trkpt lat="45.59772" lon="4.67525">
        <ele>385.779086</ele>
        <time>2025-09-13T06:59:16.678Z</time>
      </trkpt>
      <trkpt lat="45.59765" lon="4.67516">
        <ele>386.078605</ele>
        <time>2025-09-13T06:59:20.662Z</time>
      </trkpt>
      <trkpt lat="45.59757" lon="4.67508">
        <ele>386.373879</ele>
        <time>2025-09-13T06:59:24.668Z</time>
      </trkpt>
      <trkpt lat="45.59749" lon="4.675">
        <ele>386.674246</ele>
        <time>2025-09-13T06:59:28.669Z</time>
      </trkpt>
      <trkpt lat="45.59742" lon="4.6749">
        <ele>386.988757</ele>
        <time>2025-09-13T06:59:32.670Z</time>
      </trkpt>
      <trkpt lat="45.59734" lon="4.67481">
        <ele>387.302941</ele>
        <time>2025-09-13T06:59:36.676Z</time>
      </trkpt>
      <trkpt lat="45.59724" lon="4.67479">
        <ele>387.613608</ele>
        <time>2025-09-13T06:59:40.667Z</time>
      </trkpt>
      <trkpt lat="45.59714" lon="4.67482">
        <ele>387.936961</ele>
        <time>2025-09-13T06:59:44.670Z</time>
      </trkpt>
      <trkpt lat="45.59703" lon="4.67484">
        <ele>388.255384</ele>
        <time>2025-09-13T06:59:48.679Z</time>
      </trkpt>
      <trkpt lat="45.59693" lon="4.67486">
        <ele>388.593654</ele>
        <time>2025-09-13T06:59:52.676Z</time>
      </trkpt>
      <trkpt lat="45.59682" lon="4.67487">
        <ele>388.920456</ele>
        <time>2025-09-13T06:59:56.679Z</time>
      </trkpt>
      <trkpt lat="45.59673" lon="4.67488">
        <ele>389.218921</ele>
        <time>2025-09-13T07:00:01.664Z</time>
      </trkpt>
      <trkpt lat="45.59671" lon="4.67503">
        <ele>389.535711</ele>
        <time>2025-09-13T07:00:08.680Z</time>
      </trkpt>
      <trkpt lat="45.59671" lon="4.67528">
        <ele>390.078553</ele>
        <time>2025-09-13T07:04:11.678Z</time>
      </trkpt>
      <trkpt lat="45.59671" lon="4.67541">
        <ele>390.360623</ele>
        <time>2025-09-13T07:04:14.681Z</time>
      </trkpt>
      <trkpt lat="45.59671" lon="4.67555">
        <ele>390.65584</ele>
        <time>2025-09-13T07:04:17.675Z</time>
      </trkpt>
      <trkpt lat="45.59671" lon="4.67568">
        <ele>390.903023</ele>
        <time>2025-09-13T07:04:20.683Z</time>
      </trkpt>
      <trkpt lat="45.59674" lon="4.67584">
        <ele>390.729993</ele>
        <time>2025-09-13T07:04:23.663Z</time>
      </trkpt>
      <trkpt lat="45.59676" lon="4.67601">
        <ele>390.536207</ele>
        <time>2025-09-13T07:04:26.679Z</time>
      </trkpt>
      <trkpt lat="45.59679" lon="4.67618">
        <ele>390.344543</ele>
        <time>2025-09-13T07:04:29.681Z</time>
      </trkpt>
      <trkpt lat="45.59683" lon="4.67635">
        <ele>390.155703</ele>
        <time>2025-09-13T07:04:32.671Z</time>
      </trkpt>
      <trkpt lat="45.59685" lon="4.6765">
        <ele>389.985929</ele>
        <time>2025-09-13T07:04:35.678Z</time>
      </trkpt>
      <trkpt lat="45.59687" lon="4.67667">
        <ele>389.800893</ele>
        <time>2025-09-13T07:04:38.690Z</time>
      </trkpt>
      <trkpt lat="45.59686" lon="4.6768">
        <ele>389.657772</ele>
        <time>2025-09-13T07:04:40.675Z</time>
      </trkpt>
      <trkpt lat="45.59684" lon="4.67699">
        <ele>389.454466</ele>
        <time>2025-09-13T07:04:43.682Z</time>
      </trkpt>
      <trkpt lat="45.59681" lon="4.67715">
        <ele>389.267747</ele>
        <time>2025-09-13T07:04:46.683Z</time>
      </trkpt>
      <trkpt lat="45.59677" lon="4.67728">
        <ele>389.115321</ele>
        <time>2025-09-13T07:04:49.672Z</time>
      </trkpt>
      <trkpt lat="45.59671" lon="4.6774">
        <ele>388.954963</ele>
        <time>2025-09-13T07:04:53.667Z</time>
      </trkpt>
      <trkpt lat="45.59664" lon="4.67752">
        <ele>388.784285</ele>
        <time>2025-09-13T07:04:58.690Z</time>
      </trkpt>
      <trkpt lat="45.59657" lon="4.67762">
        <ele>388.632054</ele>
        <time>2025-09-13T07:05:02.683Z</time>
      </trkpt>
      <trkpt lat="45.59651" lon="4.67772">
        <ele>388.488299</ele>
        <time>2025-09-13T07:05:07.690Z</time>
      </trkpt>
      <trkpt lat="45.59644" lon="4.67784">
        <ele>388.322927</ele>
        <time>2025-09-13T07:05:12.691Z</time>
      </trkpt>
      <trkpt lat="45.59637" lon="4.67795">
        <ele>388.158602</ele>
        <time>2025-09-13T07:05:16.680Z</time>
      </trkpt>
      <trkpt lat="45.59631" lon="4.67806">
        <ele>388.127486</ele>
        <time>2025-09-13T07:05:20.681Z</time>
      </trkpt>
      <trkpt lat="45.59626" lon="4.67816">
        <ele>388.13084</ele>
        <time>2025-09-13T07:05:24.671Z</time>
      </trkpt>
      <trkpt lat="45.59618" lon="4.67824">
        <ele>388.134297</ele>
        <time>2025-09-13T07:05:28.690Z</time>
      </trkpt>
      <trkpt lat="45.59611" lon="4.67832">
        <ele>388.137595</ele>
        <time>2025-09-13T07:05:32.667Z</time>
      </trkpt>
      <trkpt lat="45.59604" lon="4.67842">
        <ele>388.140939</ele>
        <time>2025-09-13T07:05:36.675Z</time>
      </trkpt>
      <trkpt lat="45.596" lon="4.67855">
        <ele>388.144762</ele>
        <time>2025-09-13T07:05:40.671Z</time>
      </trkpt>
      <trkpt lat="45.59597" lon="4.6787">
        <ele>388.148707</ele>
        <time>2025-09-13T07:05:44.682Z</time>
      </trkpt>
      <trkpt lat="45.59593" lon="4.67886">
        <ele>388.153073</ele>
        <time>2025-09-13T07:05:48.699Z</time>
      </trkpt>
      <trkpt lat="45.5959" lon="4.67901">
        <ele>388.157032</ele>
        <time>2025-09-13T07:05:51.675Z</time>
      </trkpt>
      <trkpt lat="45.59589" lon="4.67917">
        <ele>388.160932</ele>
        <time>2025-09-13T07:05:54.672Z</time>
      </trkpt>
      <trkpt lat="45.59587" lon="4.67932">
        <ele>388.164919</ele>
        <time>2025-09-13T07:05:57.679Z</time>
      </trkpt>
      <trkpt lat="45.59585" lon="4.67946">
        <ele>388.168606</ele>
        <time>2025-09-13T07:06:00.668Z</time>
      </trkpt>
      <trkpt lat="45.59581" lon="4.6796">
        <ele>388.172499</ele>
        <time>2025-09-13T07:06:03.667Z</time>
      </trkpt>
      <trkpt lat="45.59576" lon="4.67974">
        <ele>388.17626</ele>
        <time>2025-09-13T07:06:06.685Z</time>
      </trkpt>
      <trkpt lat="45.59571" lon="4.67989">
        <ele>388.180557</ele>
        <time>2025-09-13T07:06:09.675Z</time>
      </trkpt>
      <trkpt lat="45.59564" lon="4.68003">
        <ele>388.18493</ele>
        <time>2025-09-13T07:06:12.678Z</time>
      </trkpt>
      <trkpt lat="45.59557" lon="4.68017">
        <ele>388.189263</ele>
        <time>2025-09-13T07:06:15.665Z</time>
      </trkpt>
      <trkpt lat="45.59551" lon="4.68028">
        <ele>388.294222</ele>
        <time>2025-09-13T07:06:17.706Z</time>
      </trkpt>
      <trkpt lat="45.59545" lon="4.6804">
        <ele>388.435399</ele>
        <time>2025-09-13T07:06:19.696Z</time>
      </trkpt>
      <trkpt lat="45.59541" lon="4.68052">
        <ele>388.560734</ele>
        <time>2025-09-13T07:06:21.691Z</time>
      </trkpt>
      <trkpt lat="45.59538" lon="4.68068">
        <ele>388.717252</ele>
        <time>2025-09-13T07:06:24.679Z</time>
      </trkpt>
      <trkpt lat="45.59536" lon="4.68083">
        <ele>388.866162</ele>
        <time>2025-09-13T07:06:27.678Z</time>
      </trkpt>
      <trkpt lat="45.59534" lon="4.681">
        <ele>389.026745</ele>
        <time>2025-09-13T07:06:30.661Z</time>
      </trkpt>
      <trkpt lat="45.59532" lon="4.68116">
        <ele>389.187966</ele>
        <time>2025-09-13T07:06:33.668Z</time>
      </trkpt>
      <trkpt lat="45.5953" lon="4.68133">
        <ele>389.34311</ele>
        <time>2025-09-13T07:06:36.669Z</time>
      </trkpt>
      <trkpt lat="45.59528" lon="4.68149">
        <ele>389.505389</ele>
        <time>2025-09-13T07:06:39.668Z</time>
      </trkpt>
      <trkpt lat="45.59527" lon="4.68167">
        <ele>389.670956</ele>
        <time>2025-09-13T07:06:42.667Z</time>
      </trkpt>
      <trkpt lat="45.59526" lon="4.68184">
        <ele>389.835435</ele>
        <time>2025-09-13T07:06:45.667Z</time>
      </trkpt>
      <trkpt lat="45.59524" lon="4.68201">
        <ele>389.999042</ele>
        <time>2025-09-13T07:06:48.672Z</time>
      </trkpt>
      <trkpt lat="45.59521" lon="4.68217">
        <ele>390.15556</ele>
        <time>2025-09-13T07:06:51.664Z</time>
      </trkpt>
      <trkpt lat="45.59516" lon="4.68234">
        <ele>390.336139</ele>
        <time>2025-09-13T07:06:54.689Z</time>
      </trkpt>
      <trkpt lat="45.59512" lon="4.68247">
        <ele>390.468113</ele>
        <time>2025-09-13T07:06:56.673Z</time>
      </trkpt>
      <trkpt lat="45.59507" lon="4.6826">
        <ele>390.605273</ele>
        <time>2025-09-13T07:06:58.685Z</time>
      </trkpt>
      <trkpt lat="45.59502" lon="4.68273">
        <ele>390.807622</ele>
        <time>2025-09-13T07:07:00.688Z</time>
      </trkpt>
      <trkpt lat="45.59497" lon="4.68286">
        <ele>391.003902</ele>
        <time>2025-09-13T07:07:02.684Z</time>
      </trkpt>
      <trkpt lat="45.59492" lon="4.68301">
        <ele>391.228611</ele>
        <time>2025-09-13T07:07:05.670Z</time>
      </trkpt>
      <trkpt lat="45.59483" lon="4.683">
        <ele>391.407654</ele>
        <time>2025-09-13T07:07:12.689Z</time>
      </trkpt>
      <trkpt lat="45.59476" lon="4.6829">
        <ele>391.591938</ele>
        <time>2025-09-13T07:07:16.679Z</time>
      </trkpt>
      <trkpt lat="45.59468" lon="4.68279">
        <ele>391.808379</ele>
        <time>2025-09-13T07:07:20.676Z</time>
      </trkpt>
      <trkpt lat="45.59462" lon="4.6827">
        <ele>391.983827</ele>
        <time>2025-09-13T07:07:23.673Z</time>
      </trkpt>
      <trkpt lat="45.59455" lon="4.6826">
        <ele>392.173838</ele>
        <time>2025-09-13T07:07:26.683Z</time>
      </trkpt>
      <trkpt lat="45.59449" lon="4.6825">
        <ele>392.35944</ele>
        <time>2025-09-13T07:07:29.674Z</time>
      </trkpt>
      <trkpt lat="45.59442" lon="4.6824">
        <ele>392.547361</ele>
        <time>2025-09-13T07:07:32.684Z</time>
      </trkpt>
      <trkpt lat="45.59435" lon="4.68229">
        <ele>392.749226</ele>
        <time>2025-09-13T07:07:35.675Z</time>
      </trkpt>
      <trkpt lat="45.59428" lon="4.68218">
        <ele>392.948416</ele>
        <time>2025-09-13T07:07:38.689Z</time>
      </trkpt>
      <trkpt lat="45.59421" lon="4.68207">
        <ele>393.148293</ele>
        <time>2025-09-13T07:07:41.685Z</time>
      </trkpt>
      <trkpt lat="45.59414" lon="4.68196">
        <ele>393.349479</ele>
        <time>2025-09-13T07:07:44.677Z</time>
      </trkpt>
      <trkpt lat="45.59407" lon="4.68185">
        <ele>393.553983</ele>
        <time>2025-09-13T07:07:47.654Z</time>
      </trkpt>
      <trkpt lat="45.59399" lon="4.68175">
        <ele>393.758974</ele>
        <time>2025-09-13T07:07:50.676Z</time>
      </trkpt>
      <trkpt lat="45.59392" lon="4.68163">
        <ele>393.96811</ele>
        <time>2025-09-13T07:07:53.675Z</time>
      </trkpt>
      <trkpt lat="45.59385" lon="4.68152">
        <ele>394.165654</ele>
        <time>2025-09-13T07:07:56.685Z</time>
      </trkpt>
      <trkpt lat="45.59378" lon="4.68141">
        <ele>394.342587</ele>
        <time>2025-09-13T07:07:59.664Z</time>
      </trkpt>
      <trkpt lat="45.59371" lon="4.68129">
        <ele>394.524717</ele>
        <time>2025-09-13T07:08:02.673Z</time>
      </trkpt>
      <trkpt lat="45.59363" lon="4.68117">
        <ele>394.709029</ele>
        <time>2025-09-13T07:08:05.677Z</time>
      </trkpt>
      <trkpt lat="45.59356" lon="4.68106">
        <ele>394.888127</ele>
        <time>2025-09-13T07:08:08.691Z</time>
      </trkpt>
      <trkpt lat="45.5935" lon="4.68095">
        <ele>395.055007</ele>
        <time>2025-09-13T07:08:11.667Z</time>
      </trkpt>
      <trkpt lat="45.59343" lon="4.68084">
        <ele>395.219576</ele>
        <time>2025-09-13T07:08:14.685Z</time>
      </trkpt>
      <trkpt lat="45.59337" lon="4.68072">
        <ele>395.384724</ele>
        <time>2025-09-13T07:08:17.678Z</time>
      </trkpt>
      <trkpt lat="45.59331" lon="4.68061">
        <ele>395.550731</ele>
        <time>2025-09-13T07:08:20.678Z</time>
      </trkpt>
      <trkpt lat="45.59324" lon="4.68051">
        <ele>395.713544</ele>
        <time>2025-09-13T07:08:23.672Z</time>
      </trkpt>
      <trkpt lat="45.59317" lon="4.68041">
        <ele>395.880111</ele>
        <time>2025-09-13T07:08:26.679Z</time>
      </trkpt>
      <trkpt lat="45.59309" lon="4.68031">
        <ele>396.050707</ele>
        <time>2025-09-13T07:08:29.671Z</time>
      </trkpt>
      <trkpt lat="45.59301" lon="4.68021">
        <ele>396.225796</ele>
        <time>2025-09-13T07:08:32.681Z</time>
      </trkpt>
      <trkpt lat="45.59294" lon="4.68012">
        <ele>396.392094</ele>
        <time>2025-09-13T07:08:35.671Z</time>
      </trkpt>
      <trkpt lat="45.59286" lon="4.68002">
        <ele>396.556217</ele>
        <time>2025-09-13T07:08:38.679Z</time>
      </trkpt>
      <trkpt lat="45.5928" lon="4.67993">
        <ele>396.706454</ele>
        <time>2025-09-13T07:08:41.675Z</time>
      </trkpt>
      <trkpt lat="45.59271" lon="4.67983">
        <ele>396.8936</ele>
        <time>2025-09-13T07:08:45.684Z</time>
      </trkpt>
      <trkpt lat="45.59263" lon="4.67972">
        <ele>397.080473</ele>
        <time>2025-09-13T07:08:49.663Z</time>
      </trkpt>
      <trkpt lat="45.59255" lon="4.67961">
        <ele>397.225456</ele>
        <time>2025-09-13T07:08:53.659Z</time>
      </trkpt>
      <trkpt lat="45.59248" lon="4.6795">
        <ele>397.359278</ele>
        <time>2025-09-13T07:08:57.676Z</time>
      </trkpt>
      <trkpt lat="45.59242" lon="4.67938">
        <ele>397.495135</ele>
        <time>2025-09-13T07:09:01.678Z</time>
      </trkpt>
      <trkpt lat="45.59235" lon="4.67926">
        <ele>397.638438</ele>
        <time>2025-09-13T07:09:05.674Z</time>
      </trkpt>
      <trkpt lat="45.59229" lon="4.67914">
        <ele>397.768385</ele>
        <time>2025-09-13T07:09:09.675Z</time>
      </trkpt>
      <trkpt lat="45.59224" lon="4.67901">
        <ele>397.899922</ele>
        <time>2025-09-13T07:09:13.666Z</time>
      </trkpt>
      <trkpt lat="45.59219" lon="4.67889">
        <ele>398.036763</ele>
        <time>2025-09-13T07:09:17.666Z</time>
      </trkpt>
      <trkpt lat="45.59213" lon="4.67875">
        <ele>398.175154</ele>
        <time>2025-09-13T07:09:21.670Z</time>
      </trkpt>
      <trkpt lat="45.59207" lon="4.67862">
        <ele>398.314127</ele>
        <time>2025-09-13T07:09:25.665Z</time>
      </trkpt>
      <trkpt lat="45.59202" lon="4.67849">
        <ele>398.454856</ele>
        <time>2025-09-13T07:09:29.670Z</time>
      </trkpt>
      <trkpt lat="45.59196" lon="4.67838">
        <ele>398.574364</ele>
        <time>2025-09-13T07:09:32.669Z</time>
      </trkpt>
      <trkpt lat="45.59191" lon="4.67828">
        <ele>398.693119</ele>
        <time>2025-09-13T07:09:35.688Z</time>
      </trkpt>
      <trkpt lat="45.59186" lon="4.67817">
        <ele>398.809786</ele>
        <time>2025-09-13T07:09:38.667Z</time>
      </trkpt>
      <trkpt lat="45.5918" lon="4.67803">
        <ele>398.964931</ele>
        <time>2025-09-13T07:09:42.675Z</time>
      </trkpt>
      <trkpt lat="45.59174" lon="4.67791">
        <ele>399.088889</ele>
        <time>2025-09-13T07:09:45.678Z</time>
      </trkpt>
      <trkpt lat="45.59169" lon="4.6778">
        <ele>399.206198</ele>
        <time>2025-09-13T07:09:48.693Z</time>
      </trkpt>
      <trkpt lat="45.59164" lon="4.67769">
        <ele>399.328847</ele>
        <time>2025-09-13T07:09:51.666Z</time>
      </trkpt>
      <trkpt lat="45.59159" lon="4.67756">
        <ele>399.460592</ele>
        <time>2025-09-13T07:09:54.675Z</time>
      </trkpt>
      <trkpt lat="45.59153" lon="4.67743">
        <ele>399.599027</ele>
        <time>2025-09-13T07:09:57.664Z</time>
      </trkpt>
      <trkpt lat="45.59148" lon="4.6773">
        <ele>399.731427</ele>
        <time>2025-09-13T07:10:00.679Z</time>
      </trkpt>
      <trkpt lat="45.59144" lon="4.67719">
        <ele>399.847659</ele>
        <time>2025-09-13T07:10:03.671Z</time>
      </trkpt>
      <trkpt lat="45.59139" lon="4.67706">
        <ele>399.974548</ele>
        <time>2025-09-13T07:10:06.675Z</time>
      </trkpt>
      <trkpt lat="45.59134" lon="4.67693">
        <ele>400.102953</ele>
        <time>2025-09-13T07:10:09.666Z</time>
      </trkpt>
      <trkpt lat="45.59129" lon="4.67681">
        <ele>400.228728</ele>
        <time>2025-09-13T07:10:12.677Z</time>
      </trkpt>
      <trkpt lat="45.59124" lon="4.67668">
        <ele>400.358199</ele>
        <time>2025-09-13T07:10:15.665Z</time>
      </trkpt>
      <trkpt lat="45.5912" lon="4.67656">
        <ele>400.47877</ele>
        <time>2025-09-13T07:10:18.708Z</time>
      </trkpt>
      <trkpt lat="45.59116" lon="4.67643">
        <ele>400.600304</ele>
        <time>2025-09-13T07:10:21.662Z</time>
      </trkpt>
      <trkpt lat="45.59112" lon="4.67631">
        <ele>400.716492</ele>
        <time>2025-09-13T07:10:24.673Z</time>
      </trkpt>
      <trkpt lat="45.59108" lon="4.67619">
        <ele>400.833249</ele>
        <time>2025-09-13T07:10:27.665Z</time>
      </trkpt>
      <trkpt lat="45.59103" lon="4.67603">
        <ele>400.988488</ele>
        <time>2025-09-13T07:10:30.670Z</time>
      </trkpt>
      <trkpt lat="45.59098" lon="4.67589">
        <ele>401.133007</ele>
        <time>2025-09-13T07:10:33.672Z</time>
      </trkpt>
      <trkpt lat="45.59094" lon="4.67575">
        <ele>401.261221</ele>
        <time>2025-09-13T07:10:36.672Z</time>
      </trkpt>
      <trkpt lat="45.5909" lon="4.67563">
        <ele>401.379642</ele>
        <time>2025-09-13T07:10:39.679Z</time>
      </trkpt>
      <trkpt lat="45.59084" lon="4.67549">
        <ele>401.527319</ele>
        <time>2025-09-13T07:10:43.673Z</time>
      </trkpt>
      <trkpt lat="45.59078" lon="4.67534">
        <ele>401.677646</ele>
        <time>2025-09-13T07:10:47.668Z</time>
      </trkpt>
      <trkpt lat="45.59073" lon="4.67519">
        <ele>401.865039</ele>
        <time>2025-09-13T07:10:51.666Z</time>
      </trkpt>
      <trkpt lat="45.59067" lon="4.67504">
        <ele>402.064171</ele>
        <time>2025-09-13T07:10:55.656Z</time>
      </trkpt>
      <trkpt lat="45.59062" lon="4.67493">
        <ele>402.217698</ele>
        <time>2025-09-13T07:10:58.678Z</time>
      </trkpt>
      <trkpt lat="45.59058" lon="4.67481">
        <ele>402.373625</ele>
        <time>2025-09-13T07:11:01.666Z</time>
      </trkpt>
      <trkpt lat="45.59053" lon="4.67469">
        <ele>402.531602</ele>
        <time>2025-09-13T07:11:04.666Z</time>
      </trkpt>
      <trkpt lat="45.59049" lon="4.67457">
        <ele>402.690608</ele>
        <time>2025-09-13T07:11:07.663Z</time>
      </trkpt>
      <trkpt lat="45.59044" lon="4.67446">
        <ele>402.84599</ele>
        <time>2025-09-13T07:11:10.670Z</time>
      </trkpt>
      <trkpt lat="45.5904" lon="4.67433">
        <ele>403.006027</ele>
        <time>2025-09-13T07:11:13.664Z</time>
      </trkpt>
      <trkpt lat="45.59036" lon="4.67421">
        <ele>403.163484</ele>
        <time>2025-09-13T07:11:16.662Z</time>
      </trkpt>
      <trkpt lat="45.59031" lon="4.67409">
        <ele>403.326161</ele>
        <time>2025-09-13T07:11:19.668Z</time>
      </trkpt>
      <trkpt lat="45.59027" lon="4.67397">
        <ele>403.479475</ele>
        <time>2025-09-13T07:11:22.673Z</time>
      </trkpt>
      <trkpt lat="45.59023" lon="4.67386">
        <ele>403.629702</ele>
        <time>2025-09-13T07:11:25.687Z</time>
      </trkpt>
      <trkpt lat="45.59018" lon="4.67372">
        <ele>403.812758</ele>
        <time>2025-09-13T07:11:29.681Z</time>
      </trkpt>
      <trkpt lat="45.59014" lon="4.67358">
        <ele>403.986389</ele>
        <time>2025-09-13T07:11:33.682Z</time>
      </trkpt>
      <trkpt lat="45.59009" lon="4.67345">
        <ele>404.162205</ele>
        <time>2025-09-13T07:11:37.679Z</time>
      </trkpt>
      <trkpt lat="45.59005" lon="4.6733">
        <ele>404.3496</ele>
        <time>2025-09-13T07:11:41.683Z</time>
      </trkpt>
      <trkpt lat="45.59" lon="4.67314">
        <ele>404.549702</ele>
        <time>2025-09-13T07:11:45.682Z</time>
      </trkpt>
      <trkpt lat="45.58997" lon="4.67302">
        <ele>404.701989</ele>
        <time>2025-09-13T07:11:48.665Z</time>
      </trkpt>
      <trkpt lat="45.58993" lon="4.6729">
        <ele>404.738981</ele>
        <time>2025-09-13T07:11:51.658Z</time>
      </trkpt>
      <trkpt lat="45.58989" lon="4.67277">
        <ele>404.769652</ele>
        <time>2025-09-13T07:11:54.666Z</time>
      </trkpt>
      <trkpt lat="45.58985" lon="4.67263">
        <ele>404.801417</ele>
        <time>2025-09-13T07:11:57.709Z</time>
      </trkpt>
      <trkpt lat="45.5898" lon="4.6725">
        <ele>404.833639</ele>
        <time>2025-09-13T07:12:00.670Z</time>
      </trkpt>
      <trkpt lat="45.58976" lon="4.67236">
        <ele>404.866851</ele>
        <time>2025-09-13T07:12:03.684Z</time>
      </trkpt>
      <trkpt lat="45.58972" lon="4.67222">
        <ele>404.900558</ele>
        <time>2025-09-13T07:12:06.682Z</time>
      </trkpt>
      <trkpt lat="45.58968" lon="4.67208">
        <ele>404.932323</ele>
        <time>2025-09-13T07:12:09.673Z</time>
      </trkpt>
      <trkpt lat="45.58965" lon="4.67194">
        <ele>404.963971</ele>
        <time>2025-09-13T07:12:12.681Z</time>
      </trkpt>
      <trkpt lat="45.58961" lon="4.67182">
        <ele>404.993718</ele>
        <time>2025-09-13T07:12:15.686Z</time>
      </trkpt>
      <trkpt lat="45.58952" lon="4.67173">
        <ele>405.029815</ele>
        <time>2025-09-13T07:12:19.708Z</time>
      </trkpt>
      <trkpt lat="45.58942" lon="4.67173">
        <ele>405.060614</ele>
        <time>2025-09-13T07:12:23.683Z</time>
      </trkpt>
      <trkpt lat="45.58917" lon="4.67172">
        <ele>405.136223</ele>
        <time>2025-09-13T07:13:11.666Z</time>
      </trkpt>
      <trkpt lat="45.58907" lon="4.6717">
        <ele>405.168122</ele>
        <time>2025-09-13T07:13:14.656Z</time>
      </trkpt>
      <trkpt lat="45.58898" lon="4.67166">
        <ele>405.199528</ele>
        <time>2025-09-13T07:13:17.661Z</time>
      </trkpt>
      <trkpt lat="45.58887" lon="4.67161">
        <ele>405.233679</ele>
        <time>2025-09-13T07:13:20.655Z</time>
      </trkpt>
      <trkpt lat="45.58877" lon="4.67154">
        <ele>405.269137</ele>
        <time>2025-09-13T07:13:23.668Z</time>
      </trkpt>
      <trkpt lat="45.58866" lon="4.67147">
        <ele>405.048436</ele>
        <time>2025-09-13T07:13:26.672Z</time>
      </trkpt>
      <trkpt lat="45.58854" lon="4.6714">
        <ele>404.815587</ele>
        <time>2025-09-13T07:13:29.665Z</time>
      </trkpt>
      <trkpt lat="45.58844" lon="4.67133">
        <ele>404.597721</ele>
        <time>2025-09-13T07:13:32.661Z</time>
      </trkpt>
      <trkpt lat="45.58834" lon="4.67126">
        <ele>404.392726</ele>
        <time>2025-09-13T07:13:35.661Z</time>
      </trkpt>
      <trkpt lat="45.58824" lon="4.6712">
        <ele>404.18986</ele>
        <time>2025-09-13T07:13:38.663Z</time>
      </trkpt>
      <trkpt lat="45.58813" lon="4.67114">
        <ele>403.979783</ele>
        <time>2025-09-13T07:13:41.670Z</time>
      </trkpt>
      <trkpt lat="45.58802" lon="4.67106">
        <ele>403.754069</ele>
        <time>2025-09-13T07:13:44.686Z</time>
      </trkpt>
      <trkpt lat="45.58794" lon="4.67101">
        <ele>403.584931</ele>
        <time>2025-09-13T07:13:46.671Z</time>
      </trkpt>
      <trkpt lat="45.58786" lon="4.67094">
        <ele>403.406126</ele>
        <time>2025-09-13T07:13:48.684Z</time>
      </trkpt>
      <trkpt lat="45.58776" lon="4.67088">
        <ele>403.212903</ele>
        <time>2025-09-13T07:13:50.667Z</time>
      </trkpt>
      <trkpt lat="45.58767" lon="4.67081">
        <ele>403.013497</ele>
        <time>2025-09-13T07:13:52.665Z</time>
      </trkpt>
      <trkpt lat="45.58757" lon="4.67075">
        <ele>402.816898</ele>
        <time>2025-09-13T07:13:54.672Z</time>
      </trkpt>
      <trkpt lat="45.58748" lon="4.67069">
        <ele>402.632506</ele>
        <time>2025-09-13T07:13:56.669Z</time>
      </trkpt>
      <trkpt lat="45.58739" lon="4.67064">
        <ele>402.455284</ele>
        <time>2025-09-13T07:13:58.658Z</time>
      </trkpt>
      <trkpt lat="45.58731" lon="4.67058">
        <ele>402.282633</ele>
        <time>2025-09-13T07:14:00.664Z</time>
      </trkpt>
      <trkpt lat="45.58722" lon="4.67053">
        <ele>402.110557</ele>
        <time>2025-09-13T07:14:02.673Z</time>
      </trkpt>
      <trkpt lat="45.58714" lon="4.67046">
        <ele>401.931524</ele>
        <time>2025-09-13T07:14:04.664Z</time>
      </trkpt>
      <trkpt lat="45.58703" lon="4.67035">
        <ele>401.777101</ele>
        <time>2025-09-13T07:14:07.685Z</time>
      </trkpt>
      <trkpt lat="45.58692" lon="4.67025">
        <ele>401.628544</ele>
        <time>2025-09-13T07:14:10.660Z</time>
      </trkpt>
      <trkpt lat="45.58683" lon="4.67014">
        <ele>401.493728</ele>
        <time>2025-09-13T07:14:13.663Z</time>
      </trkpt>
      <trkpt lat="45.58672" lon="4.67005">
        <ele>401.354335</ele>
        <time>2025-09-13T07:14:16.656Z</time>
      </trkpt>
      <trkpt lat="45.58661" lon="4.66999">
        <ele>401.219111</ele>
        <time>2025-09-13T07:14:19.674Z</time>
      </trkpt>
      <trkpt lat="45.58649" lon="4.66995">
        <ele>401.082364</ele>
        <time>2025-09-13T07:14:22.669Z</time>
      </trkpt>
      <trkpt lat="45.58638" lon="4.66994">
        <ele>400.956158</ele>
        <time>2025-09-13T07:14:25.700Z</time>
      </trkpt>
      <trkpt lat="45.58627" lon="4.66993">
        <ele>400.82934</ele>
        <time>2025-09-13T07:14:28.679Z</time>
      </trkpt>
      <trkpt lat="45.58615" lon="4.66993">
        <ele>400.699309</ele>
        <time>2025-09-13T07:14:31.674Z</time>
      </trkpt>
      <trkpt lat="45.58604" lon="4.66992">
        <ele>400.574749</ele>
        <time>2025-09-13T07:14:34.662Z</time>
      </trkpt>
      <trkpt lat="45.58594" lon="4.66992">
        <ele>400.461653</ele>
        <time>2025-09-13T07:14:37.683Z</time>
      </trkpt>
      <trkpt lat="45.58585" lon="4.66995">
        <ele>400.35215</ele>
        <time>2025-09-13T07:14:41.675Z</time>
      </trkpt>
      <trkpt lat="45.58577" lon="4.67005">
        <ele>400.229911</ele>
        <time>2025-09-13T07:14:45.686Z</time>
      </trkpt>
      <trkpt lat="45.5857" lon="4.67016">
        <ele>400.115724</ele>
        <time>2025-09-13T07:14:48.663Z</time>
      </trkpt>
      <trkpt lat="45.58563" lon="4.67025">
        <ele>400.006012</ele>
        <time>2025-09-13T07:14:51.668Z</time>
      </trkpt>
      <trkpt lat="45.58554" lon="4.67025">
        <ele>399.900874</ele>
        <time>2025-09-13T07:14:54.674Z</time>
      </trkpt>
      <trkpt lat="45.58543" lon="4.6702">
        <ele>399.793917</ele>
        <time>2025-09-13T07:14:57.675Z</time>
      </trkpt>
      <trkpt lat="45.58531" lon="4.67016">
        <ele>399.674393</ele>
        <time>2025-09-13T07:15:00.660Z</time>
      </trkpt>
      <trkpt lat="45.5852" lon="4.67009">
        <ele>399.559604</ele>
        <time>2025-09-13T07:15:03.660Z</time>
      </trkpt>
      <trkpt lat="45.58509" lon="4.67002">
        <ele>399.447771</ele>
        <time>2025-09-13T07:15:06.684Z</time>
      </trkpt>
      <trkpt lat="45.58499" lon="4.66997">
        <ele>399.346986</ele>
        <time>2025-09-13T07:15:09.672Z</time>
      </trkpt>
      <trkpt lat="45.58489" lon="4.66993">
        <ele>399.248084</ele>
        <time>2025-09-13T07:15:12.657Z</time>
      </trkpt>
      <trkpt lat="45.5848" lon="4.66989">
        <ele>399.151113</ele>
        <time>2025-09-13T07:15:15.673Z</time>
      </trkpt>
      <trkpt lat="45.58471" lon="4.66984">
        <ele>399.059113</ele>
        <time>2025-09-13T07:15:18.670Z</time>
      </trkpt>
      <trkpt lat="45.58461" lon="4.6698">
        <ele>398.961319</ele>
        <time>2025-09-13T07:15:21.685Z</time>
      </trkpt>
      <trkpt lat="45.58451" lon="4.66976">
        <ele>398.860368</ele>
        <time>2025-09-13T07:15:24.668Z</time>
      </trkpt>
      <trkpt lat="45.5844" lon="4.66972">
        <ele>398.755392</ele>
        <time>2025-09-13T07:15:27.656Z</time>
      </trkpt>
      <trkpt lat="45.5843" lon="4.6697">
        <ele>398.660875</ele>
        <time>2025-09-13T07:15:30.666Z</time>
      </trkpt>
      <trkpt lat="45.58421" lon="4.66968">
        <ele>398.568812</ele>
        <time>2025-09-13T07:15:33.661Z</time>
      </trkpt>
      <trkpt lat="45.58411" lon="4.66966">
        <ele>398.475803</ele>
        <time>2025-09-13T07:15:36.660Z</time>
      </trkpt>
      <trkpt lat="45.58402" lon="4.66964">
        <ele>398.384339</ele>
        <time>2025-09-13T07:15:39.656Z</time>
      </trkpt>
      <trkpt lat="45.58393" lon="4.6696">
        <ele>398.290727</ele>
        <time>2025-09-13T07:15:43.667Z</time>
      </trkpt>
      <trkpt lat="45.58383" lon="4.66952">
        <ele>398.190118</ele>
        <time>2025-09-13T07:15:47.663Z</time>
      </trkpt>
      <trkpt lat="45.58375" lon="4.66947">
        <ele>397.232737</ele>
        <time>2025-09-13T07:15:50.678Z</time>
      </trkpt>
      <trkpt lat="45.58365" lon="4.66944">
        <ele>395.845175</ele>
        <time>2025-09-13T07:15:53.663Z</time>
      </trkpt>
      <trkpt lat="45.58354" lon="4.66941">
        <ele>394.273732</ele>
        <time>2025-09-13T07:15:56.675Z</time>
      </trkpt>
      <trkpt lat="45.58343" lon="4.66939">
        <ele>392.623852</ele>
        <time>2025-09-13T07:16:00.672Z</time>
      </trkpt>
      <trkpt lat="45.58333" lon="4.66936">
        <ele>391.177472</ele>
        <time>2025-09-13T07:16:03.671Z</time>
      </trkpt>
      <trkpt lat="45.58321" lon="4.66931">
        <ele>389.534752</ele>
        <time>2025-09-13T07:16:06.668Z</time>
      </trkpt>
      <trkpt lat="45.58311" lon="4.66926">
        <ele>387.996396</ele>
        <time>2025-09-13T07:16:09.676Z</time>
      </trkpt>
      <trkpt lat="45.58302" lon="4.66922">
        <ele>386.656356</ele>
        <time>2025-09-13T07:16:11.668Z</time>
      </trkpt>
      <trkpt lat="45.58292" lon="4.66918">
        <ele>385.204504</ele>
        <time>2025-09-13T07:16:13.666Z</time>
      </trkpt>
      <trkpt lat="45.58281" lon="4.66911">
        <ele>383.516955</ele>
        <time>2025-09-13T07:16:16.680Z</time>
      </trkpt>
      <trkpt lat="45.58271" lon="4.66901">
        <ele>381.907147</ele>
        <time>2025-09-13T07:16:19.674Z</time>
      </trkpt>
      <trkpt lat="45.58263" lon="4.66893">
        <ele>380.4904</ele>
        <time>2025-09-13T07:16:22.671Z</time>
      </trkpt>
      <trkpt lat="45.58255" lon="4.66885">
        <ele>379.089776</ele>
        <time>2025-09-13T07:16:25.683Z</time>
      </trkpt>
      <trkpt lat="45.58248" lon="4.66876">
        <ele>377.787191</ele>
        <time>2025-09-13T07:16:28.658Z</time>
      </trkpt>
      <trkpt lat="45.5824" lon="4.66868">
        <ele>376.432383</ele>
        <time>2025-09-13T07:16:31.659Z</time>
      </trkpt>
      <trkpt lat="45.5823" lon="4.66858">
        <ele>374.77684</ele>
        <time>2025-09-13T07:16:35.667Z</time>
      </trkpt>
      <trkpt lat="45.58222" lon="4.6685">
        <ele>373.383257</ele>
        <time>2025-09-13T07:16:39.667Z</time>
      </trkpt>
      <trkpt lat="45.58212" lon="4.66844">
        <ele>372.300392</ele>
        <time>2025-09-13T07:16:43.670Z</time>
      </trkpt>
      <trkpt lat="45.582" lon="4.66845">
        <ele>371.279527</ele>
        <time>2025-09-13T07:16:46.683Z</time>
      </trkpt>
      <trkpt lat="45.5819" lon="4.66848">
        <ele>370.405254</ele>
        <time>2025-09-13T07:16:49.674Z</time>
      </trkpt>
      <trkpt lat="45.58173" lon="4.66848">
        <ele>369.031052</ele>
        <time>2025-09-13T07:17:52.688Z</time>
      </trkpt>
      <trkpt lat="45.58164" lon="4.66851">
        <ele>368.224123</ele>
        <time>2025-09-13T07:18:00.658Z</time>
      </trkpt>
      <trkpt lat="45.58152" lon="4.66859">
        <ele>367.135982</ele>
        <time>2025-09-13T07:18:08.677Z</time>
      </trkpt>
      <trkpt lat="45.58143" lon="4.66868">
        <ele>366.237435</ele>
        <time>2025-09-13T07:18:11.674Z</time>
      </trkpt>
      <trkpt lat="45.58133" lon="4.66867">
        <ele>365.343125</ele>
        <time>2025-09-13T07:18:13.663Z</time>
      </trkpt>
      <trkpt lat="45.58121" lon="4.66861">
        <ele>364.28154</ele>
        <time>2025-09-13T07:18:16.673Z</time>
      </trkpt>
      <trkpt lat="45.58109" lon="4.66858">
        <ele>363.272444</ele>
        <time>2025-09-13T07:18:19.655Z</time>
      </trkpt>
      <trkpt lat="45.58102" lon="4.66866">
        <ele>362.507618</ele>
        <time>2025-09-13T07:18:31.675Z</time>
      </trkpt>
      <trkpt lat="45.58093" lon="4.66849">
        <ele>361.287584</ele>
        <time>2025-09-13T07:21:18.672Z</time>
      </trkpt>
      <trkpt lat="45.58086" lon="4.66836">
        <ele>360.277294</ele>
        <time>2025-09-13T07:21:31.671Z</time>
      </trkpt>
      <trkpt lat="45.58082" lon="4.66821">
        <ele>359.377497</ele>
        <time>2025-09-13T07:21:35.665Z</time>
      </trkpt>
      <trkpt lat="45.58077" lon="4.6681">
        <ele>358.592759</ele>
        <time>2025-09-13T07:21:40.666Z</time>
      </trkpt>
      <trkpt lat="45.58073" lon="4.66797">
        <ele>357.969806</ele>
        <time>2025-09-13T07:21:47.684Z</time>
      </trkpt>
      <trkpt lat="45.58068" lon="4.66785">
        <ele>358.735769</ele>
        <time>2025-09-13T07:21:52.671Z</time>
      </trkpt>
      <trkpt lat="45.58061" lon="4.66776">
        <ele>359.493269</ele>
        <time>2025-09-13T07:21:58.665Z</time>
      </trkpt>
      <trkpt lat="45.58055" lon="4.66766">
        <ele>360.241679</ele>
        <time>2025-09-13T07:22:07.688Z</time>
      </trkpt>
      <trkpt lat="45.58046" lon="4.66759">
        <ele>361.099091</ele>
        <time>2025-09-13T07:22:25.665Z</time>
      </trkpt>
      <trkpt lat="45.58039" lon="4.6675">
        <ele>361.836018</ele>
        <time>2025-09-13T07:22:30.666Z</time>
      </trkpt>
      <trkpt lat="45.5803" lon="4.66742">
        <ele>362.659323</ele>
        <time>2025-09-13T07:22:36.658Z</time>
      </trkpt>
      <trkpt lat="45.58023" lon="4.66734">
        <ele>363.433081</ele>
        <time>2025-09-13T07:22:41.658Z</time>
      </trkpt>
      <trkpt lat="45.58015" lon="4.66727">
        <ele>364.176185</ele>
        <time>2025-09-13T07:22:48.678Z</time>
      </trkpt>
      <trkpt lat="45.58006" lon="4.66719">
        <ele>365.026697</ele>
        <time>2025-09-13T07:22:59.663Z</time>
      </trkpt>
      <trkpt lat="45.57998" lon="4.66711">
        <ele>365.836962</ele>
        <time>2025-09-13T07:23:05.671Z</time>
      </trkpt>
      <trkpt lat="45.5799" lon="4.66702">
        <ele>366.630451</ele>
        <time>2025-09-13T07:23:12.693Z</time>
      </trkpt>
      <trkpt lat="45.57985" lon="4.6669">
        <ele>367.446814</ele>
        <time>2025-09-13T07:23:19.659Z</time>
      </trkpt>
      <trkpt lat="45.57978" lon="4.66679">
        <ele>368.271375</ele>
        <time>2025-09-13T07:23:26.699Z</time>
      </trkpt>
      <trkpt lat="45.57971" lon="4.66668">
        <ele>369.10225</ele>
        <time>2025-09-13T07:23:33.671Z</time>
      </trkpt>
      <trkpt lat="45.57964" lon="4.66656">
        <ele>369.990822</ele>
        <time>2025-09-13T07:23:39.679Z</time>
      </trkpt>
      <trkpt lat="45.57958" lon="4.66645">
        <ele>370.779586</ele>
        <time>2025-09-13T07:23:43.678Z</time>
      </trkpt>
      <trkpt lat="45.57953" lon="4.66631">
        <ele>371.644937</ele>
        <time>2025-09-13T07:23:47.677Z</time>
      </trkpt>
      <trkpt lat="45.57951" lon="4.66618">
        <ele>372.402128</ele>
        <time>2025-09-13T07:23:52.674Z</time>
      </trkpt>
      <trkpt lat="45.57952" lon="4.66606">
        <ele>373.139517</ele>
        <time>2025-09-13T07:23:57.658Z</time>
      </trkpt>
      <trkpt lat="45.57954" lon="4.66592">
        <ele>373.915374</ele>
        <time>2025-09-13T07:24:24.696Z</time>
      </trkpt>
      <trkpt lat="45.57957" lon="4.66578">
        <ele>374.732775</ele>
        <time>2025-09-13T07:24:32.658Z</time>
      </trkpt>
      <trkpt lat="45.57958" lon="4.66565">
        <ele>375.509508</ele>
        <time>2025-09-13T07:24:49.658Z</time>
      </trkpt>
      <trkpt lat="45.57959" lon="4.66551">
        <ele>376.262758</ele>
        <time>2025-09-13T07:25:01.660Z</time>
      </trkpt>
      <trkpt lat="45.57955" lon="4.66539">
        <ele>377.000601</ele>
        <time>2025-09-13T07:25:17.658Z</time>
      </trkpt>
      <trkpt lat="45.57946" lon="4.66523">
        <ele>378.225945</ele>
        <time>2025-09-13T07:26:10.667Z</time>
      </trkpt>
      <trkpt lat="45.57938" lon="4.66511">
        <ele>379.151217</ele>
        <time>2025-09-13T07:26:14.670Z</time>
      </trkpt>
      <trkpt lat="45.57931" lon="4.66499">
        <ele>380.005529</ele>
        <time>2025-09-13T07:26:18.675Z</time>
      </trkpt>
      <trkpt lat="45.57925" lon="4.66488">
        <ele>380.806542</ele>
        <time>2025-09-13T07:26:22.677Z</time>
      </trkpt>
      <trkpt lat="45.57919" lon="4.66478">
        <ele>381.577384</ele>
        <time>2025-09-13T07:26:26.670Z</time>
      </trkpt>
      <trkpt lat="45.57912" lon="4.66465">
        <ele>382.465551</ele>
        <time>2025-09-13T07:26:31.684Z</time>
      </trkpt>
      <trkpt lat="45.57906" lon="4.66455">
        <ele>383.230095</ele>
        <time>2025-09-13T07:26:35.680Z</time>
      </trkpt>
      <trkpt lat="45.57899" lon="4.66446">
        <ele>384.001951</ele>
        <time>2025-09-13T07:26:39.653Z</time>
      </trkpt>
      <trkpt lat="45.57895" lon="4.66432">
        <ele>384.857913</ele>
        <time>2025-09-13T07:26:44.684Z</time>
      </trkpt>
      <trkpt lat="45.5789" lon="4.66421">
        <ele>385.602751</ele>
        <time>2025-09-13T07:26:47.671Z</time>
      </trkpt>
      <trkpt lat="45.57885" lon="4.66405">
        <ele>386.563021</ele>
        <time>2025-09-13T07:26:50.681Z</time>
      </trkpt>
      <trkpt lat="45.57879" lon="4.66393">
        <ele>387.20947</ele>
        <time>2025-09-13T07:26:53.672Z</time>
      </trkpt>
      <trkpt lat="45.57874" lon="4.66382">
        <ele>387.608746</ele>
        <time>2025-09-13T07:26:56.677Z</time>
      </trkpt>
      <trkpt lat="45.57869" lon="4.66371">
        <ele>388.008532</ele>
        <time>2025-09-13T07:26:59.679Z</time>
      </trkpt>
      <trkpt lat="45.57865" lon="4.66359">
        <ele>388.412076</ele>
        <time>2025-09-13T07:27:02.710Z</time>
      </trkpt>
      <trkpt lat="45.57862" lon="4.66346">
        <ele>388.810042</ele>
        <time>2025-09-13T07:27:05.662Z</time>
      </trkpt>
      <trkpt lat="45.57858" lon="4.66333">
        <ele>389.233213</ele>
        <time>2025-09-13T07:27:08.688Z</time>
      </trkpt>
      <trkpt lat="45.57855" lon="4.66321">
        <ele>389.643261</ele>
        <time>2025-09-13T07:27:11.674Z</time>
      </trkpt>
      <trkpt lat="45.57851" lon="4.66308">
        <ele>390.059645</ele>
        <time>2025-09-13T07:27:14.680Z</time>
      </trkpt>
      <trkpt lat="45.57848" lon="4.66295">
        <ele>390.489733</ele>
        <time>2025-09-13T07:27:17.679Z</time>
      </trkpt>
      <trkpt lat="45.57844" lon="4.66282">
        <ele>390.91416</ele>
        <time>2025-09-13T07:27:20.674Z</time>
      </trkpt>
      <trkpt lat="45.57841" lon="4.66266">
        <ele>391.398503</ele>
        <time>2025-09-13T07:27:24.679Z</time>
      </trkpt>
      <trkpt lat="45.57835" lon="4.66253">
        <ele>391.86019</ele>
        <time>2025-09-13T07:27:29.670Z</time>
      </trkpt>
      <trkpt lat="45.5783" lon="4.6624">
        <ele>392.30338</ele>
        <time>2025-09-13T07:27:33.678Z</time>
      </trkpt>
      <trkpt lat="45.57825" lon="4.66225">
        <ele>392.808146</ele>
        <time>2025-09-13T07:27:36.666Z</time>
      </trkpt>
      <trkpt lat="45.57822" lon="4.66213">
        <ele>393.210044</ele>
        <time>2025-09-13T07:27:39.671Z</time>
      </trkpt>
      <trkpt lat="45.57821" lon="4.66197">
        <ele>393.682734</ele>
        <time>2025-09-13T07:27:44.665Z</time>
      </trkpt>
      <trkpt lat="45.5782" lon="4.66184">
        <ele>394.089216</ele>
        <time>2025-09-13T07:27:53.657Z</time>
      </trkpt>
      <trkpt lat="45.57817" lon="4.6617">
        <ele>394.523623</ele>
        <time>2025-09-13T07:27:57.656Z</time>
      </trkpt>
      <trkpt lat="45.57815" lon="4.66158">
        <ele>394.814823</ele>
        <time>2025-09-13T07:28:00.658Z</time>
      </trkpt>
      <trkpt lat="45.57812" lon="4.66145">
        <ele>394.963332</ele>
        <time>2025-09-13T07:28:03.669Z</time>
      </trkpt>
      <trkpt lat="45.5781" lon="4.6613">
        <ele>395.145471</ele>
        <time>2025-09-13T07:28:07.671Z</time>
      </trkpt>
      <trkpt lat="45.57807" lon="4.66117">
        <ele>395.298196</ele>
        <time>2025-09-13T07:28:11.676Z</time>
      </trkpt>
      <trkpt lat="45.57804" lon="4.66105">
        <ele>395.446929</ele>
        <time>2025-09-13T07:28:15.672Z</time>
      </trkpt>
      <trkpt lat="45.57799" lon="4.66091">
        <ele>395.622997</ele>
        <time>2025-09-13T07:28:20.682Z</time>
      </trkpt>
      <trkpt lat="45.57805" lon="4.66081">
        <ele>395.774982</ele>
        <time>2025-09-13T07:28:25.672Z</time>
      </trkpt>
      <trkpt lat="45.57802" lon="4.66066">
        <ele>395.957995</ele>
        <time>2025-09-13T07:28:29.672Z</time>
      </trkpt>
      <trkpt lat="45.57795" lon="4.66055">
        <ele>396.122987</ele>
        <time>2025-09-13T07:28:33.674Z</time>
      </trkpt>
      <trkpt lat="45.57787" lon="4.66046">
        <ele>396.292376</ele>
        <time>2025-09-13T07:28:41.675Z</time>
      </trkpt>
      <trkpt lat="45.57781" lon="4.66019">
        <ele>396.611059</ele>
        <time>2025-09-13T07:29:10.679Z</time>
      </trkpt>
      <trkpt lat="45.57776" lon="4.66004">
        <ele>396.80458</ele>
        <time>2025-09-13T07:29:14.674Z</time>
      </trkpt>
      <trkpt lat="45.57772" lon="4.65991">
        <ele>396.969392</ele>
        <time>2025-09-13T07:29:18.675Z</time>
      </trkpt>
      <trkpt lat="45.57768" lon="4.65977">
        <ele>397.147608</ele>
        <time>2025-09-13T07:29:22.686Z</time>
      </trkpt>
      <trkpt lat="45.57765" lon="4.65963">
        <ele>397.318167</ele>
        <time>2025-09-13T07:29:26.671Z</time>
      </trkpt>
      <trkpt lat="45.57761" lon="4.6595">
        <ele>397.469889</ele>
        <time>2025-09-13T07:29:32.662Z</time>
      </trkpt>
      <trkpt lat="45.57751" lon="4.65945">
        <ele>397.645862</ele>
        <time>2025-09-13T07:29:38.694Z</time>
      </trkpt>
      <trkpt lat="45.57742" lon="4.65943">
        <ele>397.839569</ele>
        <time>2025-09-13T07:29:42.672Z</time>
      </trkpt>
      <trkpt lat="45.57732" lon="4.65941">
        <ele>398.073628</ele>
        <time>2025-09-13T07:29:46.680Z</time>
      </trkpt>
      <trkpt lat="45.5772" lon="4.65943">
        <ele>398.336674</ele>
        <time>2025-09-13T07:29:50.676Z</time>
      </trkpt>
      <trkpt lat="45.57709" lon="4.65942">
        <ele>398.594787</ele>
        <time>2025-09-13T07:29:54.679Z</time>
      </trkpt>
      <trkpt lat="45.57698" lon="4.65937">
        <ele>398.84617</ele>
        <time>2025-09-13T07:29:59.655Z</time>
      </trkpt>
      <trkpt lat="45.57691" lon="4.65924">
        <ele>399.110091</ele>
        <time>2025-09-13T07:30:03.678Z</time>
      </trkpt>
      <trkpt lat="45.57687" lon="4.65908">
        <ele>399.367969</ele>
        <time>2025-09-13T07:30:07.673Z</time>
      </trkpt>
      <trkpt lat="45.57685" lon="4.65892">
        <ele>399.636101</ele>
        <time>2025-09-13T07:30:11.658Z</time>
      </trkpt>
      <trkpt lat="45.57682" lon="4.65876">
        <ele>399.90322</ele>
        <time>2025-09-13T07:30:15.652Z</time>
      </trkpt>
      <trkpt lat="45.57679" lon="4.6586">
        <ele>400.155901</ele>
        <time>2025-09-13T07:30:19.670Z</time>
      </trkpt>
      <trkpt lat="45.57676" lon="4.65845">
        <ele>400.400428</ele>
        <time>2025-09-13T07:30:23.654Z</time>
      </trkpt>
      <trkpt lat="45.57674" lon="4.6583">
        <ele>400.65025</ele>
        <time>2025-09-13T07:30:27.666Z</time>
      </trkpt>
      <trkpt lat="45.57672" lon="4.65815">
        <ele>400.885513</ele>
        <time>2025-09-13T07:30:31.665Z</time>
      </trkpt>
      <trkpt lat="45.57669" lon="4.658">
        <ele>401.135167</ele>
        <time>2025-09-13T07:30:36.666Z</time>
      </trkpt>
      <trkpt lat="45.57663" lon="4.65789">
        <ele>401.35885</ele>
        <time>2025-09-13T07:30:40.663Z</time>
      </trkpt>
      <trkpt lat="45.57652" lon="4.65789">
        <ele>401.618873</ele>
        <time>2025-09-13T07:30:44.661Z</time>
      </trkpt>
      <trkpt lat="45.5764" lon="4.6579">
        <ele>401.882036</ele>
        <time>2025-09-13T07:30:48.658Z</time>
      </trkpt>
      <trkpt lat="45.5763" lon="4.6579">
        <ele>402.153705</ele>
        <time>2025-09-13T07:30:52.671Z</time>
      </trkpt>
      <trkpt lat="45.57619" lon="4.65792">
        <ele>402.421657</ele>
        <time>2025-09-13T07:30:56.666Z</time>
      </trkpt>
      <trkpt lat="45.5761" lon="4.65793">
        <ele>402.655941</ele>
        <time>2025-09-13T07:31:00.655Z</time>
      </trkpt>
      <trkpt lat="45.57601" lon="4.65792">
        <ele>402.882711</ele>
        <time>2025-09-13T07:31:05.688Z</time>
      </trkpt>
      <trkpt lat="45.57597" lon="4.65777">
        <ele>403.161674</ele>
        <time>2025-09-13T07:31:10.693Z</time>
      </trkpt>
      <trkpt lat="45.57595" lon="4.6576">
        <ele>403.46015</ele>
        <time>2025-09-13T07:31:14.677Z</time>
      </trkpt>
      <trkpt lat="45.57591" lon="4.65745">
        <ele>403.750344</ele>
        <time>2025-09-13T07:31:18.680Z</time>
      </trkpt>
      <trkpt lat="45.57586" lon="4.6573">
        <ele>404.045882</ele>
        <time>2025-09-13T07:31:22.684Z</time>
      </trkpt>
      <trkpt lat="45.57582" lon="4.65714">
        <ele>404.343063</ele>
        <time>2025-09-13T07:31:26.681Z</time>
      </trkpt>
      <trkpt lat="45.57576" lon="4.65701">
        <ele>404.609562</ele>
        <time>2025-09-13T07:31:30.671Z</time>
      </trkpt>
      <trkpt lat="45.5757" lon="4.65691">
        <ele>404.841822</ele>
        <time>2025-09-13T07:31:36.672Z</time>
      </trkpt>
      <trkpt lat="45.57572" lon="4.65676">
        <ele>405.117702</ele>
        <time>2025-09-13T07:31:41.671Z</time>
      </trkpt>
      <trkpt lat="45.57574" lon="4.6566">
        <ele>405.388772</ele>
        <time>2025-09-13T07:31:45.663Z</time>
      </trkpt>
      <trkpt lat="45.57576" lon="4.65647">
        <ele>405.621421</ele>
        <time>2025-09-13T07:31:48.663Z</time>
      </trkpt>
      <trkpt lat="45.57577" lon="4.65634">
        <ele>405.859653</ele>
        <time>2025-09-13T07:31:51.658Z</time>
      </trkpt>
      <trkpt lat="45.57578" lon="4.6562">
        <ele>406.100382</ele>
        <time>2025-09-13T07:31:54.658Z</time>
      </trkpt>
      <trkpt lat="45.57579" lon="4.65606">
        <ele>406.335167</ele>
        <time>2025-09-13T07:31:57.655Z</time>
      </trkpt>
      <trkpt lat="45.5758" lon="4.65592">
        <ele>406.522171</ele>
        <time>2025-09-13T07:32:00.673Z</time>
      </trkpt>
      <trkpt lat="45.57582" lon="4.65578">
        <ele>406.706556</ele>
        <time>2025-09-13T07:32:03.665Z</time>
      </trkpt>
      <trkpt lat="45.57583" lon="4.65564">
        <ele>406.886357</ele>
        <time>2025-09-13T07:32:06.646Z</time>
      </trkpt>
      <trkpt lat="45.57584" lon="4.65551">
        <ele>407.061886</ele>
        <time>2025-09-13T07:32:09.658Z</time>
      </trkpt>
      <trkpt lat="45.57585" lon="4.65537">
        <ele>407.246584</ele>
        <time>2025-09-13T07:32:12.669Z</time>
      </trkpt>
      <trkpt lat="45.57587" lon="4.65522">
        <ele>407.441031</ele>
        <time>2025-09-13T07:32:15.655Z</time>
      </trkpt>
      <trkpt lat="45.57588" lon="4.65508">
        <ele>407.627709</ele>
        <time>2025-09-13T07:32:18.674Z</time>
      </trkpt>
      <trkpt lat="45.5759" lon="4.65494">
        <ele>407.817263</ele>
        <time>2025-09-13T07:32:21.657Z</time>
      </trkpt>
      <trkpt lat="45.57591" lon="4.6548">
        <ele>408.004966</ele>
        <time>2025-09-13T07:32:24.673Z</time>
      </trkpt>
      <trkpt lat="45.57593" lon="4.65465">
        <ele>408.198696</ele>
        <time>2025-09-13T07:32:27.666Z</time>
      </trkpt>
      <trkpt lat="45.57595" lon="4.6545">
        <ele>408.401771</ele>
        <time>2025-09-13T07:32:30.670Z</time>
      </trkpt>
      <trkpt lat="45.57597" lon="4.65435">
        <ele>408.599685</ele>
        <time>2025-09-13T07:32:33.652Z</time>
      </trkpt>
      <trkpt lat="45.57598" lon="4.6542">
        <ele>408.801166</ele>
        <time>2025-09-13T07:32:36.680Z</time>
      </trkpt>
      <trkpt lat="45.576" lon="4.65405">
        <ele>408.996649</ele>
        <time>2025-09-13T07:32:39.646Z</time>
      </trkpt>
      <trkpt lat="45.57601" lon="4.6539">
        <ele>409.189292</ele>
        <time>2025-09-13T07:32:42.670Z</time>
      </trkpt>
      <trkpt lat="45.57603" lon="4.65376">
        <ele>409.381431</ele>
        <time>2025-09-13T07:32:45.655Z</time>
      </trkpt>
      <trkpt lat="45.57604" lon="4.65362">
        <ele>409.56529</ele>
        <time>2025-09-13T07:32:48.676Z</time>
      </trkpt>
      <trkpt lat="45.57605" lon="4.65346">
        <ele>409.665387</ele>
        <time>2025-09-13T07:32:52.671Z</time>
      </trkpt>
      <trkpt lat="45.57588" lon="4.65331">
        <ele>409.723112</ele>
        <time>2025-09-13T07:33:39.672Z</time>
      </trkpt>
      <trkpt lat="45.57578" lon="4.65333">
        <ele>409.753677</ele>
        <time>2025-09-13T07:33:42.659Z</time>
      </trkpt>
      <trkpt lat="45.57566" lon="4.65335">
        <ele>409.788709</ele>
        <time>2025-09-13T07:33:45.657Z</time>
      </trkpt>
      <trkpt lat="45.57553" lon="4.65336">
        <ele>409.8274</ele>
        <time>2025-09-13T07:33:48.657Z</time>
      </trkpt>
      <trkpt lat="45.5754" lon="4.65337">
        <ele>409.8647</ele>
        <time>2025-09-13T07:33:51.655Z</time>
      </trkpt>
      <trkpt lat="45.57528" lon="4.65335">
        <ele>409.900002</ele>
        <time>2025-09-13T07:33:54.649Z</time>
      </trkpt>
      <trkpt lat="45.57517" lon="4.65331">
        <ele>409.935409</ele>
        <time>2025-09-13T07:33:57.663Z</time>
      </trkpt>
      <trkpt lat="45.57508" lon="4.65327">
        <ele>409.962529</ele>
        <time>2025-09-13T07:33:59.672Z</time>
      </trkpt>
      <trkpt lat="45.57499" lon="4.65325">
        <ele>409.989288</ele>
        <time>2025-09-13T07:34:01.692Z</time>
      </trkpt>
      <trkpt lat="45.57489" lon="4.65322">
        <ele>410.018693</ele>
        <time>2025-09-13T07:34:03.672Z</time>
      </trkpt>
      <trkpt lat="45.57479" lon="4.6532">
        <ele>410.048679</ele>
        <time>2025-09-13T07:34:05.676Z</time>
      </trkpt>
      <trkpt lat="45.57469" lon="4.65317">
        <ele>410.078628</ele>
        <time>2025-09-13T07:34:07.671Z</time>
      </trkpt>
      <trkpt lat="45.57459" lon="4.65314">
        <ele>410.110139</ele>
        <time>2025-09-13T07:34:09.673Z</time>
      </trkpt>
      <trkpt lat="45.57448" lon="4.65311">
        <ele>410.14136</ele>
        <time>2025-09-13T07:34:11.670Z</time>
      </trkpt>
      <trkpt lat="45.57438" lon="4.65309">
        <ele>410.173741</ele>
        <time>2025-09-13T07:34:13.677Z</time>
      </trkpt>
      <trkpt lat="45.57426" lon="4.65306">
        <ele>410.222508</ele>
        <time>2025-09-13T07:34:15.668Z</time>
      </trkpt>
      <trkpt lat="45.57415" lon="4.65303">
        <ele>410.273778</ele>
        <time>2025-09-13T07:34:17.678Z</time>
      </trkpt>
      <trkpt lat="45.57403" lon="4.65301">
        <ele>410.326719</ele>
        <time>2025-09-13T07:34:19.667Z</time>
      </trkpt>
      <trkpt lat="45.57391" lon="4.653">
        <ele>410.381</ele>
        <time>2025-09-13T07:34:21.674Z</time>
      </trkpt>
      <trkpt lat="45.57378" lon="4.65299">
        <ele>410.434725</ele>
        <time>2025-09-13T07:34:23.674Z</time>
      </trkpt>
      <trkpt lat="45.57367" lon="4.65298">
        <ele>410.486677</ele>
        <time>2025-09-13T07:34:25.675Z</time>
      </trkpt>
      <trkpt lat="45.57355" lon="4.65297">
        <ele>410.538647</ele>
        <time>2025-09-13T07:34:27.659Z</time>
      </trkpt>
      <trkpt lat="45.57343" lon="4.65295">
        <ele>410.5902</ele>
        <time>2025-09-13T07:34:29.666Z</time>
      </trkpt>
      <trkpt lat="45.57332" lon="4.65295">
        <ele>410.640818</ele>
        <time>2025-09-13T07:34:31.668Z</time>
      </trkpt>
      <trkpt lat="45.5732" lon="4.65294">
        <ele>410.691453</ele>
        <time>2025-09-13T07:34:33.664Z</time>
      </trkpt>
      <trkpt lat="45.57309" lon="4.65292">
        <ele>410.739962</ele>
        <time>2025-09-13T07:34:35.667Z</time>
      </trkpt>
      <trkpt lat="45.57298" lon="4.65291">
        <ele>410.788405</ele>
        <time>2025-09-13T07:34:37.674Z</time>
      </trkpt>
      <trkpt lat="45.57287" lon="4.6529">
        <ele>410.83689</ele>
        <time>2025-09-13T07:34:39.663Z</time>
      </trkpt>
      <trkpt lat="45.57276" lon="4.65289">
        <ele>410.885399</ele>
        <time>2025-09-13T07:34:41.659Z</time>
      </trkpt>
      <trkpt lat="45.57265" lon="4.65288">
        <ele>410.933339</ele>
        <time>2025-09-13T07:34:43.655Z</time>
      </trkpt>
      <trkpt lat="45.57255" lon="4.65288">
        <ele>410.913422</ele>
        <time>2025-09-13T07:34:45.650Z</time>
      </trkpt>
      <trkpt lat="45.57244" lon="4.65289">
        <ele>410.730595</ele>
        <time>2025-09-13T07:34:47.663Z</time>
      </trkpt>
      <trkpt lat="45.57234" lon="4.65289">
        <ele>410.548217</ele>
        <time>2025-09-13T07:34:49.657Z</time>
      </trkpt>
      <trkpt lat="45.57224" lon="4.65289">
        <ele>410.358743</ele>
        <time>2025-09-13T07:34:51.650Z</time>
      </trkpt>
      <trkpt lat="45.57213" lon="4.6529">
        <ele>410.161993</ele>
        <time>2025-09-13T07:34:53.652Z</time>
      </trkpt>
      <trkpt lat="45.57201" lon="4.6529">
        <ele>409.954658</ele>
        <time>2025-09-13T07:34:55.656Z</time>
      </trkpt>
      <trkpt lat="45.57189" lon="4.6529">
        <ele>409.749099</ele>
        <time>2025-09-13T07:34:57.649Z</time>
      </trkpt>
      <trkpt lat="45.57178" lon="4.6529">
        <ele>409.539977</ele>
        <time>2025-09-13T07:34:59.668Z</time>
      </trkpt>
      <trkpt lat="45.57166" lon="4.65289">
        <ele>409.332585</ele>
        <time>2025-09-13T07:35:01.668Z</time>
      </trkpt>
      <trkpt lat="45.57155" lon="4.65289">
        <ele>409.130426</ele>
        <time>2025-09-13T07:35:03.675Z</time>
      </trkpt>
      <trkpt lat="45.57144" lon="4.65288">
        <ele>408.928395</ele>
        <time>2025-09-13T07:35:05.674Z</time>
      </trkpt>
      <trkpt lat="45.57132" lon="4.65288">
        <ele>408.726391</ele>
        <time>2025-09-13T07:35:07.669Z</time>
      </trkpt>
      <trkpt lat="45.57121" lon="4.65288">
        <ele>408.524406</ele>
        <time>2025-09-13T07:35:09.676Z</time>
      </trkpt>
      <trkpt lat="45.5711" lon="4.65286">
        <ele>408.320735</ele>
        <time>2025-09-13T07:35:11.673Z</time>
      </trkpt>
      <trkpt lat="45.57099" lon="4.65284">
        <ele>408.124152</ele>
        <time>2025-09-13T07:35:13.683Z</time>
      </trkpt>
      <trkpt lat="45.57088" lon="4.65282">
        <ele>407.926837</ele>
        <time>2025-09-13T07:35:15.680Z</time>
      </trkpt>
      <trkpt lat="45.57078" lon="4.65278">
        <ele>407.765306</ele>
        <time>2025-09-13T07:35:17.684Z</time>
      </trkpt>
      <trkpt lat="45.57065" lon="4.65272">
        <ele>407.967192</ele>
        <time>2025-09-13T07:35:20.667Z</time>
      </trkpt>
      <trkpt lat="45.57055" lon="4.65267">
        <ele>408.136502</ele>
        <time>2025-09-13T07:35:23.676Z</time>
      </trkpt>
      <trkpt lat="45.57045" lon="4.6526">
        <ele>408.299803</ele>
        <time>2025-09-13T07:35:26.651Z</time>
      </trkpt>
      <trkpt lat="45.57034" lon="4.6525">
        <ele>408.512236</ele>
        <time>2025-09-13T07:35:29.658Z</time>
      </trkpt>
      <trkpt lat="45.57025" lon="4.65244">
        <ele>408.6569</ele>
        <time>2025-09-13T07:35:31.667Z</time>
      </trkpt>
      <trkpt lat="45.57017" lon="4.65238">
        <ele>408.799221</ele>
        <time>2025-09-13T07:35:33.667Z</time>
      </trkpt>
      <trkpt lat="45.57008" lon="4.65231">
        <ele>408.960706</ele>
        <time>2025-09-13T07:35:35.662Z</time>
      </trkpt>
      <trkpt lat="45.56999" lon="4.65224">
        <ele>409.117006</ele>
        <time>2025-09-13T07:35:37.667Z</time>
      </trkpt>
      <trkpt lat="45.56991" lon="4.65215">
        <ele>409.282524</ele>
        <time>2025-09-13T07:35:40.663Z</time>
      </trkpt>
      <trkpt lat="45.56987" lon="4.65193">
        <ele>409.523492</ele>
        <time>2025-09-13T07:36:57.655Z</time>
      </trkpt>
      <trkpt lat="45.56987" lon="4.65177">
        <ele>409.704786</ele>
        <time>2025-09-13T07:37:01.656Z</time>
      </trkpt>
      <trkpt lat="45.56988" lon="4.65161">
        <ele>409.870055</ele>
        <time>2025-09-13T07:37:06.672Z</time>
      </trkpt>
      <trkpt lat="45.56988" lon="4.65147">
        <ele>410.027373</ele>
        <time>2025-09-13T07:37:11.679Z</time>
      </trkpt>
      <trkpt lat="45.56988" lon="4.65133">
        <ele>410.176044</ele>
        <time>2025-09-13T07:37:16.676Z</time>
      </trkpt>
      <trkpt lat="45.56988" lon="4.65119">
        <ele>410.332285</ele>
        <time>2025-09-13T07:37:22.655Z</time>
      </trkpt>
      <trkpt lat="45.56989" lon="4.65105">
        <ele>410.484305</ele>
        <time>2025-09-13T07:37:28.667Z</time>
      </trkpt>
      <trkpt lat="45.56989" lon="4.65091">
        <ele>410.98225</ele>
        <time>2025-09-13T07:37:35.672Z</time>
      </trkpt>
      <trkpt lat="45.56991" lon="4.65078">
        <ele>411.72398</ele>
        <time>2025-09-13T07:37:42.666Z</time>
      </trkpt>
      <trkpt lat="45.56991" lon="4.65065">
        <ele>412.411719</ele>
        <time>2025-09-13T07:37:46.651Z</time>
      </trkpt>
      <trkpt lat="45.5699" lon="4.65052">
        <ele>413.111571</ele>
        <time>2025-09-13T07:37:49.666Z</time>
      </trkpt>
      <trkpt lat="45.56989" lon="4.65036">
        <ele>413.95075</ele>
        <time>2025-09-13T07:37:52.684Z</time>
      </trkpt>
      <trkpt lat="45.56986" lon="4.6502">
        <ele>414.864242</ele>
        <time>2025-09-13T07:37:55.667Z</time>
      </trkpt>
      <trkpt lat="45.56984" lon="4.65007">
        <ele>415.578403</ele>
        <time>2025-09-13T07:37:57.666Z</time>
      </trkpt>
      <trkpt lat="45.56981" lon="4.64993">
        <ele>416.302248</ele>
        <time>2025-09-13T07:37:59.657Z</time>
      </trkpt>
      <trkpt lat="45.56979" lon="4.64979">
        <ele>417.085689</ele>
        <time>2025-09-13T07:38:01.665Z</time>
      </trkpt>
      <trkpt lat="45.56975" lon="4.64965">
        <ele>417.873559</ele>
        <time>2025-09-13T07:38:03.651Z</time>
      </trkpt>
      <trkpt lat="45.56972" lon="4.6495">
        <ele>418.706351</ele>
        <time>2025-09-13T07:38:06.650Z</time>
      </trkpt>
      <trkpt lat="45.5697" lon="4.64937">
        <ele>419.448881</ele>
        <time>2025-09-13T07:38:09.660Z</time>
      </trkpt>
      <trkpt lat="45.56967" lon="4.64921">
        <ele>420.316468</ele>
        <time>2025-09-13T07:38:13.678Z</time>
      </trkpt>
      <trkpt lat="45.56965" lon="4.64907">
        <ele>421.071472</ele>
        <time>2025-09-13T07:38:17.676Z</time>
      </trkpt>
      <trkpt lat="45.56965" lon="4.64893">
        <ele>421.833844</ele>
        <time>2025-09-13T07:38:21.680Z</time>
      </trkpt>
      <trkpt lat="45.56965" lon="4.64878">
        <ele>422.633532</ele>
        <time>2025-09-13T07:38:25.669Z</time>
      </trkpt>
      <trkpt lat="45.56964" lon="4.64864">
        <ele>423.370628</ele>
        <time>2025-09-13T07:38:29.670Z</time>
      </trkpt>
      <trkpt lat="45.56964" lon="4.64849">
        <ele>424.181264</ele>
        <time>2025-09-13T07:38:33.674Z</time>
      </trkpt>
      <trkpt lat="45.56963" lon="4.64833">
        <ele>424.371206</ele>
        <time>2025-09-13T07:38:37.680Z</time>
      </trkpt>
      <trkpt lat="45.56962" lon="4.64818">
        <ele>424.503857</ele>
        <time>2025-09-13T07:38:41.670Z</time>
      </trkpt>
      <trkpt lat="45.56961" lon="4.64802">
        <ele>424.641983</ele>
        <time>2025-09-13T07:38:45.672Z</time>
      </trkpt>
      <trkpt lat="45.56959" lon="4.64785">
        <ele>424.794272</ele>
        <time>2025-09-13T07:38:49.667Z</time>
      </trkpt>
      <trkpt lat="45.56957" lon="4.64768">
        <ele>424.940766</ele>
        <time>2025-09-13T07:38:53.664Z</time>
      </trkpt>
      <trkpt lat="45.56954" lon="4.64756">
        <ele>425.056658</ele>
        <time>2025-09-13T07:38:56.678Z</time>
      </trkpt>
      <trkpt lat="45.56952" lon="4.64742">
        <ele>425.18138</ele>
        <time>2025-09-13T07:38:59.662Z</time>
      </trkpt>
      <trkpt lat="45.5695" lon="4.64728">
        <ele>425.300621</ele>
        <time>2025-09-13T07:39:02.664Z</time>
      </trkpt>
      <trkpt lat="45.56948" lon="4.64714">
        <ele>425.423168</ele>
        <time>2025-09-13T07:39:05.673Z</time>
      </trkpt>
      <trkpt lat="45.56947" lon="4.647">
        <ele>425.5511</ele>
        <time>2025-09-13T07:39:08.666Z</time>
      </trkpt>
      <trkpt lat="45.56945" lon="4.64685">
        <ele>425.682314</ele>
        <time>2025-09-13T07:39:11.670Z</time>
      </trkpt>
      <trkpt lat="45.56943" lon="4.64671">
        <ele>425.814142</ele>
        <time>2025-09-13T07:39:14.665Z</time>
      </trkpt>
      <trkpt lat="45.56941" lon="4.64653">
        <ele>425.973347</ele>
        <time>2025-09-13T07:39:17.673Z</time>
      </trkpt>
      <trkpt lat="45.56939" lon="4.6464">
        <ele>426.088639</ele>
        <time>2025-09-13T07:39:19.666Z</time>
      </trkpt>
      <trkpt lat="45.56937" lon="4.64627">
        <ele>426.203619</ele>
        <time>2025-09-13T07:39:21.662Z</time>
      </trkpt>
      <trkpt lat="45.56934" lon="4.64614">
        <ele>426.319195</ele>
        <time>2025-09-13T07:39:23.664Z</time>
      </trkpt>
      <trkpt lat="45.56931" lon="4.64596">
        <ele>426.486192</ele>
        <time>2025-09-13T07:39:26.658Z</time>
      </trkpt>
      <trkpt lat="45.56928" lon="4.64577">
        <ele>426.827011</ele>
        <time>2025-09-13T07:39:29.647Z</time>
      </trkpt>
      <trkpt lat="45.56924" lon="4.6456">
        <ele>427.170832</ele>
        <time>2025-09-13T07:39:32.660Z</time>
      </trkpt>
      <trkpt lat="45.56919" lon="4.64544">
        <ele>427.47057</ele>
        <time>2025-09-13T07:39:35.654Z</time>
      </trkpt>
      <trkpt lat="45.56915" lon="4.64532">
        <ele>427.720785</ele>
        <time>2025-09-13T07:39:39.684Z</time>
      </trkpt>
      <trkpt lat="45.56929" lon="4.6451">
        <ele>428.245727</ele>
        <time>2025-09-13T07:41:49.668Z</time>
      </trkpt>
      <trkpt lat="45.56938" lon="4.64502">
        <ele>428.527666</ele>
        <time>2025-09-13T07:41:53.669Z</time>
      </trkpt>
      <trkpt lat="45.56946" lon="4.64493">
        <ele>428.796147</ele>
        <time>2025-09-13T07:41:57.694Z</time>
      </trkpt>
      <trkpt lat="45.56969" lon="4.64472">
        <ele>429.492211</ele>
        <time>2025-09-13T07:42:54.659Z</time>
      </trkpt>
      <trkpt lat="45.56983" lon="4.64458">
        <ele>429.952466</ele>
        <time>2025-09-13T07:43:20.667Z</time>
      </trkpt>
      <trkpt lat="45.56992" lon="4.64449">
        <ele>430.223801</ele>
        <time>2025-09-13T07:43:25.667Z</time>
      </trkpt>
      <trkpt lat="45.56999" lon="4.64441">
        <ele>430.465562</ele>
        <time>2025-09-13T07:43:30.659Z</time>
      </trkpt>
      <trkpt lat="45.57006" lon="4.64433">
        <ele>430.702748</ele>
        <time>2025-09-13T07:43:35.664Z</time>
      </trkpt>
      <trkpt lat="45.57013" lon="4.64424">
        <ele>430.938488</ele>
        <time>2025-09-13T07:43:40.658Z</time>
      </trkpt>
      <trkpt lat="45.57021" lon="4.64417">
        <ele>431.201903</ele>
        <time>2025-09-13T07:43:45.686Z</time>
      </trkpt>
      <trkpt lat="45.57028" lon="4.64409">
        <ele>431.659721</ele>
        <time>2025-09-13T07:43:50.668Z</time>
      </trkpt>
      <trkpt lat="45.57036" lon="4.644">
        <ele>432.115663</ele>
        <time>2025-09-13T07:43:55.674Z</time>
      </trkpt>
      <trkpt lat="45.57043" lon="4.64393">
        <ele>432.550005</ele>
        <time>2025-09-13T07:44:01.687Z</time>
      </trkpt>
      <trkpt lat="45.57051" lon="4.64386">
        <ele>432.985291</ele>
        <time>2025-09-13T07:44:06.655Z</time>
      </trkpt>
      <trkpt lat="45.57058" lon="4.64378">
        <ele>433.427697</ele>
        <time>2025-09-13T07:44:11.674Z</time>
      </trkpt>
      <trkpt lat="45.57067" lon="4.6437">
        <ele>433.920725</ele>
        <time>2025-09-13T07:44:16.658Z</time>
      </trkpt>
      <trkpt lat="45.57075" lon="4.6436">
        <ele>434.425875</ele>
        <time>2025-09-13T07:44:21.665Z</time>
      </trkpt>
      <trkpt lat="45.57083" lon="4.64351">
        <ele>434.937802</ele>
        <time>2025-09-13T07:44:26.652Z</time>
      </trkpt>
      <trkpt lat="45.57091" lon="4.64342">
        <ele>435.421258</ele>
        <time>2025-09-13T07:44:31.669Z</time>
      </trkpt>
      <trkpt lat="45.571" lon="4.64334">
        <ele>435.925093</ele>
        <time>2025-09-13T07:44:36.652Z</time>
      </trkpt>
      <trkpt lat="45.57109" lon="4.64325">
        <ele>436.46118</ele>
        <time>2025-09-13T07:44:41.683Z</time>
      </trkpt>
      <trkpt lat="45.57117" lon="4.64315">
        <ele>436.967385</ele>
        <time>2025-09-13T07:44:46.655Z</time>
      </trkpt>
      <trkpt lat="45.57125" lon="4.64306">
        <ele>437.462395</ele>
        <time>2025-09-13T07:44:51.677Z</time>
      </trkpt>
      <trkpt lat="45.57132" lon="4.64296">
        <ele>437.924469</ele>
        <time>2025-09-13T07:44:55.673Z</time>
      </trkpt>
      <trkpt lat="45.57139" lon="4.64284">
        <ele>438.457059</ele>
        <time>2025-09-13T07:45:00.674Z</time>
      </trkpt>
      <trkpt lat="45.57146" lon="4.64274">
        <ele>438.948448</ele>
        <time>2025-09-13T07:45:05.650Z</time>
      </trkpt>
      <trkpt lat="45.57153" lon="4.64262">
        <ele>439.467105</ele>
        <time>2025-09-13T07:45:11.652Z</time>
      </trkpt>
      <trkpt lat="45.5716" lon="4.64252">
        <ele>439.911869</ele>
        <time>2025-09-13T07:45:16.650Z</time>
      </trkpt>
      <trkpt lat="45.57167" lon="4.64242">
        <ele>440.293323</ele>
        <time>2025-09-13T07:45:24.652Z</time>
      </trkpt>
      <trkpt lat="45.57176" lon="4.64235">
        <ele>440.699699</ele>
        <time>2025-09-13T07:45:30.652Z</time>
      </trkpt>
      <trkpt lat="45.57183" lon="4.64226">
        <ele>441.105383</ele>
        <time>2025-09-13T07:45:35.654Z</time>
      </trkpt>
      <trkpt lat="45.57192" lon="4.64217">
        <ele>441.536612</ele>
        <time>2025-09-13T07:45:40.672Z</time>
      </trkpt>
      <trkpt lat="45.572" lon="4.64207">
        <ele>441.964047</ele>
        <time>2025-09-13T07:45:45.640Z</time>
      </trkpt>
      <trkpt lat="45.57208" lon="4.642">
        <ele>442.324292</ele>
        <time>2025-09-13T07:45:49.652Z</time>
      </trkpt>
      <trkpt lat="45.57217" lon="4.64191">
        <ele>442.757702</ele>
        <time>2025-09-13T07:45:54.673Z</time>
      </trkpt>
      <trkpt lat="45.57226" lon="4.64183">
        <ele>443.160585</ele>
        <time>2025-09-13T07:45:59.655Z</time>
      </trkpt>
      <trkpt lat="45.57235" lon="4.64177">
        <ele>443.554861</ele>
        <time>2025-09-13T07:46:04.675Z</time>
      </trkpt>
      <trkpt lat="45.57245" lon="4.64173">
        <ele>443.967833</ele>
        <time>2025-09-13T07:46:09.655Z</time>
      </trkpt>
      <trkpt lat="45.57255" lon="4.6417">
        <ele>444.374018</ele>
        <time>2025-09-13T07:46:14.658Z</time>
      </trkpt>
      <trkpt lat="45.57264" lon="4.64168">
        <ele>444.74085</ele>
        <time>2025-09-13T07:46:18.657Z</time>
      </trkpt>
      <trkpt lat="45.57273" lon="4.64165">
        <ele>445.12978</ele>
        <time>2025-09-13T07:46:22.654Z</time>
      </trkpt>
      <trkpt lat="45.57283" lon="4.64161">
        <ele>445.515376</ele>
        <time>2025-09-13T07:46:26.652Z</time>
      </trkpt>
      <trkpt lat="45.57292" lon="4.64158">
        <ele>445.894453</ele>
        <time>2025-09-13T07:46:30.660Z</time>
      </trkpt>
      <trkpt lat="45.57302" lon="4.64155">
        <ele>446.294122</ele>
        <time>2025-09-13T07:46:34.663Z</time>
      </trkpt>
      <trkpt lat="45.57311" lon="4.64151">
        <ele>446.685077</ele>
        <time>2025-09-13T07:46:38.654Z</time>
      </trkpt>
      <trkpt lat="45.57321" lon="4.64146">
        <ele>447.036717</ele>
        <time>2025-09-13T07:46:42.688Z</time>
      </trkpt>
      <trkpt lat="45.57331" lon="4.64142">
        <ele>447.313344</ele>
        <time>2025-09-13T07:46:46.674Z</time>
      </trkpt>
      <trkpt lat="45.57341" lon="4.64139">
        <ele>447.605</ele>
        <time>2025-09-13T07:46:50.671Z</time>
      </trkpt>
      <trkpt lat="45.5735" lon="4.64134">
        <ele>447.872962</ele>
        <time>2025-09-13T07:46:54.671Z</time>
      </trkpt>
      <trkpt lat="45.5736" lon="4.64131">
        <ele>448.146156</ele>
        <time>2025-09-13T07:46:58.671Z</time>
      </trkpt>
      <trkpt lat="45.57371" lon="4.64128">
        <ele>448.43253</ele>
        <time>2025-09-13T07:47:02.666Z</time>
      </trkpt>
      <trkpt lat="45.5738" lon="4.64123">
        <ele>448.709397</ele>
        <time>2025-09-13T07:47:06.646Z</time>
      </trkpt>
      <trkpt lat="45.5739" lon="4.64119">
        <ele>448.986024</ele>
        <time>2025-09-13T07:47:10.657Z</time>
      </trkpt>
      <trkpt lat="45.574" lon="4.64114">
        <ele>449.262892</ele>
        <time>2025-09-13T07:47:14.641Z</time>
      </trkpt>
      <trkpt lat="45.57409" lon="4.6411">
        <ele>449.526548</ele>
        <time>2025-09-13T07:47:18.644Z</time>
      </trkpt>
      <trkpt lat="45.57419" lon="4.64106">
        <ele>449.798522</ele>
        <time>2025-09-13T07:47:22.651Z</time>
      </trkpt>
      <trkpt lat="45.57428" lon="4.64102">
        <ele>450.066817</ele>
        <time>2025-09-13T07:47:26.653Z</time>
      </trkpt>
      <trkpt lat="45.57438" lon="4.64098">
        <ele>450.349717</ele>
        <time>2025-09-13T07:47:30.636Z</time>
      </trkpt>
      <trkpt lat="45.57449" lon="4.64094">
        <ele>450.648218</ele>
        <time>2025-09-13T07:47:34.650Z</time>
      </trkpt>
      <trkpt lat="45.57459" lon="4.6409">
        <ele>450.924845</ele>
        <time>2025-09-13T07:47:38.684Z</time>
      </trkpt>
      <trkpt lat="45.57469" lon="4.64085">
        <ele>451.220914</ele>
        <time>2025-09-13T07:47:42.650Z</time>
      </trkpt>
      <trkpt lat="45.57479" lon="4.64081">
        <ele>451.504366</ele>
        <time>2025-09-13T07:47:46.654Z</time>
      </trkpt>
      <trkpt lat="45.57489" lon="4.64075">
        <ele>451.784365</ele>
        <time>2025-09-13T07:47:50.654Z</time>
      </trkpt>
      <trkpt lat="45.57498" lon="4.64071">
        <ele>452.070203</ele>
        <time>2025-09-13T07:47:54.652Z</time>
      </trkpt>
      <trkpt lat="45.57507" lon="4.64066">
        <ele>452.355764</ele>
        <time>2025-09-13T07:47:58.654Z</time>
      </trkpt>
      <trkpt lat="45.57516" lon="4.64062">
        <ele>452.625278</ele>
        <time>2025-09-13T07:48:02.656Z</time>
      </trkpt>
      <trkpt lat="45.57525" lon="4.64059">
        <ele>452.911006</ele>
        <time>2025-09-13T07:48:06.670Z</time>
      </trkpt>
      <trkpt lat="45.57534" lon="4.64054">
        <ele>453.190968</ele>
        <time>2025-09-13T07:48:11.650Z</time>
      </trkpt>
      <trkpt lat="45.57542" lon="4.64047">
        <ele>453.465548</ele>
        <time>2025-09-13T07:48:23.645Z</time>
      </trkpt>
      <trkpt lat="45.57551" lon="4.64037">
        <ele>453.800036</ele>
        <time>2025-09-13T07:48:27.648Z</time>
      </trkpt>
      <trkpt lat="45.57559" lon="4.64027">
        <ele>454.130555</ele>
        <time>2025-09-13T07:48:32.651Z</time>
      </trkpt>
      <trkpt lat="45.57567" lon="4.64017">
        <ele>454.444412</ele>
        <time>2025-09-13T07:48:37.649Z</time>
      </trkpt>
      <trkpt lat="45.57574" lon="4.64008">
        <ele>454.720915</ele>
        <time>2025-09-13T07:48:41.644Z</time>
      </trkpt>
      <trkpt lat="45.57582" lon="4.63999">
        <ele>455.014973</ele>
        <time>2025-09-13T07:48:45.642Z</time>
      </trkpt>
      <trkpt lat="45.57589" lon="4.6399">
        <ele>455.294854</ele>
        <time>2025-09-13T07:48:49.646Z</time>
      </trkpt>
      <trkpt lat="45.57596" lon="4.63981">
        <ele>455.575835</ele>
        <time>2025-09-13T07:48:53.645Z</time>
      </trkpt>
      <trkpt lat="45.57603" lon="4.63972">
        <ele>455.863635</ele>
        <time>2025-09-13T07:48:57.657Z</time>
      </trkpt>
      <trkpt lat="45.5761" lon="4.63964">
        <ele>456.134723</ele>
        <time>2025-09-13T07:49:01.674Z</time>
      </trkpt>
      <trkpt lat="45.57619" lon="4.63953">
        <ele>456.47343</ele>
        <time>2025-09-13T07:49:06.659Z</time>
      </trkpt>
      <trkpt lat="45.57621" lon="4.63939">
        <ele>456.762762</ele>
        <time>2025-09-13T07:49:12.657Z</time>
      </trkpt>
      <trkpt lat="45.57611" lon="4.63911">
        <ele>457.001487</ele>
        <time>2025-09-13T07:50:55.644Z</time>
      </trkpt>
      <trkpt lat="45.57605" lon="4.63899">
        <ele>456.835742</ele>
        <time>2025-09-13T07:50:58.662Z</time>
      </trkpt>
      <trkpt lat="45.57597" lon="4.63887">
        <ele>456.659995</ele>
        <time>2025-09-13T07:51:01.652Z</time>
      </trkpt>
      <trkpt lat="45.5759" lon="4.63874">
        <ele>456.486096</ele>
        <time>2025-09-13T07:51:04.669Z</time>
      </trkpt>
      <trkpt lat="45.57582" lon="4.6386">
        <ele>456.289742</ele>
        <time>2025-09-13T07:51:07.654Z</time>
      </trkpt>
      <trkpt lat="45.57576" lon="4.63849">
        <ele>456.133676</ele>
        <time>2025-09-13T07:51:09.648Z</time>
      </trkpt>
      <trkpt lat="45.57569" lon="4.63836">
        <ele>455.961757</ele>
        <time>2025-09-13T07:51:11.649Z</time>
      </trkpt>
      <trkpt lat="45.57563" lon="4.63823">
        <ele>455.795257</ele>
        <time>2025-09-13T07:51:13.652Z</time>
      </trkpt>
      <trkpt lat="45.57558" lon="4.63811">
        <ele>455.644519</ele>
        <time>2025-09-13T07:51:15.650Z</time>
      </trkpt>
      <trkpt lat="45.57553" lon="4.638">
        <ele>455.504389</ele>
        <time>2025-09-13T07:51:17.662Z</time>
      </trkpt>
      <trkpt lat="45.57546" lon="4.63785">
        <ele>455.309447</ele>
        <time>2025-09-13T07:51:20.665Z</time>
      </trkpt>
      <trkpt lat="45.5754" lon="4.63771">
        <ele>455.12484</ele>
        <time>2025-09-13T07:51:23.656Z</time>
      </trkpt>
      <trkpt lat="45.57534" lon="4.63756">
        <ele>454.938425</ele>
        <time>2025-09-13T07:51:26.663Z</time>
      </trkpt>
      <trkpt lat="45.57528" lon="4.63743">
        <ele>454.768382</ele>
        <time>2025-09-13T07:51:29.652Z</time>
      </trkpt>
      <trkpt lat="45.57521" lon="4.63732">
        <ele>454.609263</ele>
        <time>2025-09-13T07:51:32.658Z</time>
      </trkpt>
      <trkpt lat="45.57513" lon="4.6372">
        <ele>454.434073</ele>
        <time>2025-09-13T07:51:36.662Z</time>
      </trkpt>
      <trkpt lat="45.57504" lon="4.63713">
        <ele>454.346418</ele>
        <time>2025-09-13T07:51:40.665Z</time>
      </trkpt>
      <trkpt lat="45.57493" lon="4.63716">
        <ele>454.304342</ele>
        <time>2025-09-13T07:51:43.676Z</time>
      </trkpt>
      <trkpt lat="45.57481" lon="4.63717">
        <ele>454.258048</ele>
        <time>2025-09-13T07:51:46.645Z</time>
      </trkpt>
      <trkpt lat="45.5747" lon="4.63712">
        <ele>454.213033</ele>
        <time>2025-09-13T07:51:49.651Z</time>
      </trkpt>
      <trkpt lat="45.57461" lon="4.63704">
        <ele>454.175058</ele>
        <time>2025-09-13T07:51:52.646Z</time>
      </trkpt>
      <trkpt lat="45.57452" lon="4.63703">
        <ele>454.138913</ele>
        <time>2025-09-13T07:51:55.658Z</time>
      </trkpt>
      <trkpt lat="45.57441" lon="4.63707">
        <ele>454.09615</ele>
        <time>2025-09-13T07:51:58.656Z</time>
      </trkpt>
      <trkpt lat="45.57428" lon="4.63704">
        <ele>454.047916</ele>
        <time>2025-09-13T07:52:01.652Z</time>
      </trkpt>
      <trkpt lat="45.57421" lon="4.63689">
        <ele>454.001323</ele>
        <time>2025-09-13T07:52:04.660Z</time>
      </trkpt>
      <trkpt lat="45.57418" lon="4.63673">
        <ele>453.958118</ele>
        <time>2025-09-13T07:52:07.663Z</time>
      </trkpt>
      <trkpt lat="45.57415" lon="4.63657">
        <ele>453.914437</ele>
        <time>2025-09-13T07:52:10.657Z</time>
      </trkpt>
      <trkpt lat="45.57413" lon="4.63641">
        <ele>453.870139</ele>
        <time>2025-09-13T07:52:13.665Z</time>
      </trkpt>
      <trkpt lat="45.57411" lon="4.63625">
        <ele>453.829028</ele>
        <time>2025-09-13T07:52:16.659Z</time>
      </trkpt>
      <trkpt lat="45.57409" lon="4.63611">
        <ele>453.789538</ele>
        <time>2025-09-13T07:52:19.667Z</time>
      </trkpt>
      <trkpt lat="45.57408" lon="4.63597">
        <ele>453.754265</ele>
        <time>2025-09-13T07:52:22.657Z</time>
      </trkpt>
      <trkpt lat="45.57407" lon="4.63584">
        <ele>453.719378</ele>
        <time>2025-09-13T07:52:25.658Z</time>
      </trkpt>
      <trkpt lat="45.57406" lon="4.63569">
        <ele>453.642653</ele>
        <time>2025-09-13T07:52:29.648Z</time>
      </trkpt>
      <trkpt lat="45.57405" lon="4.63552">
        <ele>453.470159</ele>
        <time>2025-09-13T07:52:33.645Z</time>
      </trkpt>
      <trkpt lat="45.57403" lon="4.63539">
        <ele>453.328961</ele>
        <time>2025-09-13T07:52:36.642Z</time>
      </trkpt>
      <trkpt lat="45.57402" lon="4.63524">
        <ele>453.169643</ele>
        <time>2025-09-13T07:52:40.642Z</time>
      </trkpt>
      <trkpt lat="45.574" lon="4.63509">
        <ele>453.008501</ele>
        <time>2025-09-13T07:52:44.640Z</time>
      </trkpt>
      <trkpt lat="45.57396" lon="4.63495">
        <ele>452.844073</ele>
        <time>2025-09-13T07:52:47.647Z</time>
      </trkpt>
      <trkpt lat="45.57389" lon="4.63482">
        <ele>452.675866</ele>
        <time>2025-09-13T07:52:50.652Z</time>
      </trkpt>
      <trkpt lat="45.57383" lon="4.63472">
        <ele>452.538971</ele>
        <time>2025-09-13T07:52:53.663Z</time>
      </trkpt>
      <trkpt lat="45.57376" lon="4.63462">
        <ele>452.394627</ele>
        <time>2025-09-13T07:52:56.643Z</time>
      </trkpt>
      <trkpt lat="45.57368" lon="4.63453">
        <ele>452.239518</ele>
        <time>2025-09-13T07:53:00.653Z</time>
      </trkpt>
      <trkpt lat="45.57359" lon="4.63445">
        <ele>452.08157</ele>
        <time>2025-09-13T07:53:05.650Z</time>
      </trkpt>
      <trkpt lat="45.57351" lon="4.63438">
        <ele>451.936994</ele>
        <time>2025-09-13T07:53:09.657Z</time>
      </trkpt>
      <trkpt lat="45.57342" lon="4.63431">
        <ele>451.782356</ele>
        <time>2025-09-13T07:53:13.644Z</time>
      </trkpt>
      <trkpt lat="45.5733" lon="4.63425">
        <ele>451.600906</ele>
        <time>2025-09-13T07:53:17.643Z</time>
      </trkpt>
      <trkpt lat="45.57321" lon="4.6342">
        <ele>451.445627</ele>
        <time>2025-09-13T07:53:21.649Z</time>
      </trkpt>
      <trkpt lat="45.5731" lon="4.63413">
        <ele>451.274262</ele>
        <time>2025-09-13T07:53:25.650Z</time>
      </trkpt>
      <trkpt lat="45.57302" lon="4.63406">
        <ele>451.125289</ele>
        <time>2025-09-13T07:53:29.664Z</time>
      </trkpt>
      <trkpt lat="45.57293" lon="4.63396">
        <ele>450.95718</ele>
        <time>2025-09-13T07:53:33.660Z</time>
      </trkpt>
      <trkpt lat="45.57284" lon="4.63389">
        <ele>450.749663</ele>
        <time>2025-09-13T07:53:37.655Z</time>
      </trkpt>
      <trkpt lat="45.57275" lon="4.63381">
        <ele>450.529958</ele>
        <time>2025-09-13T07:53:41.668Z</time>
      </trkpt>
      <trkpt lat="45.57265" lon="4.63373">
        <ele>450.311621</ele>
        <time>2025-09-13T07:53:45.667Z</time>
      </trkpt>
      <trkpt lat="45.57257" lon="4.63366">
        <ele>450.134051</ele>
        <time>2025-09-13T07:53:49.666Z</time>
      </trkpt>
      <trkpt lat="45.57252" lon="4.63353">
        <ele>449.941291</ele>
        <time>2025-09-13T07:53:53.667Z</time>
      </trkpt>
      <trkpt lat="45.57254" lon="4.63337">
        <ele>449.716121</ele>
        <time>2025-09-13T07:53:57.661Z</time>
      </trkpt>
      <trkpt lat="45.57255" lon="4.63321">
        <ele>449.502148</ele>
        <time>2025-09-13T07:54:01.654Z</time>
      </trkpt>
      <trkpt lat="45.57255" lon="4.63305">
        <ele>449.280391</ele>
        <time>2025-09-13T07:54:05.659Z</time>
      </trkpt>
      <trkpt lat="45.57255" lon="4.63289">
        <ele>449.062749</ele>
        <time>2025-09-13T07:54:09.656Z</time>
      </trkpt>
      <trkpt lat="45.57255" lon="4.63274">
        <ele>448.856049</ele>
        <time>2025-09-13T07:54:13.655Z</time>
      </trkpt>
      <trkpt lat="45.57255" lon="4.63259">
        <ele>448.646611</ele>
        <time>2025-09-13T07:54:17.673Z</time>
      </trkpt>
      <trkpt lat="45.57255" lon="4.63242">
        <ele>448.420756</ele>
        <time>2025-09-13T07:54:21.652Z</time>
      </trkpt>
      <trkpt lat="45.57255" lon="4.63226">
        <ele>448.192156</ele>
        <time>2025-09-13T07:54:25.645Z</time>
      </trkpt>
      <trkpt lat="45.57255" lon="4.6321">
        <ele>447.974505</ele>
        <time>2025-09-13T07:54:29.640Z</time>
      </trkpt>
      <trkpt lat="45.57255" lon="4.63197">
        <ele>447.796516</ele>
        <time>2025-09-13T07:54:32.642Z</time>
      </trkpt>
      <trkpt lat="45.57256" lon="4.6318">
        <ele>447.563522</ele>
        <time>2025-09-13T07:54:36.645Z</time>
      </trkpt>
      <trkpt lat="45.57256" lon="4.63164">
        <ele>447.511399</ele>
        <time>2025-09-13T07:54:40.639Z</time>
      </trkpt>
      <trkpt lat="45.57255" lon="4.63151">
        <ele>447.568888</ele>
        <time>2025-09-13T07:54:44.654Z</time>
      </trkpt>
      <trkpt lat="45.57245" lon="4.63141">
        <ele>447.643507</ele>
        <time>2025-09-13T07:54:48.666Z</time>
      </trkpt>
      <trkpt lat="45.57242" lon="4.63128">
        <ele>447.703677</ele>
        <time>2025-09-13T07:54:51.675Z</time>
      </trkpt>
      <trkpt lat="45.57249" lon="4.63114">
        <ele>447.781828</ele>
        <time>2025-09-13T07:54:54.659Z</time>
      </trkpt>
      <trkpt lat="45.57257" lon="4.63101">
        <ele>447.856382</ele>
        <time>2025-09-13T07:54:57.646Z</time>
      </trkpt>
      <trkpt lat="45.57264" lon="4.63087">
        <ele>447.930567</ele>
        <time>2025-09-13T07:55:00.646Z</time>
      </trkpt>
      <trkpt lat="45.57271" lon="4.63074">
        <ele>448.00378</ele>
        <time>2025-09-13T07:55:03.642Z</time>
      </trkpt>
      <trkpt lat="45.57278" lon="4.63063">
        <ele>448.069694</ele>
        <time>2025-09-13T07:55:06.662Z</time>
      </trkpt>
      <trkpt lat="45.57284" lon="4.63052">
        <ele>448.133547</ele>
        <time>2025-09-13T07:55:09.654Z</time>
      </trkpt>
      <trkpt lat="45.57291" lon="4.63042">
        <ele>448.194077</ele>
        <time>2025-09-13T07:55:12.669Z</time>
      </trkpt>
      <trkpt lat="45.57298" lon="4.63033">
        <ele>448.25456</ele>
        <time>2025-09-13T07:55:15.657Z</time>
      </trkpt>
      <trkpt lat="45.57305" lon="4.63023">
        <ele>448.316159</ele>
        <time>2025-09-13T07:55:18.655Z</time>
      </trkpt>
      <trkpt lat="45.57312" lon="4.63013">
        <ele>448.379064</ele>
        <time>2025-09-13T07:55:21.651Z</time>
      </trkpt>
      <trkpt lat="45.57319" lon="4.63004">
        <ele>448.437235</ele>
        <time>2025-09-13T07:55:24.662Z</time>
      </trkpt>
      <trkpt lat="45.57327" lon="4.62996">
        <ele>448.496097</ele>
        <time>2025-09-13T07:55:27.662Z</time>
      </trkpt>
      <trkpt lat="45.57336" lon="4.62985">
        <ele>448.570042</ele>
        <time>2025-09-13T07:55:31.653Z</time>
      </trkpt>
      <trkpt lat="45.57343" lon="4.62978">
        <ele>448.729171</ele>
        <time>2025-09-13T07:55:34.660Z</time>
      </trkpt>
      <trkpt lat="45.57352" lon="4.62967">
        <ele>449.069358</ele>
        <time>2025-09-13T07:55:38.660Z</time>
      </trkpt>
      <trkpt lat="45.57358" lon="4.62958">
        <ele>449.335572</ele>
        <time>2025-09-13T07:55:41.655Z</time>
      </trkpt>
      <trkpt lat="45.57365" lon="4.62949">
        <ele>449.623176</ele>
        <time>2025-09-13T07:55:44.654Z</time>
      </trkpt>
      <trkpt lat="45.57373" lon="4.6294">
        <ele>449.902001</ele>
        <time>2025-09-13T07:55:47.663Z</time>
      </trkpt>
      <trkpt lat="45.57382" lon="4.62931">
        <ele>450.238041</ele>
        <time>2025-09-13T07:55:51.654Z</time>
      </trkpt>
      <trkpt lat="45.57391" lon="4.62923">
        <ele>450.554401</ele>
        <time>2025-09-13T07:55:55.665Z</time>
      </trkpt>
      <trkpt lat="45.57399" lon="4.62915">
        <ele>450.82781</ele>
        <time>2025-09-13T07:55:58.652Z</time>
      </trkpt>
      <trkpt lat="45.57407" lon="4.62909">
        <ele>451.105444</ele>
        <time>2025-09-13T07:56:01.658Z</time>
      </trkpt>
      <trkpt lat="45.57414" lon="4.629">
        <ele>451.3922</ele>
        <time>2025-09-13T07:56:04.648Z</time>
      </trkpt>
      <trkpt lat="45.57422" lon="4.62887">
        <ele>451.750216</ele>
        <time>2025-09-13T07:56:08.667Z</time>
      </trkpt>
      <trkpt lat="45.57426" lon="4.62872">
        <ele>452.080145</ele>
        <time>2025-09-13T07:56:12.663Z</time>
      </trkpt>
      <trkpt lat="45.57426" lon="4.62857">
        <ele>452.40075</ele>
        <time>2025-09-13T07:56:16.655Z</time>
      </trkpt>
      <trkpt lat="45.57424" lon="4.62842">
        <ele>452.718301</ele>
        <time>2025-09-13T07:56:20.647Z</time>
      </trkpt>
      <trkpt lat="45.57423" lon="4.62827">
        <ele>453.032675</ele>
        <time>2025-09-13T07:56:24.658Z</time>
      </trkpt>
      <trkpt lat="45.57425" lon="4.62812">
        <ele>453.333381</ele>
        <time>2025-09-13T07:56:28.652Z</time>
      </trkpt>
      <trkpt lat="45.57428" lon="4.62799">
        <ele>453.635876</ele>
        <time>2025-09-13T07:56:32.649Z</time>
      </trkpt>
      <trkpt lat="45.57432" lon="4.62787">
        <ele>453.905181</ele>
        <time>2025-09-13T07:56:36.645Z</time>
      </trkpt>
      <trkpt lat="45.57438" lon="4.62777">
        <ele>454.571261</ele>
        <time>2025-09-13T07:56:40.653Z</time>
      </trkpt>
      <trkpt lat="45.57446" lon="4.62767">
        <ele>455.41467</ele>
        <time>2025-09-13T07:56:45.651Z</time>
      </trkpt>
      <trkpt lat="45.57455" lon="4.62757">
        <ele>456.331585</ele>
        <time>2025-09-13T07:56:50.653Z</time>
      </trkpt>
      <trkpt lat="45.57464" lon="4.62747">
        <ele>457.184611</ele>
        <time>2025-09-13T07:56:54.651Z</time>
      </trkpt>
      <trkpt lat="45.57472" lon="4.62738">
        <ele>458.027309</ele>
        <time>2025-09-13T07:56:58.651Z</time>
      </trkpt>
      <trkpt lat="45.57479" lon="4.62728">
        <ele>458.801346</ele>
        <time>2025-09-13T07:57:02.640Z</time>
      </trkpt>
      <trkpt lat="45.57487" lon="4.62719">
        <ele>459.588069</ele>
        <time>2025-09-13T07:57:06.639Z</time>
      </trkpt>
      <trkpt lat="45.57494" lon="4.62708">
        <ele>460.414068</ele>
        <time>2025-09-13T07:57:10.644Z</time>
      </trkpt>
      <trkpt lat="45.57502" lon="4.62698">
        <ele>461.264278</ele>
        <time>2025-09-13T07:57:14.650Z</time>
      </trkpt>
      <trkpt lat="45.57509" lon="4.62686">
        <ele>462.134583</ele>
        <time>2025-09-13T07:57:18.673Z</time>
      </trkpt>
      <trkpt lat="45.57517" lon="4.62676">
        <ele>462.960046</ele>
        <time>2025-09-13T07:57:22.643Z</time>
      </trkpt>
      <trkpt lat="45.57524" lon="4.62666">
        <ele>463.715067</ele>
        <time>2025-09-13T07:57:26.645Z</time>
      </trkpt>
      <trkpt lat="45.5753" lon="4.62656">
        <ele>464.48348</ele>
        <time>2025-09-13T07:57:30.656Z</time>
      </trkpt>
      <trkpt lat="45.57537" lon="4.62647">
        <ele>465.212373</ele>
        <time>2025-09-13T07:57:34.642Z</time>
      </trkpt>
      <trkpt lat="45.57544" lon="4.62636">
        <ele>466.01258</ele>
        <time>2025-09-13T07:57:39.656Z</time>
      </trkpt>
      <trkpt lat="45.5755" lon="4.62624">
        <ele>466.860594</ele>
        <time>2025-09-13T07:57:44.653Z</time>
      </trkpt>
      <trkpt lat="45.57557" lon="4.62613">
        <ele>467.659204</ele>
        <time>2025-09-13T07:57:49.661Z</time>
      </trkpt>
      <trkpt lat="45.57563" lon="4.62603">
        <ele>468.173363</ele>
        <time>2025-09-13T07:57:54.656Z</time>
      </trkpt>
      <trkpt lat="45.5757" lon="4.62578">
        <ele>468.314174</ele>
        <time>2025-09-13T07:58:42.640Z</time>
      </trkpt>
      <trkpt lat="45.57567" lon="4.62557">
        <ele>468.427873</ele>
        <time>2025-09-13T07:59:28.659Z</time>
      </trkpt>
      <trkpt lat="45.57561" lon="4.6254">
        <ele>468.525998</ele>
        <time>2025-09-13T07:59:31.654Z</time>
      </trkpt>
      <trkpt lat="45.57557" lon="4.62526">
        <ele>468.600734</ele>
        <time>2025-09-13T07:59:33.644Z</time>
      </trkpt>
      <trkpt lat="45.57553" lon="4.62512">
        <ele>468.677729</ele>
        <time>2025-09-13T07:59:35.644Z</time>
      </trkpt>
      <trkpt lat="45.57549" lon="4.62499">
        <ele>468.752942</ele>
        <time>2025-09-13T07:59:37.646Z</time>
      </trkpt>
      <trkpt lat="45.57545" lon="4.62486">
        <ele>468.827702</ele>
        <time>2025-09-13T07:59:39.635Z</time>
      </trkpt>
      <trkpt lat="45.57541" lon="4.62473">
        <ele>468.902016</ele>
        <time>2025-09-13T07:59:41.642Z</time>
      </trkpt>
      <trkpt lat="45.57539" lon="4.6246">
        <ele>468.974676</ele>
        <time>2025-09-13T07:59:43.649Z</time>
      </trkpt>
      <trkpt lat="45.57537" lon="4.62446">
        <ele>469.046457</ele>
        <time>2025-09-13T07:59:45.657Z</time>
      </trkpt>
      <trkpt lat="45.57537" lon="4.62428">
        <ele>469.141024</ele>
        <time>2025-09-13T07:59:48.675Z</time>
      </trkpt>
      <trkpt lat="45.57538" lon="4.62413">
        <ele>469.218051</ele>
        <time>2025-09-13T07:59:52.649Z</time>
      </trkpt>
      <trkpt lat="45.57534" lon="4.62398">
        <ele>469.299479</ele>
        <time>2025-09-13T08:00:05.640Z</time>
      </trkpt>
      <trkpt lat="45.57527" lon="4.6239">
        <ele>469.370489</ele>
        <time>2025-09-13T08:00:08.668Z</time>
      </trkpt>
      <trkpt lat="45.57517" lon="4.62381">
        <ele>469.453551</ele>
        <time>2025-09-13T08:00:11.644Z</time>
      </trkpt>
      <trkpt lat="45.57508" lon="4.6237">
        <ele>468.455958</ele>
        <time>2025-09-13T08:00:14.662Z</time>
      </trkpt>
      <trkpt lat="45.57497" lon="4.62358">
        <ele>466.771539</ele>
        <time>2025-09-13T08:00:17.663Z</time>
      </trkpt>
      <trkpt lat="45.5749" lon="4.6235">
        <ele>465.514774</ele>
        <time>2025-09-13T08:00:19.648Z</time>
      </trkpt>
      <trkpt lat="45.57481" lon="4.6234">
        <ele>464.060996</ele>
        <time>2025-09-13T08:00:21.648Z</time>
      </trkpt>
      <trkpt lat="45.57472" lon="4.6233">
        <ele>462.609718</ele>
        <time>2025-09-13T08:00:23.634Z</time>
      </trkpt>
      <trkpt lat="45.57463" lon="4.6232">
        <ele>461.195331</ele>
        <time>2025-09-13T08:00:25.643Z</time>
      </trkpt>
      <trkpt lat="45.57453" lon="4.62309">
        <ele>459.551465</ele>
        <time>2025-09-13T08:00:27.640Z</time>
      </trkpt>
      <trkpt lat="45.57444" lon="4.623">
        <ele>458.111707</ele>
        <time>2025-09-13T08:00:29.643Z</time>
      </trkpt>
      <trkpt lat="45.57435" lon="4.62291">
        <ele>456.698281</ele>
        <time>2025-09-13T08:00:31.649Z</time>
      </trkpt>
      <trkpt lat="45.57426" lon="4.62281">
        <ele>455.272809</ele>
        <time>2025-09-13T08:00:33.636Z</time>
      </trkpt>
      <trkpt lat="45.57415" lon="4.62271">
        <ele>453.537332</ele>
        <time>2025-09-13T08:00:35.645Z</time>
      </trkpt>
      <trkpt lat="45.57406" lon="4.62263">
        <ele>452.216917</ele>
        <time>2025-09-13T08:00:37.664Z</time>
      </trkpt>
      <trkpt lat="45.57397" lon="4.62259">
        <ele>451.006854</ele>
        <time>2025-09-13T08:00:39.672Z</time>
      </trkpt>
      <trkpt lat="45.57387" lon="4.6226">
        <ele>449.642911</ele>
        <time>2025-09-13T08:00:41.668Z</time>
      </trkpt>
      <trkpt lat="45.57375" lon="4.62259">
        <ele>448.110131</ele>
        <time>2025-09-13T08:00:43.663Z</time>
      </trkpt>
      <trkpt lat="45.57361" lon="4.62257">
        <ele>446.360907</ele>
        <time>2025-09-13T08:00:46.660Z</time>
      </trkpt>
      <trkpt lat="45.5735" lon="4.62253">
        <ele>446.803654</ele>
        <time>2025-09-13T08:00:48.663Z</time>
      </trkpt>
      <trkpt lat="45.57341" lon="4.62249">
        <ele>447.224148</ele>
        <time>2025-09-13T08:00:50.658Z</time>
      </trkpt>
      <trkpt lat="45.57329" lon="4.62244">
        <ele>447.726046</ele>
        <time>2025-09-13T08:00:53.648Z</time>
      </trkpt>
      <trkpt lat="45.57319" lon="4.62243">
        <ele>448.178519</ele>
        <time>2025-09-13T08:00:56.650Z</time>
      </trkpt>
      <trkpt lat="45.5731" lon="4.62246">
        <ele>448.563083</ele>
        <time>2025-09-13T08:01:00.646Z</time>
      </trkpt>
      <trkpt lat="45.573" lon="4.62247">
        <ele>448.958903</ele>
        <time>2025-09-13T08:01:18.669Z</time>
      </trkpt>
      <trkpt lat="45.57316" lon="4.62243">
        <ele>449.645981</ele>
        <time>2025-09-13T08:02:47.656Z</time>
      </trkpt>
      <trkpt lat="45.57327" lon="4.62242">
        <ele>450.095273</ele>
        <time>2025-09-13T08:02:51.669Z</time>
      </trkpt>
      <trkpt lat="45.57336" lon="4.62246">
        <ele>450.518287</ele>
        <time>2025-09-13T08:02:55.656Z</time>
      </trkpt>
      <trkpt lat="45.57346" lon="4.62251">
        <ele>450.938782</ele>
        <time>2025-09-13T08:03:00.665Z</time>
      </trkpt>
      <trkpt lat="45.57355" lon="4.62254">
        <ele>451.318128</ele>
        <time>2025-09-13T08:03:06.640Z</time>
      </trkpt>
      <trkpt lat="45.57364" lon="4.62257">
        <ele>451.701046</ele>
        <time>2025-09-13T08:03:21.646Z</time>
      </trkpt>
      <trkpt lat="45.57374" lon="4.6226">
        <ele>452.154198</ele>
        <time>2025-09-13T08:03:30.652Z</time>
      </trkpt>
      <trkpt lat="45.57385" lon="4.6226">
        <ele>452.590013</ele>
        <time>2025-09-13T08:03:33.646Z</time>
      </trkpt>
      <trkpt lat="45.57395" lon="4.62259">
        <ele>453.014031</ele>
        <time>2025-09-13T08:03:36.639Z</time>
      </trkpt>
      <trkpt lat="45.57406" lon="4.62264">
        <ele>453.48922</ele>
        <time>2025-09-13T08:03:40.652Z</time>
      </trkpt>
      <trkpt lat="45.57415" lon="4.62271">
        <ele>453.984778</ele>
        <time>2025-09-13T08:03:43.643Z</time>
      </trkpt>
      <trkpt lat="45.57423" lon="4.62279">
        <ele>454.966331</ele>
        <time>2025-09-13T08:03:46.648Z</time>
      </trkpt>
      <trkpt lat="45.57431" lon="4.62286">
        <ele>455.920487</ele>
        <time>2025-09-13T08:03:49.658Z</time>
      </trkpt>
      <trkpt lat="45.57439" lon="4.62293">
        <ele>456.831032</ele>
        <time>2025-09-13T08:03:52.653Z</time>
      </trkpt>
      <trkpt lat="45.57446" lon="4.62301">
        <ele>457.74008</ele>
        <time>2025-09-13T08:03:55.665Z</time>
      </trkpt>
      <trkpt lat="45.57455" lon="4.62311">
        <ele>458.866571</ele>
        <time>2025-09-13T08:03:59.652Z</time>
      </trkpt>
      <trkpt lat="45.57463" lon="4.62319">
        <ele>459.78768</ele>
        <time>2025-09-13T08:04:02.668Z</time>
      </trkpt>
      <trkpt lat="45.57472" lon="4.62326">
        <ele>460.766092</ele>
        <time>2025-09-13T08:04:05.650Z</time>
      </trkpt>
      <trkpt lat="45.57481" lon="4.62336">
        <ele>461.91374</ele>
        <time>2025-09-13T08:04:09.664Z</time>
      </trkpt>
      <trkpt lat="45.57488" lon="4.62345">
        <ele>462.900514</ele>
        <time>2025-09-13T08:04:13.652Z</time>
      </trkpt>
      <trkpt lat="45.57496" lon="4.62354">
        <ele>463.825151</ele>
        <time>2025-09-13T08:04:17.640Z</time>
      </trkpt>
      <trkpt lat="45.57503" lon="4.62362">
        <ele>464.724384</ele>
        <time>2025-09-13T08:04:21.655Z</time>
      </trkpt>
      <trkpt lat="45.57511" lon="4.62372">
        <ele>465.817529</ele>
        <time>2025-09-13T08:04:26.674Z</time>
      </trkpt>
      <trkpt lat="45.57519" lon="4.62382">
        <ele>466.832711</ele>
        <time>2025-09-13T08:04:30.663Z</time>
      </trkpt>
      <trkpt lat="45.57527" lon="4.6239">
        <ele>467.846506</ele>
        <time>2025-09-13T08:04:34.652Z</time>
      </trkpt>
      <trkpt lat="45.57535" lon="4.62398">
        <ele>468.779792</ele>
        <time>2025-09-13T08:04:38.651Z</time>
      </trkpt>
      <trkpt lat="45.57543" lon="4.62392">
        <ele>469.696202</ele>
        <time>2025-09-13T08:09:32.642Z</time>
      </trkpt>
      <trkpt lat="45.57546" lon="4.62375">
        <ele>470.956919</ele>
        <time>2025-09-13T08:12:47.651Z</time>
      </trkpt>
      <trkpt lat="45.5755" lon="4.62361">
        <ele>471.555429</ele>
        <time>2025-09-13T08:12:52.643Z</time>
      </trkpt>
      <trkpt lat="45.57554" lon="4.62348">
        <ele>471.271262</ele>
        <time>2025-09-13T08:12:56.643Z</time>
      </trkpt>
      <trkpt lat="45.57558" lon="4.62334">
        <ele>470.965799</ele>
        <time>2025-09-13T08:13:01.648Z</time>
      </trkpt>
      <trkpt lat="45.57562" lon="4.62319">
        <ele>470.644674</ele>
        <time>2025-09-13T08:13:05.650Z</time>
      </trkpt>
      <trkpt lat="45.57565" lon="4.62305">
        <ele>470.337211</ele>
        <time>2025-09-13T08:13:09.660Z</time>
      </trkpt>
      <trkpt lat="45.57569" lon="4.6229">
        <ele>469.997305</ele>
        <time>2025-09-13T08:13:13.644Z</time>
      </trkpt>
      <trkpt lat="45.57573" lon="4.62277">
        <ele>469.711207</ele>
        <time>2025-09-13T08:13:16.636Z</time>
      </trkpt>
      <trkpt lat="45.57577" lon="4.62263">
        <ele>469.397455</ele>
        <time>2025-09-13T08:13:19.663Z</time>
      </trkpt>
      <trkpt lat="45.57581" lon="4.62249">
        <ele>469.084817</ele>
        <time>2025-09-13T08:13:22.656Z</time>
      </trkpt>
      <trkpt lat="45.57588" lon="4.62216">
        <ele>468.381692</ele>
        <time>2025-09-13T08:13:46.654Z</time>
      </trkpt>
      <trkpt lat="45.57593" lon="4.62205">
        <ele>468.105935</ele>
        <time>2025-09-13T08:13:49.641Z</time>
      </trkpt>
      <trkpt lat="45.57595" lon="4.62191">
        <ele>467.822968</ele>
        <time>2025-09-13T08:13:59.628Z</time>
      </trkpt>
      <trkpt lat="45.57597" lon="4.62176">
        <ele>467.517264</ele>
        <time>2025-09-13T08:14:03.638Z</time>
      </trkpt>
      <trkpt lat="45.57599" lon="4.62162">
        <ele>467.207736</ele>
        <time>2025-09-13T08:14:06.632Z</time>
      </trkpt>
      <trkpt lat="45.57601" lon="4.62147">
        <ele>466.902576</ele>
        <time>2025-09-13T08:14:09.642Z</time>
      </trkpt>
      <trkpt lat="45.57603" lon="4.62131">
        <ele>466.577192</ele>
        <time>2025-09-13T08:14:12.632Z</time>
      </trkpt>
      <trkpt lat="45.57605" lon="4.62115">
        <ele>465.835416</ele>
        <time>2025-09-13T08:14:15.660Z</time>
      </trkpt>
      <trkpt lat="45.57608" lon="4.62098">
        <ele>464.441873</ele>
        <time>2025-09-13T08:14:18.654Z</time>
      </trkpt>
      <trkpt lat="45.57609" lon="4.62083">
        <ele>463.235234</ele>
        <time>2025-09-13T08:14:21.643Z</time>
      </trkpt>
      <trkpt lat="45.57603" lon="4.62068">
        <ele>461.831453</ele>
        <time>2025-09-13T08:14:24.664Z</time>
      </trkpt>
      <trkpt lat="45.57597" lon="4.62059">
        <ele>460.773326</ele>
        <time>2025-09-13T08:14:26.639Z</time>
      </trkpt>
      <trkpt lat="45.57587" lon="4.62047">
        <ele>459.301338</ele>
        <time>2025-09-13T08:14:29.651Z</time>
      </trkpt>
      <trkpt lat="45.57577" lon="4.62035">
        <ele>457.765058</ele>
        <time>2025-09-13T08:14:32.647Z</time>
      </trkpt>
      <trkpt lat="45.57572" lon="4.62022">
        <ele>456.666914</ele>
        <time>2025-09-13T08:14:34.632Z</time>
      </trkpt>
      <trkpt lat="45.57568" lon="4.62009">
        <ele>455.486277</ele>
        <time>2025-09-13T08:14:36.657Z</time>
      </trkpt>
      <trkpt lat="45.57566" lon="4.61996">
        <ele>454.413928</ele>
        <time>2025-09-13T08:14:38.637Z</time>
      </trkpt>
      <trkpt lat="45.57563" lon="4.61978">
        <ele>452.924468</ele>
        <time>2025-09-13T08:14:41.636Z</time>
      </trkpt>
      <trkpt lat="45.57564" lon="4.61965">
        <ele>451.836252</ele>
        <time>2025-09-13T08:14:43.660Z</time>
      </trkpt>
      <trkpt lat="45.57565" lon="4.6195">
        <ele>450.669642</ele>
        <time>2025-09-13T08:14:45.656Z</time>
      </trkpt>
      <trkpt lat="45.57565" lon="4.61936">
        <ele>449.525099</ele>
        <time>2025-09-13T08:14:47.646Z</time>
      </trkpt>
      <trkpt lat="45.57564" lon="4.61922">
        <ele>448.425943</ele>
        <time>2025-09-13T08:14:49.663Z</time>
      </trkpt>
      <trkpt lat="45.57563" lon="4.61908">
        <ele>447.23648</ele>
        <time>2025-09-13T08:14:51.642Z</time>
      </trkpt>
      <trkpt lat="45.57563" lon="4.61893">
        <ele>446.074702</ele>
        <time>2025-09-13T08:14:53.642Z</time>
      </trkpt>
      <trkpt lat="45.57562" lon="4.61877">
        <ele>444.982164</ele>
        <time>2025-09-13T08:14:55.643Z</time>
      </trkpt>
      <trkpt lat="45.57561" lon="4.61863">
        <ele>444.107358</ele>
        <time>2025-09-13T08:14:57.648Z</time>
      </trkpt>
      <trkpt lat="45.57557" lon="4.61849">
        <ele>443.150208</ele>
        <time>2025-09-13T08:15:00.657Z</time>
      </trkpt>
      <trkpt lat="45.57556" lon="4.61824">
        <ele>441.565398</ele>
        <time>2025-09-13T08:15:24.655Z</time>
      </trkpt>
      <trkpt lat="45.57564" lon="4.61815">
        <ele>440.661173</ele>
        <time>2025-09-13T08:15:27.636Z</time>
      </trkpt>
      <trkpt lat="45.57573" lon="4.61804">
        <ele>439.581378</ele>
        <time>2025-09-13T08:15:31.638Z</time>
      </trkpt>
      <trkpt lat="45.57583" lon="4.61791">
        <ele>438.385532</ele>
        <time>2025-09-13T08:15:34.641Z</time>
      </trkpt>
      <trkpt lat="45.57592" lon="4.6178">
        <ele>437.309727</ele>
        <time>2025-09-13T08:15:36.642Z</time>
      </trkpt>
      <trkpt lat="45.57597" lon="4.61764">
        <ele>436.265445</ele>
        <time>2025-09-13T08:15:39.669Z</time>
      </trkpt>
      <trkpt lat="45.57594" lon="4.6175">
        <ele>435.354847</ele>
        <time>2025-09-13T08:15:42.656Z</time>
      </trkpt>
      <trkpt lat="45.57585" lon="4.61739">
        <ele>434.311352</ele>
        <time>2025-09-13T08:15:46.651Z</time>
      </trkpt>
      <trkpt lat="45.57576" lon="4.61728">
        <ele>433.227549</ele>
        <time>2025-09-13T08:15:49.647Z</time>
      </trkpt>
      <trkpt lat="45.57568" lon="4.61719">
        <ele>432.288226</ele>
        <time>2025-09-13T08:15:52.640Z</time>
      </trkpt>
      <trkpt lat="45.5756" lon="4.6171">
        <ele>431.377718</ele>
        <time>2025-09-13T08:15:55.646Z</time>
      </trkpt>
      <trkpt lat="45.5755" lon="4.61701">
        <ele>430.372906</ele>
        <time>2025-09-13T08:15:59.633Z</time>
      </trkpt>
      <trkpt lat="45.57543" lon="4.61691">
        <ele>429.399363</ele>
        <time>2025-09-13T08:16:04.638Z</time>
      </trkpt>
      <trkpt lat="45.57536" lon="4.6168">
        <ele>428.17404</ele>
        <time>2025-09-13T08:16:08.636Z</time>
      </trkpt>
      <trkpt lat="45.5754" lon="4.61668">
        <ele>427.068038</ele>
        <time>2025-09-13T08:16:11.642Z</time>
      </trkpt>
      <trkpt lat="45.57547" lon="4.61656">
        <ele>425.822604</ele>
        <time>2025-09-13T08:16:15.642Z</time>
      </trkpt>
      <trkpt lat="45.57552" lon="4.61643">
        <ele>424.593376</ele>
        <time>2025-09-13T08:16:18.637Z</time>
      </trkpt>
      <trkpt lat="45.57558" lon="4.61633">
        <ele>423.457608</ele>
        <time>2025-09-13T08:16:21.639Z</time>
      </trkpt>
      <trkpt lat="45.57564" lon="4.61624">
        <ele>422.358937</ele>
        <time>2025-09-13T08:16:24.634Z</time>
      </trkpt>
      <trkpt lat="45.57571" lon="4.61614">
        <ele>421.227547</ele>
        <time>2025-09-13T08:16:27.638Z</time>
      </trkpt>
      <trkpt lat="45.57578" lon="4.61605">
        <ele>420.111091</ele>
        <time>2025-09-13T08:16:30.639Z</time>
      </trkpt>
      <trkpt lat="45.57585" lon="4.61594">
        <ele>418.83442</ele>
        <time>2025-09-13T08:16:33.638Z</time>
      </trkpt>
      <trkpt lat="45.57592" lon="4.61583">
        <ele>417.571599</ele>
        <time>2025-09-13T08:16:36.668Z</time>
      </trkpt>
      <trkpt lat="45.57602" lon="4.61575">
        <ele>416.205161</ele>
        <time>2025-09-13T08:16:39.659Z</time>
      </trkpt>
      <trkpt lat="45.57611" lon="4.61569">
        <ele>415.032006</ele>
        <time>2025-09-13T08:16:41.646Z</time>
      </trkpt>
      <trkpt lat="45.57621" lon="4.61564">
        <ele>413.800772</ele>
        <time>2025-09-13T08:16:43.650Z</time>
      </trkpt>
      <trkpt lat="45.57632" lon="4.61561">
        <ele>412.454354</ele>
        <time>2025-09-13T08:16:45.645Z</time>
      </trkpt>
      <trkpt lat="45.57643" lon="4.61559">
        <ele>411.15116</ele>
        <time>2025-09-13T08:16:47.651Z</time>
      </trkpt>
      <trkpt lat="45.57652" lon="4.61557">
        <ele>410.032358</ele>
        <time>2025-09-13T08:16:49.653Z</time>
      </trkpt>
      <trkpt lat="45.57662" lon="4.61554">
        <ele>408.826633</ele>
        <time>2025-09-13T08:16:52.648Z</time>
      </trkpt>
      <trkpt lat="45.57669" lon="4.61547">
        <ele>407.884355</ele>
        <time>2025-09-13T08:16:57.643Z</time>
      </trkpt>
      <trkpt lat="45.57657" lon="4.61535">
        <ele>406.888952</ele>
        <time>2025-09-13T08:17:30.661Z</time>
      </trkpt>
      <trkpt lat="45.5765" lon="4.61519">
        <ele>405.984551</ele>
        <time>2025-09-13T08:17:42.647Z</time>
      </trkpt>
      <trkpt lat="45.57641" lon="4.6151">
        <ele>405.250232</ele>
        <time>2025-09-13T08:17:51.654Z</time>
      </trkpt>
      <trkpt lat="45.57594" lon="4.61519">
        <ele>402.054296</ele>
        <time>2025-09-13T08:17:56.654Z</time>
      </trkpt>
      <trkpt lat="45.57583" lon="4.61514">
        <ele>401.291647</ele>
        <time>2025-09-13T08:18:00.651Z</time>
      </trkpt>
      <trkpt lat="45.57571" lon="4.61513">
        <ele>400.501488</ele>
        <time>2025-09-13T08:18:05.647Z</time>
      </trkpt>
      <trkpt lat="45.5756" lon="4.61518">
        <ele>399.75134</ele>
        <time>2025-09-13T08:18:09.639Z</time>
      </trkpt>
      <trkpt lat="45.57551" lon="4.61522">
        <ele>399.062439</ele>
        <time>2025-09-13T08:18:14.644Z</time>
      </trkpt>
      <trkpt lat="45.57541" lon="4.61522">
        <ele>398.442539</ele>
        <time>2025-09-13T08:18:19.647Z</time>
      </trkpt>
      <trkpt lat="45.57531" lon="4.6152">
        <ele>397.703737</ele>
        <time>2025-09-13T08:18:26.632Z</time>
      </trkpt>
      <trkpt lat="45.57522" lon="4.6151">
        <ele>396.959332</ele>
        <time>2025-09-13T08:18:34.647Z</time>
      </trkpt>
      <trkpt lat="45.5752" lon="4.61497">
        <ele>396.351157</ele>
        <time>2025-09-13T08:18:44.641Z</time>
      </trkpt>
      <trkpt lat="45.57517" lon="4.61483">
        <ele>396.290112</ele>
        <time>2025-09-13T08:18:51.637Z</time>
      </trkpt>
      <trkpt lat="45.57524" lon="4.61472">
        <ele>397.00961</ele>
        <time>2025-09-13T08:19:04.642Z</time>
      </trkpt>
      <trkpt lat="45.57526" lon="4.61459">
        <ele>397.693048</ele>
        <time>2025-09-13T08:19:11.641Z</time>
      </trkpt>
      <trkpt lat="45.57523" lon="4.61444">
        <ele>398.462441</ele>
        <time>2025-09-13T08:19:17.628Z</time>
      </trkpt>
      <trkpt lat="45.57522" lon="4.61431">
        <ele>399.105452</ele>
        <time>2025-09-13T08:19:21.628Z</time>
      </trkpt>
      <trkpt lat="45.57524" lon="4.61418">
        <ele>399.804997</ele>
        <time>2025-09-13T08:19:34.654Z</time>
      </trkpt>
      <trkpt lat="45.57532" lon="4.61391">
        <ele>401.255492</ele>
        <time>2025-09-13T08:20:51.667Z</time>
      </trkpt>
      <trkpt lat="45.5754" lon="4.61385">
        <ele>401.915903</ele>
        <time>2025-09-13T08:20:56.660Z</time>
      </trkpt>
      <trkpt lat="45.57548" lon="4.61377">
        <ele>402.624764</ele>
        <time>2025-09-13T08:21:03.653Z</time>
      </trkpt>
      <trkpt lat="45.57542" lon="4.61364">
        <ele>403.414185</ele>
        <time>2025-09-13T08:21:08.643Z</time>
      </trkpt>
      <trkpt lat="45.57532" lon="4.61358">
        <ele>404.1806</ele>
        <time>2025-09-13T08:21:12.653Z</time>
      </trkpt>
      <trkpt lat="45.57523" lon="4.61351">
        <ele>404.916893</ele>
        <time>2025-09-13T08:21:17.635Z</time>
      </trkpt>
      <trkpt lat="45.57514" lon="4.61347">
        <ele>405.580273</ele>
        <time>2025-09-13T08:21:22.654Z</time>
      </trkpt>
      <trkpt lat="45.57507" lon="4.61339">
        <ele>406.251341</ele>
        <time>2025-09-13T08:21:28.654Z</time>
      </trkpt>
      <trkpt lat="45.57498" lon="4.61331">
        <ele>407.013358</ele>
        <time>2025-09-13T08:21:34.646Z</time>
      </trkpt>
      <trkpt lat="45.5749" lon="4.61323">
        <ele>407.666857</ele>
        <time>2025-09-13T08:21:39.630Z</time>
      </trkpt>
      <trkpt lat="45.57498" lon="4.61317">
        <ele>408.321018</ele>
        <time>2025-09-13T08:21:53.650Z</time>
      </trkpt>
      <trkpt lat="45.57507" lon="4.61321">
        <ele>409.065337</ele>
        <time>2025-09-13T08:21:59.658Z</time>
      </trkpt>
      <trkpt lat="45.57516" lon="4.61319">
        <ele>410.300093</ele>
        <time>2025-09-13T08:22:05.638Z</time>
      </trkpt>
      <trkpt lat="45.57526" lon="4.6132">
        <ele>411.616476</ele>
        <time>2025-09-13T08:22:12.647Z</time>
      </trkpt>
      <trkpt lat="45.57536" lon="4.61321">
        <ele>412.950176</ele>
        <time>2025-09-13T08:22:18.649Z</time>
      </trkpt>
      <trkpt lat="45.57546" lon="4.61324">
        <ele>414.210363</ele>
        <time>2025-09-13T08:22:24.631Z</time>
      </trkpt>
      <trkpt lat="45.57556" lon="4.61325">
        <ele>415.541014</ele>
        <time>2025-09-13T08:22:30.639Z</time>
      </trkpt>
      <trkpt lat="45.57566" lon="4.61325">
        <ele>416.815941</ele>
        <time>2025-09-13T08:22:36.651Z</time>
      </trkpt>
      <trkpt lat="45.57575" lon="4.61321">
        <ele>418.05205</ele>
        <time>2025-09-13T08:22:42.658Z</time>
      </trkpt>
      <trkpt lat="45.57581" lon="4.6131">
        <ele>419.416033</ele>
        <time>2025-09-13T08:22:49.648Z</time>
      </trkpt>
      <trkpt lat="45.57576" lon="4.61298">
        <ele>420.71303</ele>
        <time>2025-09-13T08:22:56.647Z</time>
      </trkpt>
      <trkpt lat="45.5757" lon="4.61287">
        <ele>422.027728</ele>
        <time>2025-09-13T08:23:03.628Z</time>
      </trkpt>
      <trkpt lat="45.57565" lon="4.61275">
        <ele>423.274004</ele>
        <time>2025-09-13T08:23:09.644Z</time>
      </trkpt>
      <trkpt lat="45.5756" lon="4.61264">
        <ele>424.518122</ele>
        <time>2025-09-13T08:23:15.636Z</time>
      </trkpt>
      <trkpt lat="45.57566" lon="4.61253">
        <ele>425.769849</ele>
        <time>2025-09-13T08:23:21.631Z</time>
      </trkpt>
      <trkpt lat="45.5757" lon="4.61242">
        <ele>426.975566</ele>
        <time>2025-09-13T08:23:27.643Z</time>
      </trkpt>
      <trkpt lat="45.57569" lon="4.61218">
        <ele>429.161621</ele>
        <time>2025-09-13T08:25:24.647Z</time>
      </trkpt>
      <trkpt lat="45.57567" lon="4.61202">
        <ele>430.655856</ele>
        <time>2025-09-13T08:25:29.634Z</time>
      </trkpt>
      <trkpt lat="45.57566" lon="4.61188">
        <ele>431.904767</ele>
        <time>2025-09-13T08:25:32.637Z</time>
      </trkpt>
      <trkpt lat="45.57565" lon="4.61172">
        <ele>432.81179</ele>
        <time>2025-09-13T08:25:36.639Z</time>
      </trkpt>
      <trkpt lat="45.57563" lon="4.61156">
        <ele>433.285769</ele>
        <time>2025-09-13T08:25:40.643Z</time>
      </trkpt>
      <trkpt lat="45.57562" lon="4.61143">
        <ele>433.695399</ele>
        <time>2025-09-13T08:25:44.649Z</time>
      </trkpt>
      <trkpt lat="45.57559" lon="4.61127">
        <ele>434.164322</ele>
        <time>2025-09-13T08:25:49.646Z</time>
      </trkpt>
      <trkpt lat="45.57557" lon="4.61114">
        <ele>434.568767</ele>
        <time>2025-09-13T08:25:53.635Z</time>
      </trkpt>
      <trkpt lat="45.57556" lon="4.61101">
        <ele>434.957563</ele>
        <time>2025-09-13T08:25:57.630Z</time>
      </trkpt>
      <trkpt lat="45.57569" lon="4.61082">
        <ele>435.766021</ele>
        <time>2025-09-13T08:27:48.636Z</time>
      </trkpt>
      <trkpt lat="45.57579" lon="4.61077">
        <ele>436.189273</ele>
        <time>2025-09-13T08:27:54.627Z</time>
      </trkpt>
      <trkpt lat="45.57588" lon="4.61072">
        <ele>436.628973</ele>
        <time>2025-09-13T08:28:00.626Z</time>
      </trkpt>
      <trkpt lat="45.57598" lon="4.61068">
        <ele>437.04641</ele>
        <time>2025-09-13T08:28:05.651Z</time>
      </trkpt>
      <trkpt lat="45.57607" lon="4.61064">
        <ele>437.449787</ele>
        <time>2025-09-13T08:28:09.648Z</time>
      </trkpt>
      <trkpt lat="45.57618" lon="4.6106">
        <ele>437.957862</ele>
        <time>2025-09-13T08:28:13.645Z</time>
      </trkpt>
      <trkpt lat="45.57627" lon="4.61055">
        <ele>438.378224</ele>
        <time>2025-09-13T08:28:16.642Z</time>
      </trkpt>
      <trkpt lat="45.57636" lon="4.61051">
        <ele>438.789816</ele>
        <time>2025-09-13T08:28:19.634Z</time>
      </trkpt>
      <trkpt lat="45.57645" lon="4.61046">
        <ele>439.193822</ele>
        <time>2025-09-13T08:28:22.653Z</time>
      </trkpt>
      <trkpt lat="45.57655" lon="4.61038">
        <ele>439.687223</ele>
        <time>2025-09-13T08:28:26.643Z</time>
      </trkpt>
      <trkpt lat="45.57663" lon="4.61029">
        <ele>440.106724</ele>
        <time>2025-09-13T08:28:29.646Z</time>
      </trkpt>
      <trkpt lat="45.5767" lon="4.61019">
        <ele>440.36117</ele>
        <time>2025-09-13T08:28:32.635Z</time>
      </trkpt>
      <trkpt lat="45.57677" lon="4.61009">
        <ele>440.552917</ele>
        <time>2025-09-13T08:28:35.647Z</time>
      </trkpt>
      <trkpt lat="45.57686" lon="4.61001">
        <ele>440.740785</ele>
        <time>2025-09-13T08:28:38.649Z</time>
      </trkpt>
      <trkpt lat="45.57694" lon="4.60993">
        <ele>440.928886</ele>
        <time>2025-09-13T08:28:41.635Z</time>
      </trkpt>
      <trkpt lat="45.57703" lon="4.60986">
        <ele>441.116427</ele>
        <time>2025-09-13T08:28:44.646Z</time>
      </trkpt>
      <trkpt lat="45.57712" lon="4.60978">
        <ele>441.316902</ele>
        <time>2025-09-13T08:28:47.642Z</time>
      </trkpt>
      <trkpt lat="45.5772" lon="4.6097">
        <ele>441.511769</ele>
        <time>2025-09-13T08:28:50.641Z</time>
      </trkpt>
      <trkpt lat="45.57728" lon="4.60961">
        <ele>441.702867</ele>
        <time>2025-09-13T08:28:53.629Z</time>
      </trkpt>
      <trkpt lat="45.57736" lon="4.60953">
        <ele>441.883067</ele>
        <time>2025-09-13T08:28:56.639Z</time>
      </trkpt>
      <trkpt lat="45.57743" lon="4.60946">
        <ele>442.054086</ele>
        <time>2025-09-13T08:28:59.621Z</time>
      </trkpt>
      <trkpt lat="45.57751" lon="4.60936">
        <ele>442.250991</ele>
        <time>2025-09-13T08:29:03.630Z</time>
      </trkpt>
      <trkpt lat="45.57761" lon="4.60927">
        <ele>442.462956</ele>
        <time>2025-09-13T08:29:07.645Z</time>
      </trkpt>
      <trkpt lat="45.57771" lon="4.60919">
        <ele>442.681325</ele>
        <time>2025-09-13T08:29:11.625Z</time>
      </trkpt>
      <trkpt lat="45.57781" lon="4.6091">
        <ele>442.903216</ele>
        <time>2025-09-13T08:29:15.636Z</time>
      </trkpt>
      <trkpt lat="45.57789" lon="4.60905">
        <ele>443.072812</ele>
        <time>2025-09-13T08:29:18.654Z</time>
      </trkpt>
      <trkpt lat="45.57797" lon="4.60897">
        <ele>443.250711</ele>
        <time>2025-09-13T08:29:21.627Z</time>
      </trkpt>
      <trkpt lat="45.57806" lon="4.60888">
        <ele>443.468697</ele>
        <time>2025-09-13T08:29:25.645Z</time>
      </trkpt>
      <trkpt lat="45.57817" lon="4.60882">
        <ele>443.713736</ele>
        <time>2025-09-13T08:29:29.651Z</time>
      </trkpt>
      <trkpt lat="45.57825" lon="4.60873">
        <ele>444.000422</ele>
        <time>2025-09-13T08:29:33.655Z</time>
      </trkpt>
      <trkpt lat="45.57834" lon="4.60863">
        <ele>444.29247</ele>
        <time>2025-09-13T08:29:37.639Z</time>
      </trkpt>
      <trkpt lat="45.57842" lon="4.60851">
        <ele>444.593064</ele>
        <time>2025-09-13T08:29:41.646Z</time>
      </trkpt>
      <trkpt lat="45.57848" lon="4.60838">
        <ele>444.887654</ele>
        <time>2025-09-13T08:29:45.624Z</time>
      </trkpt>
      <trkpt lat="45.57853" lon="4.60825">
        <ele>445.180241</ele>
        <time>2025-09-13T08:29:49.633Z</time>
      </trkpt>
      <trkpt lat="45.57857" lon="4.60811">
        <ele>445.456094</ele>
        <time>2025-09-13T08:29:53.632Z</time>
      </trkpt>
      <trkpt lat="45.5786" lon="4.60798">
        <ele>445.710097</ele>
        <time>2025-09-13T08:29:57.639Z</time>
      </trkpt>
      <trkpt lat="45.57864" lon="4.60786">
        <ele>445.966677</ele>
        <time>2025-09-13T08:30:01.631Z</time>
      </trkpt>
      <trkpt lat="45.57869" lon="4.60774">
        <ele>446.224128</ele>
        <time>2025-09-13T08:30:05.630Z</time>
      </trkpt>
      <trkpt lat="45.57875" lon="4.60763">
        <ele>446.486397</ele>
        <time>2025-09-13T08:30:09.637Z</time>
      </trkpt>
      <trkpt lat="45.57881" lon="4.60752">
        <ele>446.753184</ele>
        <time>2025-09-13T08:30:13.635Z</time>
      </trkpt>
      <trkpt lat="45.57886" lon="4.60741">
        <ele>447.012236</ele>
        <time>2025-09-13T08:30:17.643Z</time>
      </trkpt>
      <trkpt lat="45.57894" lon="4.6073">
        <ele>447.285606</ele>
        <time>2025-09-13T08:30:21.651Z</time>
      </trkpt>
      <trkpt lat="45.57902" lon="4.60722">
        <ele>447.549211</ele>
        <time>2025-09-13T08:30:25.632Z</time>
      </trkpt>
      <trkpt lat="45.57911" lon="4.60718">
        <ele>447.812585</ele>
        <time>2025-09-13T08:30:29.638Z</time>
      </trkpt>
      <trkpt lat="45.57921" lon="4.60715">
        <ele>448.085886</ele>
        <time>2025-09-13T08:30:33.631Z</time>
      </trkpt>
      <trkpt lat="45.5793" lon="4.60713">
        <ele>448.33579</ele>
        <time>2025-09-13T08:30:37.655Z</time>
      </trkpt>
      <trkpt lat="45.57939" lon="4.60711">
        <ele>448.664175</ele>
        <time>2025-09-13T08:30:41.648Z</time>
      </trkpt>
      <trkpt lat="45.57951" lon="4.60711">
        <ele>449.129381</ele>
        <time>2025-09-13T08:30:46.641Z</time>
      </trkpt>
      <trkpt lat="45.57961" lon="4.60711">
        <ele>449.533621</ele>
        <time>2025-09-13T08:30:50.644Z</time>
      </trkpt>
      <trkpt lat="45.57971" lon="4.60709">
        <ele>449.953752</ele>
        <time>2025-09-13T08:30:54.642Z</time>
      </trkpt>
      <trkpt lat="45.5798" lon="4.60705">
        <ele>450.344548</ele>
        <time>2025-09-13T08:30:58.648Z</time>
      </trkpt>
      <trkpt lat="45.57989" lon="4.60701">
        <ele>450.745224</ele>
        <time>2025-09-13T08:31:02.637Z</time>
      </trkpt>
      <trkpt lat="45.57998" lon="4.60696">
        <ele>451.124106</ele>
        <time>2025-09-13T08:31:06.646Z</time>
      </trkpt>
      <trkpt lat="45.58007" lon="4.6069">
        <ele>451.523282</ele>
        <time>2025-09-13T08:31:10.647Z</time>
      </trkpt>
      <trkpt lat="45.58017" lon="4.60685">
        <ele>451.940343</ele>
        <time>2025-09-13T08:31:14.639Z</time>
      </trkpt>
      <trkpt lat="45.58026" lon="4.6068">
        <ele>452.351675</ele>
        <time>2025-09-13T08:31:18.632Z</time>
      </trkpt>
      <trkpt lat="45.58035" lon="4.60675">
        <ele>452.762867</ele>
        <time>2025-09-13T08:31:22.642Z</time>
      </trkpt>
      <trkpt lat="45.58045" lon="4.60669">
        <ele>453.176949</ele>
        <time>2025-09-13T08:31:26.659Z</time>
      </trkpt>
      <trkpt lat="45.58053" lon="4.60663">
        <ele>453.548336</ele>
        <time>2025-09-13T08:31:30.639Z</time>
      </trkpt>
      <trkpt lat="45.5806" lon="4.60655">
        <ele>453.925253</ele>
        <time>2025-09-13T08:31:34.637Z</time>
      </trkpt>
      <trkpt lat="45.58068" lon="4.60647">
        <ele>454.309156</ele>
        <time>2025-09-13T08:31:38.675Z</time>
      </trkpt>
      <trkpt lat="45.58074" lon="4.60637">
        <ele>454.694065</ele>
        <time>2025-09-13T08:31:42.626Z</time>
      </trkpt>
      <trkpt lat="45.58079" lon="4.60624">
        <ele>455.140201</ele>
        <time>2025-09-13T08:31:46.638Z</time>
      </trkpt>
      <trkpt lat="45.58084" lon="4.60612">
        <ele>455.507554</ele>
        <time>2025-09-13T08:31:49.645Z</time>
      </trkpt>
      <trkpt lat="45.58088" lon="4.60598">
        <ele>455.936679</ele>
        <time>2025-09-13T08:31:53.629Z</time>
      </trkpt>
      <trkpt lat="45.58096" lon="4.60587">
        <ele>456.347317</ele>
        <time>2025-09-13T08:31:57.644Z</time>
      </trkpt>
      <trkpt lat="45.58104" lon="4.60579">
        <ele>456.695399</ele>
        <time>2025-09-13T08:32:00.642Z</time>
      </trkpt>
      <trkpt lat="45.58112" lon="4.60572">
        <ele>457.049619</ele>
        <time>2025-09-13T08:32:03.629Z</time>
      </trkpt>
      <trkpt lat="45.5812" lon="4.60566">
        <ele>457.38983</ele>
        <time>2025-09-13T08:32:06.625Z</time>
      </trkpt>
      <trkpt lat="45.5813" lon="4.60562">
        <ele>457.746254</ele>
        <time>2025-09-13T08:32:09.634Z</time>
      </trkpt>
      <trkpt lat="45.5814" lon="4.6056">
        <ele>458.10992</ele>
        <time>2025-09-13T08:32:12.631Z</time>
      </trkpt>
      <trkpt lat="45.5815" lon="4.60558">
        <ele>458.492825</ele>
        <time>2025-09-13T08:32:15.647Z</time>
      </trkpt>
      <trkpt lat="45.58159" lon="4.60558">
        <ele>458.83045</ele>
        <time>2025-09-13T08:32:18.632Z</time>
      </trkpt>
      <trkpt lat="45.5817" lon="4.60559">
        <ele>459.245785</ele>
        <time>2025-09-13T08:32:22.638Z</time>
      </trkpt>
      <trkpt lat="45.58181" lon="4.60563">
        <ele>459.652333</ele>
        <time>2025-09-13T08:32:26.632Z</time>
      </trkpt>
      <trkpt lat="45.58191" lon="4.60568">
        <ele>460.018667</ele>
        <time>2025-09-13T08:32:30.630Z</time>
      </trkpt>
      <trkpt lat="45.582" lon="4.60574">
        <ele>460.387549</ele>
        <time>2025-09-13T08:32:34.629Z</time>
      </trkpt>
      <trkpt lat="45.58208" lon="4.60582">
        <ele>460.761371</ele>
        <time>2025-09-13T08:32:38.657Z</time>
      </trkpt>
      <trkpt lat="45.58218" lon="4.60588">
        <ele>461.165206</ele>
        <time>2025-09-13T08:32:42.645Z</time>
      </trkpt>
      <trkpt lat="45.58227" lon="4.60593">
        <ele>461.502543</ele>
        <time>2025-09-13T08:32:45.630Z</time>
      </trkpt>
      <trkpt lat="45.58236" lon="4.60598">
        <ele>461.856782</ele>
        <time>2025-09-13T08:32:48.636Z</time>
      </trkpt>
      <trkpt lat="45.58245" lon="4.606">
        <ele>462.195362</ele>
        <time>2025-09-13T08:32:51.619Z</time>
      </trkpt>
      <trkpt lat="45.58255" lon="4.60602">
        <ele>462.667073</ele>
        <time>2025-09-13T08:32:54.635Z</time>
      </trkpt>
      <trkpt lat="45.58265" lon="4.60603">
        <ele>463.197684</ele>
        <time>2025-09-13T08:32:57.645Z</time>
      </trkpt>
      <trkpt lat="45.58274" lon="4.60603">
        <ele>463.700822</ele>
        <time>2025-09-13T08:33:00.646Z</time>
      </trkpt>
      <trkpt lat="45.58284" lon="4.60603">
        <ele>464.198339</ele>
        <time>2025-09-13T08:33:03.626Z</time>
      </trkpt>
      <trkpt lat="45.58293" lon="4.60602">
        <ele>464.701762</ele>
        <time>2025-09-13T08:33:06.637Z</time>
      </trkpt>
      <trkpt lat="45.58302" lon="4.606">
        <ele>465.209265</ele>
        <time>2025-09-13T08:33:09.626Z</time>
      </trkpt>
      <trkpt lat="45.58312" lon="4.60598">
        <ele>465.720312</ele>
        <time>2025-09-13T08:33:12.636Z</time>
      </trkpt>
      <trkpt lat="45.58321" lon="4.60596">
        <ele>466.226416</ele>
        <time>2025-09-13T08:33:15.636Z</time>
      </trkpt>
      <trkpt lat="45.58333" lon="4.60595">
        <ele>466.872768</ele>
        <time>2025-09-13T08:33:19.630Z</time>
      </trkpt>
      <trkpt lat="45.58342" lon="4.60594">
        <ele>467.376831</ele>
        <time>2025-09-13T08:33:22.639Z</time>
      </trkpt>
      <trkpt lat="45.58351" lon="4.60592">
        <ele>467.862908</ele>
        <time>2025-09-13T08:33:25.643Z</time>
      </trkpt>
      <trkpt lat="45.5836" lon="4.60591">
        <ele>468.372928</ele>
        <time>2025-09-13T08:33:28.646Z</time>
      </trkpt>
      <trkpt lat="45.58371" lon="4.6059">
        <ele>468.96441</ele>
        <time>2025-09-13T08:33:32.639Z</time>
      </trkpt>
      <trkpt lat="45.58381" lon="4.60589">
        <ele>469.478484</ele>
        <time>2025-09-13T08:33:36.653Z</time>
      </trkpt>
      <trkpt lat="45.58392" lon="4.60588">
        <ele>470.063293</ele>
        <time>2025-09-13T08:33:40.637Z</time>
      </trkpt>
      <trkpt lat="45.58403" lon="4.60587">
        <ele>470.686828</ele>
        <time>2025-09-13T08:33:44.643Z</time>
      </trkpt>
      <trkpt lat="45.58412" lon="4.60587">
        <ele>471.179054</ele>
        <time>2025-09-13T08:33:47.633Z</time>
      </trkpt>
      <trkpt lat="45.58425" lon="4.60587">
        <ele>471.849643</ele>
        <time>2025-09-13T08:33:51.638Z</time>
      </trkpt>
      <trkpt lat="45.58435" lon="4.60586">
        <ele>472.301224</ele>
        <time>2025-09-13T08:33:54.638Z</time>
      </trkpt>
      <trkpt lat="45.58445" lon="4.60585">
        <ele>472.653085</ele>
        <time>2025-09-13T08:33:57.629Z</time>
      </trkpt>
      <trkpt lat="45.58455" lon="4.60582">
        <ele>472.995401</ele>
        <time>2025-09-13T08:34:00.646Z</time>
      </trkpt>
      <trkpt lat="45.58465" lon="4.6058">
        <ele>473.324373</ele>
        <time>2025-09-13T08:34:03.636Z</time>
      </trkpt>
      <trkpt lat="45.58476" lon="4.60578">
        <ele>473.703541</ele>
        <time>2025-09-13T08:34:07.626Z</time>
      </trkpt>
      <trkpt lat="45.58488" lon="4.60575">
        <ele>474.112244</ele>
        <time>2025-09-13T08:34:11.630Z</time>
      </trkpt>
      <trkpt lat="45.58497" lon="4.60572">
        <ele>474.446435</ele>
        <time>2025-09-13T08:34:14.645Z</time>
      </trkpt>
      <trkpt lat="45.58506" lon="4.60567">
        <ele>474.758139</ele>
        <time>2025-09-13T08:34:17.642Z</time>
      </trkpt>
      <trkpt lat="45.58516" lon="4.60563">
        <ele>475.115405</ele>
        <time>2025-09-13T08:34:21.626Z</time>
      </trkpt>
      <trkpt lat="45.58525" lon="4.60556">
        <ele>475.47782</ele>
        <time>2025-09-13T08:34:25.645Z</time>
      </trkpt>
      <trkpt lat="45.58535" lon="4.60549">
        <ele>475.841656</ele>
        <time>2025-09-13T08:34:29.627Z</time>
      </trkpt>
      <trkpt lat="45.58543" lon="4.60539">
        <ele>476.195407</ele>
        <time>2025-09-13T08:34:33.640Z</time>
      </trkpt>
      <trkpt lat="45.5855" lon="4.60528">
        <ele>476.548754</ele>
        <time>2025-09-13T08:34:37.638Z</time>
      </trkpt>
      <trkpt lat="45.58556" lon="4.60516">
        <ele>476.907545</ele>
        <time>2025-09-13T08:34:41.625Z</time>
      </trkpt>
      <trkpt lat="45.58561" lon="4.60504">
        <ele>477.233182</ele>
        <time>2025-09-13T08:34:45.634Z</time>
      </trkpt>
      <trkpt lat="45.58567" lon="4.60494">
        <ele>477.552505</ele>
        <time>2025-09-13T08:34:49.617Z</time>
      </trkpt>
      <trkpt lat="45.5857" lon="4.60482">
        <ele>477.870468</ele>
        <time>2025-09-13T08:34:53.650Z</time>
      </trkpt>
      <trkpt lat="45.58574" lon="4.60467">
        <ele>478.240061</ele>
        <time>2025-09-13T08:34:57.631Z</time>
      </trkpt>
      <trkpt lat="45.58578" lon="4.60452">
        <ele>478.674402</ele>
        <time>2025-09-13T08:35:01.626Z</time>
      </trkpt>
      <trkpt lat="45.58581" lon="4.60436">
        <ele>479.108332</ele>
        <time>2025-09-13T08:35:05.636Z</time>
      </trkpt>
      <trkpt lat="45.58583" lon="4.60421">
        <ele>479.526815</ele>
        <time>2025-09-13T08:35:09.623Z</time>
      </trkpt>
      <trkpt lat="45.58587" lon="4.60407">
        <ele>479.916615</ele>
        <time>2025-09-13T08:35:13.629Z</time>
      </trkpt>
      <trkpt lat="45.5859" lon="4.60394">
        <ele>480.283545</ele>
        <time>2025-09-13T08:35:17.631Z</time>
      </trkpt>
      <trkpt lat="45.58595" lon="4.60382">
        <ele>480.643635</ele>
        <time>2025-09-13T08:35:21.622Z</time>
      </trkpt>
      <trkpt lat="45.58601" lon="4.60369">
        <ele>481.054431</ele>
        <time>2025-09-13T08:35:25.627Z</time>
      </trkpt>
      <trkpt lat="45.58607" lon="4.60357">
        <ele>481.45868</ele>
        <time>2025-09-13T08:35:29.628Z</time>
      </trkpt>
      <trkpt lat="45.58612" lon="4.60346">
        <ele>481.806354</ele>
        <time>2025-09-13T08:35:32.639Z</time>
      </trkpt>
      <trkpt lat="45.58618" lon="4.60335">
        <ele>482.174146</ele>
        <time>2025-09-13T08:35:35.635Z</time>
      </trkpt>
      <trkpt lat="45.58622" lon="4.60322">
        <ele>482.542215</ele>
        <time>2025-09-13T08:35:38.673Z</time>
      </trkpt>
      <trkpt lat="45.58627" lon="4.60311">
        <ele>482.896571</ele>
        <time>2025-09-13T08:35:41.631Z</time>
      </trkpt>
      <trkpt lat="45.58634" lon="4.60297">
        <ele>483.350706</ele>
        <time>2025-09-13T08:35:45.625Z</time>
      </trkpt>
      <trkpt lat="45.5864" lon="4.60286">
        <ele>483.715897</ele>
        <time>2025-09-13T08:35:48.651Z</time>
      </trkpt>
      <trkpt lat="45.58645" lon="4.60275">
        <ele>484.067952</ele>
        <time>2025-09-13T08:35:51.643Z</time>
      </trkpt>
      <trkpt lat="45.58651" lon="4.60262">
        <ele>484.476539</ele>
        <time>2025-09-13T08:35:55.624Z</time>
      </trkpt>
      <trkpt lat="45.58656" lon="4.6025">
        <ele>484.86613</ele>
        <time>2025-09-13T08:35:59.630Z</time>
      </trkpt>
      <trkpt lat="45.58662" lon="4.60239">
        <ele>485.250428</ele>
        <time>2025-09-13T08:36:04.641Z</time>
      </trkpt>
      <trkpt lat="45.58671" lon="4.60217">
        <ele>486.112293</ele>
        <time>2025-09-13T08:37:49.623Z</time>
      </trkpt>
      <trkpt lat="45.58674" lon="4.60204">
        <ele>486.575957</ele>
        <time>2025-09-13T08:37:52.626Z</time>
      </trkpt>
      <trkpt lat="45.58678" lon="4.60192">
        <ele>487.012161</ele>
        <time>2025-09-13T08:37:55.642Z</time>
      </trkpt>
      <trkpt lat="45.5868" lon="4.60177">
        <ele>487.527597</ele>
        <time>2025-09-13T08:37:59.642Z</time>
      </trkpt>
      <trkpt lat="45.58682" lon="4.60162">
        <ele>488.058076</ele>
        <time>2025-09-13T08:38:03.628Z</time>
      </trkpt>
      <trkpt lat="45.58683" lon="4.60148">
        <ele>488.500945</ele>
        <time>2025-09-13T08:38:06.633Z</time>
      </trkpt>
      <trkpt lat="45.58681" lon="4.60131">
        <ele>489.09965</ele>
        <time>2025-09-13T08:38:10.633Z</time>
      </trkpt>
      <trkpt lat="45.5868" lon="4.60116">
        <ele>489.577469</ele>
        <time>2025-09-13T08:38:13.655Z</time>
      </trkpt>
      <trkpt lat="45.58679" lon="4.60102">
        <ele>490.064788</ele>
        <time>2025-09-13T08:38:17.634Z</time>
      </trkpt>
      <trkpt lat="45.58678" lon="4.60087">
        <ele>490.562598</ele>
        <time>2025-09-13T08:38:21.638Z</time>
      </trkpt>
      <trkpt lat="45.58677" lon="4.60074">
        <ele>491.003789</ele>
        <time>2025-09-13T08:38:24.625Z</time>
      </trkpt>
      <trkpt lat="45.58677" lon="4.60058">
        <ele>491.536468</ele>
        <time>2025-09-13T08:38:27.640Z</time>
      </trkpt>
      <trkpt lat="45.5868" lon="4.60045">
        <ele>491.991584</ele>
        <time>2025-09-13T08:38:30.638Z</time>
      </trkpt>
      <trkpt lat="45.58681" lon="4.60032">
        <ele>492.454822</ele>
        <time>2025-09-13T08:38:33.642Z</time>
      </trkpt>
      <trkpt lat="45.58682" lon="4.60018">
        <ele>492.922387</ele>
        <time>2025-09-13T08:38:36.635Z</time>
      </trkpt>
      <trkpt lat="45.58683" lon="4.60001">
        <ele>493.497311</ele>
        <time>2025-09-13T08:38:40.629Z</time>
      </trkpt>
      <trkpt lat="45.58684" lon="4.59987">
        <ele>493.771726</ele>
        <time>2025-09-13T08:38:43.645Z</time>
      </trkpt>
      <trkpt lat="45.58683" lon="4.59974">
        <ele>493.953837</ele>
        <time>2025-09-13T08:38:46.649Z</time>
      </trkpt>
      <trkpt lat="45.58681" lon="4.5996">
        <ele>494.143468</ele>
        <time>2025-09-13T08:38:49.644Z</time>
      </trkpt>
      <trkpt lat="45.58677" lon="4.59948">
        <ele>494.315896</ele>
        <time>2025-09-13T08:38:52.642Z</time>
      </trkpt>
      <trkpt lat="45.58675" lon="4.59935">
        <ele>494.493239</ele>
        <time>2025-09-13T08:38:55.639Z</time>
      </trkpt>
      <trkpt lat="45.58673" lon="4.59921">
        <ele>494.689816</ele>
        <time>2025-09-13T08:39:00.639Z</time>
      </trkpt>
      <trkpt lat="45.58669" lon="4.59908">
        <ele>494.871883</ele>
        <time>2025-09-13T08:39:03.644Z</time>
      </trkpt>
      <trkpt lat="45.58666" lon="4.59894">
        <ele>495.068179</ele>
        <time>2025-09-13T08:39:06.639Z</time>
      </trkpt>
      <trkpt lat="45.58663" lon="4.59879">
        <ele>495.281152</ele>
        <time>2025-09-13T08:39:10.632Z</time>
      </trkpt>
      <trkpt lat="45.58662" lon="4.59866">
        <ele>495.455483</ele>
        <time>2025-09-13T08:39:13.650Z</time>
      </trkpt>
      <trkpt lat="45.58663" lon="4.59852">
        <ele>495.65094</ele>
        <time>2025-09-13T08:39:16.640Z</time>
      </trkpt>
      <trkpt lat="45.58667" lon="4.5984">
        <ele>495.82685</ele>
        <time>2025-09-13T08:39:19.642Z</time>
      </trkpt>
      <trkpt lat="45.58672" lon="4.59826">
        <ele>496.038019</ele>
        <time>2025-09-13T08:39:23.652Z</time>
      </trkpt>
      <trkpt lat="45.58678" lon="4.59816">
        <ele>496.209829</ele>
        <time>2025-09-13T08:39:26.619Z</time>
      </trkpt>
      <trkpt lat="45.58684" lon="4.59806">
        <ele>496.384085</ele>
        <time>2025-09-13T08:39:30.621Z</time>
      </trkpt>
      <trkpt lat="45.58693" lon="4.59796">
        <ele>496.605784</ele>
        <time>2025-09-13T08:39:36.650Z</time>
      </trkpt>
      <trkpt lat="45.58701" lon="4.5979">
        <ele>496.789954</ele>
        <time>2025-09-13T08:39:39.626Z</time>
      </trkpt>
      <trkpt lat="45.5871" lon="4.59784">
        <ele>496.963026</ele>
        <time>2025-09-13T08:39:43.635Z</time>
      </trkpt>
      <trkpt lat="45.5873" lon="4.59776">
        <ele>497.434976</ele>
        <time>2025-09-13T08:42:51.645Z</time>
      </trkpt>
      <trkpt lat="45.58739" lon="4.59774">
        <ele>497.649543</ele>
        <time>2025-09-13T08:42:54.634Z</time>
      </trkpt>
      <trkpt lat="45.58751" lon="4.59772">
        <ele>497.926749</ele>
        <time>2025-09-13T08:42:58.645Z</time>
      </trkpt>
      <trkpt lat="45.5876" lon="4.59772">
        <ele>498.150367</ele>
        <time>2025-09-13T08:43:02.634Z</time>
      </trkpt>
      <trkpt lat="45.58769" lon="4.59774">
        <ele>498.375005</ele>
        <time>2025-09-13T08:43:11.623Z</time>
      </trkpt>
      <trkpt lat="45.5878" lon="4.59777">
        <ele>498.628776</ele>
        <time>2025-09-13T08:43:16.634Z</time>
      </trkpt>
      <trkpt lat="45.58788" lon="4.59783">
        <ele>498.848547</ele>
        <time>2025-09-13T08:43:20.653Z</time>
      </trkpt>
      <trkpt lat="45.58796" lon="4.59794">
        <ele>499.103499</ele>
        <time>2025-09-13T08:43:24.619Z</time>
      </trkpt>
      <trkpt lat="45.58802" lon="4.59804">
        <ele>499.329383</ele>
        <time>2025-09-13T08:43:28.654Z</time>
      </trkpt>
      <trkpt lat="45.58807" lon="4.59816">
        <ele>499.562597</ele>
        <time>2025-09-13T08:43:32.615Z</time>
      </trkpt>
      <trkpt lat="45.58812" lon="4.59829">
        <ele>499.81404</ele>
        <time>2025-09-13T08:43:37.639Z</time>
      </trkpt>
      <trkpt lat="45.58816" lon="4.59845">
        <ele>500.089791</ele>
        <time>2025-09-13T08:43:41.649Z</time>
      </trkpt>
      <trkpt lat="45.58818" lon="4.59858">
        <ele>500.321122</ele>
        <time>2025-09-13T08:43:44.631Z</time>
      </trkpt>
      <trkpt lat="45.58819" lon="4.59873">
        <ele>500.557285</ele>
        <time>2025-09-13T08:43:47.648Z</time>
      </trkpt>
      <trkpt lat="45.58819" lon="4.59887">
        <ele>500.793707</ele>
        <time>2025-09-13T08:43:51.633Z</time>
      </trkpt>
      <trkpt lat="45.5882" lon="4.599">
        <ele>501.024176</ele>
        <time>2025-09-13T08:43:54.638Z</time>
      </trkpt>
      <trkpt lat="45.58821" lon="4.59915">
        <ele>501.269058</ele>
        <time>2025-09-13T08:43:57.634Z</time>
      </trkpt>
      <trkpt lat="45.58821" lon="4.59929">
        <ele>501.496255</ele>
        <time>2025-09-13T08:44:00.634Z</time>
      </trkpt>
      <trkpt lat="45.58821" lon="4.59943">
        <ele>501.710217</ele>
        <time>2025-09-13T08:44:03.640Z</time>
      </trkpt>
      <trkpt lat="45.58822" lon="4.59956">
        <ele>501.917557</ele>
        <time>2025-09-13T08:44:06.632Z</time>
      </trkpt>
      <trkpt lat="45.58823" lon="4.59973">
        <ele>502.182596</ele>
        <time>2025-09-13T08:44:10.633Z</time>
      </trkpt>
      <trkpt lat="45.58824" lon="4.59989">
        <ele>502.435399</ele>
        <time>2025-09-13T08:44:14.627Z</time>
      </trkpt>
      <trkpt lat="45.58825" lon="4.60005">
        <ele>502.683409</ele>
        <time>2025-09-13T08:44:18.634Z</time>
      </trkpt>
      <trkpt lat="45.58828" lon="4.60021">
        <ele>502.94454</ele>
        <time>2025-09-13T08:44:22.618Z</time>
      </trkpt>
      <trkpt lat="45.58831" lon="4.60037">
        <ele>503.205498</ele>
        <time>2025-09-13T08:44:26.634Z</time>
      </trkpt>
      <trkpt lat="45.58835" lon="4.60052">
        <ele>503.460593</ele>
        <time>2025-09-13T08:44:30.623Z</time>
      </trkpt>
      <trkpt lat="45.5884" lon="4.60065">
        <ele>503.695121</ele>
        <time>2025-09-13T08:44:34.628Z</time>
      </trkpt>
      <trkpt lat="45.58845" lon="4.60077">
        <ele>503.903197</ele>
        <time>2025-09-13T08:44:38.623Z</time>
      </trkpt>
      <trkpt lat="45.58851" lon="4.60088">
        <ele>504.122686</ele>
        <time>2025-09-13T08:44:42.632Z</time>
      </trkpt>
      <trkpt lat="45.58856" lon="4.601">
        <ele>504.35515</ele>
        <time>2025-09-13T08:44:46.636Z</time>
      </trkpt>
      <trkpt lat="45.58863" lon="4.60112">
        <ele>504.580049</ele>
        <time>2025-09-13T08:44:50.628Z</time>
      </trkpt>
      <trkpt lat="45.5887" lon="4.60121">
        <ele>504.798323</ele>
        <time>2025-09-13T08:44:54.629Z</time>
      </trkpt>
      <trkpt lat="45.58878" lon="4.60131">
        <ele>505.03286</ele>
        <time>2025-09-13T08:44:58.623Z</time>
      </trkpt>
      <trkpt lat="45.58884" lon="4.60142">
        <ele>505.259146</ele>
        <time>2025-09-13T08:45:02.647Z</time>
      </trkpt>
      <trkpt lat="45.58891" lon="4.60153">
        <ele>505.560507</ele>
        <time>2025-09-13T08:45:06.635Z</time>
      </trkpt>
      <trkpt lat="45.58899" lon="4.60162">
        <ele>505.951937</ele>
        <time>2025-09-13T08:45:10.625Z</time>
      </trkpt>
      <trkpt lat="45.58909" lon="4.60169">
        <ele>506.358493</ele>
        <time>2025-09-13T08:45:14.627Z</time>
      </trkpt>
      <trkpt lat="45.58917" lon="4.60175">
        <ele>506.73667</ele>
        <time>2025-09-13T08:45:18.618Z</time>
      </trkpt>
      <trkpt lat="45.58927" lon="4.60181">
        <ele>507.121926</ele>
        <time>2025-09-13T08:45:22.620Z</time>
      </trkpt>
      <trkpt lat="45.58936" lon="4.60187">
        <ele>507.52531</ele>
        <time>2025-09-13T08:45:26.624Z</time>
      </trkpt>
      <trkpt lat="45.58946" lon="4.60191">
        <ele>507.92245</ele>
        <time>2025-09-13T08:45:30.636Z</time>
      </trkpt>
      <trkpt lat="45.58956" lon="4.60197">
        <ele>508.334449</ele>
        <time>2025-09-13T08:45:34.629Z</time>
      </trkpt>
      <trkpt lat="45.58966" lon="4.60204">
        <ele>508.746244</ele>
        <time>2025-09-13T08:45:38.630Z</time>
      </trkpt>
      <trkpt lat="45.58975" lon="4.60211">
        <ele>509.131394</ele>
        <time>2025-09-13T08:45:42.626Z</time>
      </trkpt>
      <trkpt lat="45.58983" lon="4.60221">
        <ele>509.552819</ele>
        <time>2025-09-13T08:45:46.624Z</time>
      </trkpt>
      <trkpt lat="45.58992" lon="4.60231">
        <ele>509.990376</ele>
        <time>2025-09-13T08:45:50.619Z</time>
      </trkpt>
      <trkpt lat="45.58998" lon="4.60246">
        <ele>510.445305</ele>
        <time>2025-09-13T08:45:54.640Z</time>
      </trkpt>
      <trkpt lat="45.59003" lon="4.60257">
        <ele>510.796221</ele>
        <time>2025-09-13T08:45:57.631Z</time>
      </trkpt>
      <trkpt lat="45.59008" lon="4.60271">
        <ele>511.231875</ele>
        <time>2025-09-13T08:46:01.624Z</time>
      </trkpt>
      <trkpt lat="45.59012" lon="4.60287">
        <ele>511.670017</ele>
        <time>2025-09-13T08:46:05.629Z</time>
      </trkpt>
      <trkpt lat="45.59015" lon="4.60302">
        <ele>512.092201</ele>
        <time>2025-09-13T08:46:09.647Z</time>
      </trkpt>
      <trkpt lat="45.59017" lon="4.60314">
        <ele>512.465492</ele>
        <time>2025-09-13T08:46:12.635Z</time>
      </trkpt>
      <trkpt lat="45.59021" lon="4.60327">
        <ele>512.883531</ele>
        <time>2025-09-13T08:46:15.636Z</time>
      </trkpt>
      <trkpt lat="45.59026" lon="4.60339">
        <ele>513.314227</ele>
        <time>2025-09-13T08:46:18.631Z</time>
      </trkpt>
      <trkpt lat="45.59032" lon="4.60349">
        <ele>513.76492</ele>
        <time>2025-09-13T08:46:22.637Z</time>
      </trkpt>
      <trkpt lat="45.59041" lon="4.60355">
        <ele>514.175301</ele>
        <time>2025-09-13T08:46:27.646Z</time>
      </trkpt>
      <trkpt lat="45.59054" lon="4.60374">
        <ele>515.040787</ele>
        <time>2025-09-13T08:49:33.658Z</time>
      </trkpt>
      <trkpt lat="45.59064" lon="4.60382">
        <ele>515.5622</ele>
        <time>2025-09-13T08:49:37.647Z</time>
      </trkpt>
      <trkpt lat="45.59074" lon="4.60389">
        <ele>516.037368</ele>
        <time>2025-09-13T08:49:41.623Z</time>
      </trkpt>
      <trkpt lat="45.59083" lon="4.60396">
        <ele>516.499239</ele>
        <time>2025-09-13T08:49:45.627Z</time>
      </trkpt>
      <trkpt lat="45.59091" lon="4.60403">
        <ele>516.925001</ele>
        <time>2025-09-13T08:49:49.635Z</time>
      </trkpt>
      <trkpt lat="45.59099" lon="4.60411">
        <ele>517.352461</ele>
        <time>2025-09-13T08:49:53.634Z</time>
      </trkpt>
      <trkpt lat="45.59107" lon="4.60419">
        <ele>517.797757</ele>
        <time>2025-09-13T08:49:57.621Z</time>
      </trkpt>
      <trkpt lat="45.59115" lon="4.60428">
        <ele>518.241981</ele>
        <time>2025-09-13T08:50:01.643Z</time>
      </trkpt>
      <trkpt lat="45.59121" lon="4.60439">
        <ele>518.693355</ele>
        <time>2025-09-13T08:50:05.622Z</time>
      </trkpt>
      <trkpt lat="45.59127" lon="4.6045">
        <ele>519.128184</ele>
        <time>2025-09-13T08:50:09.615Z</time>
      </trkpt>
      <trkpt lat="45.59133" lon="4.6046">
        <ele>519.550103</ele>
        <time>2025-09-13T08:50:13.628Z</time>
      </trkpt>
      <trkpt lat="45.59138" lon="4.60472">
        <ele>519.990036</ele>
        <time>2025-09-13T08:50:17.613Z</time>
      </trkpt>
      <trkpt lat="45.59144" lon="4.60484">
        <ele>520.426605</ele>
        <time>2025-09-13T08:50:21.623Z</time>
      </trkpt>
      <trkpt lat="45.5915" lon="4.60496">
        <ele>520.766616</ele>
        <time>2025-09-13T08:50:25.617Z</time>
      </trkpt>
      <trkpt lat="45.59155" lon="4.60508">
        <ele>521.114596</ele>
        <time>2025-09-13T08:50:29.643Z</time>
      </trkpt>
      <trkpt lat="45.5916" lon="4.60521">
        <ele>521.457244</ele>
        <time>2025-09-13T08:50:33.622Z</time>
      </trkpt>
      <trkpt lat="45.59165" lon="4.60534">
        <ele>521.80021</ele>
        <time>2025-09-13T08:50:37.628Z</time>
      </trkpt>
      <trkpt lat="45.59168" lon="4.60547">
        <ele>522.124666</ele>
        <time>2025-09-13T08:50:41.627Z</time>
      </trkpt>
      <trkpt lat="45.5917" lon="4.60561">
        <ele>522.474326</ele>
        <time>2025-09-13T08:50:45.634Z</time>
      </trkpt>
      <trkpt lat="45.59172" lon="4.60577">
        <ele>522.85024</ele>
        <time>2025-09-13T08:50:49.621Z</time>
      </trkpt>
      <trkpt lat="45.59175" lon="4.60593">
        <ele>523.23828</ele>
        <time>2025-09-13T08:50:53.627Z</time>
      </trkpt>
      <trkpt lat="45.59179" lon="4.60608">
        <ele>523.612122</ele>
        <time>2025-09-13T08:50:57.631Z</time>
      </trkpt>
      <trkpt lat="45.59184" lon="4.60621">
        <ele>523.971166</ele>
        <time>2025-09-13T08:51:01.629Z</time>
      </trkpt>
      <trkpt lat="45.59189" lon="4.60635">
        <ele>524.348566</ele>
        <time>2025-09-13T08:51:05.638Z</time>
      </trkpt>
      <trkpt lat="45.59195" lon="4.60645">
        <ele>524.656787</ele>
        <time>2025-09-13T08:51:08.621Z</time>
      </trkpt>
      <trkpt lat="45.59201" lon="4.60654">
        <ele>524.962963</ele>
        <time>2025-09-13T08:51:11.647Z</time>
      </trkpt>
      <trkpt lat="45.5921" lon="4.60665">
        <ele>525.356916</ele>
        <time>2025-09-13T08:51:15.644Z</time>
      </trkpt>
      <trkpt lat="45.5922" lon="4.60674">
        <ele>525.755628</ele>
        <time>2025-09-13T08:51:19.619Z</time>
      </trkpt>
      <trkpt lat="45.59229" lon="4.6068">
        <ele>526.121747</ele>
        <time>2025-09-13T08:51:23.632Z</time>
      </trkpt>
      <trkpt lat="45.59239" lon="4.60684">
        <ele>526.451379</ele>
        <time>2025-09-13T08:51:27.634Z</time>
      </trkpt>
      <trkpt lat="45.59248" lon="4.60685">
        <ele>526.660918</ele>
        <time>2025-09-13T08:51:31.632Z</time>
      </trkpt>
      <trkpt lat="45.59259" lon="4.60689">
        <ele>526.91271</ele>
        <time>2025-09-13T08:51:35.634Z</time>
      </trkpt>
      <trkpt lat="45.59268" lon="4.60692">
        <ele>527.117261</ele>
        <time>2025-09-13T08:51:38.630Z</time>
      </trkpt>
      <trkpt lat="45.59279" lon="4.60695">
        <ele>527.371945</ele>
        <time>2025-09-13T08:51:42.617Z</time>
      </trkpt>
      <trkpt lat="45.5929" lon="4.60699">
        <ele>527.626986</ele>
        <time>2025-09-13T08:51:46.617Z</time>
      </trkpt>
      <trkpt lat="45.59301" lon="4.60702">
        <ele>527.886973</ele>
        <time>2025-09-13T08:51:50.623Z</time>
      </trkpt>
      <trkpt lat="45.59313" lon="4.60704">
        <ele>528.147742</ele>
        <time>2025-09-13T08:51:54.618Z</time>
      </trkpt>
      <trkpt lat="45.59322" lon="4.60705">
        <ele>528.362518</ele>
        <time>2025-09-13T08:51:57.642Z</time>
      </trkpt>
      <trkpt lat="45.59332" lon="4.60705">
        <ele>528.576974</ele>
        <time>2025-09-13T08:52:00.625Z</time>
      </trkpt>
      <trkpt lat="45.59341" lon="4.60706">
        <ele>528.796852</ele>
        <time>2025-09-13T08:52:03.641Z</time>
      </trkpt>
      <trkpt lat="45.59351" lon="4.60707">
        <ele>529.020958</ele>
        <time>2025-09-13T08:52:06.625Z</time>
      </trkpt>
      <trkpt lat="45.59361" lon="4.60709">
        <ele>529.247727</ele>
        <time>2025-09-13T08:52:09.631Z</time>
      </trkpt>
      <trkpt lat="45.59371" lon="4.6071">
        <ele>529.479144</ele>
        <time>2025-09-13T08:52:12.624Z</time>
      </trkpt>
      <trkpt lat="45.59382" lon="4.60713">
        <ele>529.718594</ele>
        <time>2025-09-13T08:52:15.618Z</time>
      </trkpt>
      <trkpt lat="45.59393" lon="4.60719">
        <ele>529.9891</ele>
        <time>2025-09-13T08:52:18.622Z</time>
      </trkpt>
      <trkpt lat="45.59403" lon="4.6073">
        <ele>530.271885</ele>
        <time>2025-09-13T08:52:21.628Z</time>
      </trkpt>
      <trkpt lat="45.59411" lon="4.60742">
        <ele>530.531561</ele>
        <time>2025-09-13T08:52:24.620Z</time>
      </trkpt>
      <trkpt lat="45.59418" lon="4.60756">
        <ele>530.723117</ele>
        <time>2025-09-13T08:52:27.624Z</time>
      </trkpt>
      <trkpt lat="45.59422" lon="4.60771">
        <ele>530.911473</ele>
        <time>2025-09-13T08:52:30.642Z</time>
      </trkpt>
      <trkpt lat="45.59424" lon="4.60787">
        <ele>531.09943</ele>
        <time>2025-09-13T08:52:33.646Z</time>
      </trkpt>
      <trkpt lat="45.59424" lon="4.60803">
        <ele>531.289014</ele>
        <time>2025-09-13T08:52:36.620Z</time>
      </trkpt>
      <trkpt lat="45.59423" lon="4.6082">
        <ele>531.483263</ele>
        <time>2025-09-13T08:52:39.623Z</time>
      </trkpt>
      <trkpt lat="45.59419" lon="4.60836">
        <ele>531.690734</ele>
        <time>2025-09-13T08:52:42.624Z</time>
      </trkpt>
      <trkpt lat="45.59413" lon="4.60851">
        <ele>531.882318</ele>
        <time>2025-09-13T08:52:45.613Z</time>
      </trkpt>
      <trkpt lat="45.59405" lon="4.60863">
        <ele>532.075379</ele>
        <time>2025-09-13T08:52:48.638Z</time>
      </trkpt>
      <trkpt lat="45.59395" lon="4.6087">
        <ele>532.257459</ele>
        <time>2025-09-13T08:52:51.623Z</time>
      </trkpt>
      <trkpt lat="45.59384" lon="4.60874">
        <ele>532.4505</ele>
        <time>2025-09-13T08:52:54.626Z</time>
      </trkpt>
      <trkpt lat="45.59371" lon="4.60879">
        <ele>532.662837</ele>
        <time>2025-09-13T08:52:57.622Z</time>
      </trkpt>
      <trkpt lat="45.59363" lon="4.60883">
        <ele>532.818605</ele>
        <time>2025-09-13T08:52:59.620Z</time>
      </trkpt>
      <trkpt lat="45.59353" lon="4.60888">
        <ele>532.981055</ele>
        <time>2025-09-13T08:53:01.613Z</time>
      </trkpt>
      <trkpt lat="45.59344" lon="4.60895">
        <ele>533.149706</ele>
        <time>2025-09-13T08:53:03.620Z</time>
      </trkpt>
      <trkpt lat="45.59336" lon="4.60902">
        <ele>533.316209</ele>
        <time>2025-09-13T08:53:05.615Z</time>
      </trkpt>
      <trkpt lat="45.59327" lon="4.60907">
        <ele>533.477264</ele>
        <time>2025-09-13T08:53:07.618Z</time>
      </trkpt>
      <trkpt lat="45.59319" lon="4.60913">
        <ele>533.849965</ele>
        <time>2025-09-13T08:53:09.613Z</time>
      </trkpt>
      <trkpt lat="45.59309" lon="4.60918">
        <ele>534.297925</ele>
        <time>2025-09-13T08:53:11.622Z</time>
      </trkpt>
      <trkpt lat="45.59299" lon="4.60921">
        <ele>534.795425</ele>
        <time>2025-09-13T08:53:13.628Z</time>
      </trkpt>
      <trkpt lat="45.59287" lon="4.60925">
        <ele>535.351035</ele>
        <time>2025-09-13T08:53:15.631Z</time>
      </trkpt>
      <trkpt lat="45.59277" lon="4.6093">
        <ele>535.82068</ele>
        <time>2025-09-13T08:53:17.624Z</time>
      </trkpt>
      <trkpt lat="45.59269" lon="4.60939">
        <ele>536.293221</ele>
        <time>2025-09-13T08:53:20.626Z</time>
      </trkpt>
      <trkpt lat="45.59264" lon="4.60953">
        <ele>536.787286</ele>
        <time>2025-09-13T08:53:25.626Z</time>
      </trkpt>
      <trkpt lat="45.59261" lon="4.60966">
        <ele>537.227656</ele>
        <time>2025-09-13T08:53:30.620Z</time>
      </trkpt>
      <trkpt lat="45.59257" lon="4.60979">
        <ele>537.685833</ele>
        <time>2025-09-13T08:53:35.623Z</time>
      </trkpt>
      <trkpt lat="45.59251" lon="4.60993">
        <ele>538.20802</ele>
        <time>2025-09-13T08:53:39.614Z</time>
      </trkpt>
      <trkpt lat="45.59248" lon="4.61008">
        <ele>538.708384</ele>
        <time>2025-09-13T08:53:42.621Z</time>
      </trkpt>
      <trkpt lat="45.59245" lon="4.61022">
        <ele>539.166698</ele>
        <time>2025-09-13T08:53:45.614Z</time>
      </trkpt>
      <trkpt lat="45.59242" lon="4.61038">
        <ele>539.720258</ele>
        <time>2025-09-13T08:53:49.619Z</time>
      </trkpt>
      <trkpt lat="45.5924" lon="4.61052">
        <ele>540.15458</ele>
        <time>2025-09-13T08:53:52.633Z</time>
      </trkpt>
      <trkpt lat="45.59237" lon="4.61064">
        <ele>540.577048</ele>
        <time>2025-09-13T08:53:55.623Z</time>
      </trkpt>
      <trkpt lat="45.59235" lon="4.61081">
        <ele>541.116049</ele>
        <time>2025-09-13T08:53:59.614Z</time>
      </trkpt>
      <trkpt lat="45.59234" lon="4.61094">
        <ele>541.547358</ele>
        <time>2025-09-13T08:54:02.636Z</time>
      </trkpt>
      <trkpt lat="45.59234" lon="4.6111">
        <ele>541.796816</ele>
        <time>2025-09-13T08:54:05.621Z</time>
      </trkpt>
      <trkpt lat="45.59236" lon="4.61124">
        <ele>541.920981</ele>
        <time>2025-09-13T08:54:08.630Z</time>
      </trkpt>
      <trkpt lat="45.59242" lon="4.61136">
        <ele>542.042069</ele>
        <time>2025-09-13T08:54:11.621Z</time>
      </trkpt>
      <trkpt lat="45.5925" lon="4.61147">
        <ele>542.179144</ele>
        <time>2025-09-13T08:54:15.623Z</time>
      </trkpt>
      <trkpt lat="45.59258" lon="4.61155">
        <ele>542.303731</ele>
        <time>2025-09-13T08:54:19.642Z</time>
      </trkpt>
      <trkpt lat="45.59268" lon="4.61165">
        <ele>542.455932</ele>
        <time>2025-09-13T08:54:23.661Z</time>
      </trkpt>
      <trkpt lat="45.59277" lon="4.61172">
        <ele>542.570414</ele>
        <time>2025-09-13T08:54:26.640Z</time>
      </trkpt>
      <trkpt lat="45.59285" lon="4.61179">
        <ele>542.694626</ele>
        <time>2025-09-13T08:54:31.619Z</time>
      </trkpt>
      <trkpt lat="45.59295" lon="4.61186">
        <ele>542.821641</ele>
        <time>2025-09-13T08:54:37.606Z</time>
      </trkpt>
      <trkpt lat="45.59303" lon="4.61192">
        <ele>542.93681</ele>
        <time>2025-09-13T08:54:42.618Z</time>
      </trkpt>
      <trkpt lat="45.59313" lon="4.61185">
        <ele>543.068101</ele>
        <time>2025-09-13T08:54:48.619Z</time>
      </trkpt>
      <trkpt lat="45.59323" lon="4.61184">
        <ele>543.188893</ele>
        <time>2025-09-13T08:54:52.614Z</time>
      </trkpt>
      <trkpt lat="45.59333" lon="4.61177">
        <ele>543.321317</ele>
        <time>2025-09-13T08:54:56.629Z</time>
      </trkpt>
      <trkpt lat="45.59341" lon="4.61169">
        <ele>543.449446</ele>
        <time>2025-09-13T08:55:00.630Z</time>
      </trkpt>
      <trkpt lat="45.59352" lon="4.61166">
        <ele>543.579457</ele>
        <time>2025-09-13T08:55:05.641Z</time>
      </trkpt>
      <trkpt lat="45.59365" lon="4.61188">
        <ele>543.828274</ele>
        <time>2025-09-13T08:56:17.629Z</time>
      </trkpt>
      <trkpt lat="45.5937" lon="4.612">
        <ele>543.453215</ele>
        <time>2025-09-13T08:56:21.616Z</time>
      </trkpt>
      <trkpt lat="45.59377" lon="4.6121">
        <ele>542.076438</ele>
        <time>2025-09-13T08:56:24.642Z</time>
      </trkpt>
      <trkpt lat="45.59386" lon="4.61218">
        <ele>540.786518</ele>
        <time>2025-09-13T08:56:26.623Z</time>
      </trkpt>
      <trkpt lat="45.59395" lon="4.61227">
        <ele>539.372697</ele>
        <time>2025-09-13T08:56:28.632Z</time>
      </trkpt>
      <trkpt lat="45.59403" lon="4.61237">
        <ele>537.93317</ele>
        <time>2025-09-13T08:56:30.625Z</time>
      </trkpt>
      <trkpt lat="45.59411" lon="4.61249">
        <ele>536.372588</ele>
        <time>2025-09-13T08:56:32.639Z</time>
      </trkpt>
      <trkpt lat="45.5942" lon="4.61263">
        <ele>534.712522</ele>
        <time>2025-09-13T08:56:34.648Z</time>
      </trkpt>
      <trkpt lat="45.59427" lon="4.61276">
        <ele>533.184158</ele>
        <time>2025-09-13T08:56:36.624Z</time>
      </trkpt>
      <trkpt lat="45.59428" lon="4.6129">
        <ele>531.895482</ele>
        <time>2025-09-13T08:56:38.631Z</time>
      </trkpt>
      <trkpt lat="45.59428" lon="4.61304">
        <ele>530.629892</ele>
        <time>2025-09-13T08:56:40.627Z</time>
      </trkpt>
      <trkpt lat="45.59433" lon="4.61318">
        <ele>529.185796</ele>
        <time>2025-09-13T08:56:42.640Z</time>
      </trkpt>
      <trkpt lat="45.59447" lon="4.61331">
        <ele>527.054539</ele>
        <time>2025-09-13T08:56:44.631Z</time>
      </trkpt>
      <trkpt lat="45.5946" lon="4.61343">
        <ele>525.023376</ele>
        <time>2025-09-13T08:56:46.626Z</time>
      </trkpt>
      <trkpt lat="45.59473" lon="4.61343">
        <ele>523.39861</ele>
        <time>2025-09-13T08:56:48.633Z</time>
      </trkpt>
      <trkpt lat="45.59483" lon="4.61335">
        <ele>521.892268</ele>
        <time>2025-09-13T08:56:50.642Z</time>
      </trkpt>
      <trkpt lat="45.59492" lon="4.6133">
        <ele>520.60932</ele>
        <time>2025-09-13T08:56:52.645Z</time>
      </trkpt>
      <trkpt lat="45.595" lon="4.61323">
        <ele>520.411039</ele>
        <time>2025-09-13T08:56:54.626Z</time>
      </trkpt>
      <trkpt lat="45.59511" lon="4.6132">
        <ele>520.266422</ele>
        <time>2025-09-13T08:56:56.628Z</time>
      </trkpt>
      <trkpt lat="45.59524" lon="4.61322">
        <ele>520.093815</ele>
        <time>2025-09-13T08:56:58.631Z</time>
      </trkpt>
      <trkpt lat="45.59533" lon="4.61322">
        <ele>519.972979</ele>
        <time>2025-09-13T08:57:00.634Z</time>
      </trkpt>
      <trkpt lat="45.59543" lon="4.61326">
        <ele>519.845219</ele>
        <time>2025-09-13T08:57:04.625Z</time>
      </trkpt>
      <trkpt lat="45.59554" lon="4.61331">
        <ele>519.696846</ele>
        <time>2025-09-13T08:57:08.632Z</time>
      </trkpt>
      <trkpt lat="45.59568" lon="4.6133">
        <ele>519.511353</ele>
        <time>2025-09-13T08:57:11.620Z</time>
      </trkpt>
      <trkpt lat="45.59579" lon="4.61326">
        <ele>519.353835</ele>
        <time>2025-09-13T08:57:13.643Z</time>
      </trkpt>
      <trkpt lat="45.59592" lon="4.61322">
        <ele>519.185257</ele>
        <time>2025-09-13T08:57:15.632Z</time>
      </trkpt>
      <trkpt lat="45.59605" lon="4.61318">
        <ele>519.014722</ele>
        <time>2025-09-13T08:57:17.614Z</time>
      </trkpt>
      <trkpt lat="45.59618" lon="4.61315">
        <ele>518.841383</ele>
        <time>2025-09-13T08:57:19.629Z</time>
      </trkpt>
      <trkpt lat="45.59631" lon="4.61312">
        <ele>518.666916</ele>
        <time>2025-09-13T08:57:21.616Z</time>
      </trkpt>
      <trkpt lat="45.59643" lon="4.61311">
        <ele>518.500848</ele>
        <time>2025-09-13T08:57:23.621Z</time>
      </trkpt>
      <trkpt lat="45.59655" lon="4.6131">
        <ele>518.347024</ele>
        <time>2025-09-13T08:57:25.614Z</time>
      </trkpt>
      <trkpt lat="45.59665" lon="4.61309">
        <ele>518.220909</ele>
        <time>2025-09-13T08:57:27.614Z</time>
      </trkpt>
      <trkpt lat="45.59674" lon="4.6131">
        <ele>518.18671</ele>
        <time>2025-09-13T08:57:29.634Z</time>
      </trkpt>
      <trkpt lat="45.59686" lon="4.61315">
        <ele>518.241742</ele>
        <time>2025-09-13T08:57:32.635Z</time>
      </trkpt>
      <trkpt lat="45.5969" lon="4.61329">
        <ele>518.284154</ele>
        <time>2025-09-13T08:57:35.639Z</time>
      </trkpt>
      <trkpt lat="45.59687" lon="4.61343">
        <ele>518.326799</ele>
        <time>2025-09-13T08:57:40.643Z</time>
      </trkpt>
      <trkpt lat="45.59679" lon="4.61355">
        <ele>518.378038</ele>
        <time>2025-09-13T08:57:44.634Z</time>
      </trkpt>
      <trkpt lat="45.5967" lon="4.61367">
        <ele>518.42932</ele>
        <time>2025-09-13T08:57:47.625Z</time>
      </trkpt>
      <trkpt lat="45.59665" lon="4.61383">
        <ele>518.481013</ele>
        <time>2025-09-13T08:57:50.630Z</time>
      </trkpt>
      <trkpt lat="45.59662" lon="4.614">
        <ele>518.533022</ele>
        <time>2025-09-13T08:57:53.616Z</time>
      </trkpt>
      <trkpt lat="45.5966" lon="4.61415">
        <ele>518.576704</ele>
        <time>2025-09-13T08:57:56.637Z</time>
      </trkpt>
      <trkpt lat="45.59656" lon="4.61427">
        <ele>518.614774</ele>
        <time>2025-09-13T08:57:59.613Z</time>
      </trkpt>
      <trkpt lat="45.59649" lon="4.6144">
        <ele>518.663503</ele>
        <time>2025-09-13T08:58:03.631Z</time>
      </trkpt>
      <trkpt lat="45.59643" lon="4.61451">
        <ele>518.704138</ele>
        <time>2025-09-13T08:58:06.617Z</time>
      </trkpt>
      <trkpt lat="45.59639" lon="4.61462">
        <ele>518.743058</ele>
        <time>2025-09-13T08:58:09.620Z</time>
      </trkpt>
      <trkpt lat="45.59633" lon="4.61475">
        <ele>518.787657</ele>
        <time>2025-09-13T08:58:12.607Z</time>
      </trkpt>
      <trkpt lat="45.59629" lon="4.61488">
        <ele>518.82903</ele>
        <time>2025-09-13T08:58:14.607Z</time>
      </trkpt>
      <trkpt lat="45.59627" lon="4.61504">
        <ele>518.876883</ele>
        <time>2025-09-13T08:58:17.613Z</time>
      </trkpt>
      <trkpt lat="45.59629" lon="4.61519">
        <ele>518.921847</ele>
        <time>2025-09-13T08:58:21.622Z</time>
      </trkpt>
      <trkpt lat="45.59631" lon="4.61533">
        <ele>518.170892</ele>
        <time>2025-09-13T08:58:27.610Z</time>
      </trkpt>
      <trkpt lat="45.59638" lon="4.6156">
        <ele>516.581531</ele>
        <time>2025-09-13T08:59:20.608Z</time>
      </trkpt>
      <trkpt lat="45.5964" lon="4.61573">
        <ele>515.863871</ele>
        <time>2025-09-13T08:59:22.614Z</time>
      </trkpt>
      <trkpt lat="45.59638" lon="4.61587">
        <ele>515.049835</ele>
        <time>2025-09-13T08:59:24.627Z</time>
      </trkpt>
      <trkpt lat="45.59627" lon="4.61594">
        <ele>514.112282</ele>
        <time>2025-09-13T08:59:26.622Z</time>
      </trkpt>
      <trkpt lat="45.59616" lon="4.61606">
        <ele>513.044378</ele>
        <time>2025-09-13T08:59:28.632Z</time>
      </trkpt>
      <trkpt lat="45.59606" lon="4.61617">
        <ele>512.007273</ele>
        <time>2025-09-13T08:59:30.622Z</time>
      </trkpt>
      <trkpt lat="45.59595" lon="4.61631">
        <ele>510.89153</ele>
        <time>2025-09-13T08:59:32.610Z</time>
      </trkpt>
      <trkpt lat="45.59585" lon="4.61642">
        <ele>509.855203</ele>
        <time>2025-09-13T08:59:34.629Z</time>
      </trkpt>
      <trkpt lat="45.59575" lon="4.61659">
        <ele>508.678265</ele>
        <time>2025-09-13T08:59:36.614Z</time>
      </trkpt>
      <trkpt lat="45.59567" lon="4.6168">
        <ele>507.329207</ele>
        <time>2025-09-13T08:59:38.619Z</time>
      </trkpt>
      <trkpt lat="45.59556" lon="4.61696">
        <ele>506.069173</ele>
        <time>2025-09-13T08:59:40.617Z</time>
      </trkpt>
      <trkpt lat="45.59552" lon="4.61711">
        <ele>505.223815</ele>
        <time>2025-09-13T08:59:42.611Z</time>
      </trkpt>
      <trkpt lat="45.59556" lon="4.61726">
        <ele>504.595719</ele>
        <time>2025-09-13T08:59:44.612Z</time>
      </trkpt>
      <trkpt lat="45.59561" lon="4.61741">
        <ele>504.218509</ele>
        <time>2025-09-13T08:59:46.623Z</time>
      </trkpt>
      <trkpt lat="45.59565" lon="4.61756">
        <ele>503.859509</ele>
        <time>2025-09-13T08:59:48.623Z</time>
      </trkpt>
      <trkpt lat="45.59566" lon="4.61771">
        <ele>503.525988</ele>
        <time>2025-09-13T08:59:50.627Z</time>
      </trkpt>
      <trkpt lat="45.59567" lon="4.61784">
        <ele>503.235899</ele>
        <time>2025-09-13T08:59:52.625Z</time>
      </trkpt>
      <trkpt lat="45.59567" lon="4.61797">
        <ele>502.945967</ele>
        <time>2025-09-13T08:59:54.611Z</time>
      </trkpt>
      <trkpt lat="45.59565" lon="4.6181">
        <ele>502.657945</ele>
        <time>2025-09-13T08:59:56.621Z</time>
      </trkpt>
      <trkpt lat="45.59565" lon="4.61823">
        <ele>502.367383</ele>
        <time>2025-09-13T08:59:58.614Z</time>
      </trkpt>
      <trkpt lat="45.59565" lon="4.6184">
        <ele>501.970284</ele>
        <time>2025-09-13T09:00:01.625Z</time>
      </trkpt>
      <trkpt lat="45.59564" lon="4.61858">
        <ele>501.566157</ele>
        <time>2025-09-13T09:00:04.627Z</time>
      </trkpt>
      <trkpt lat="45.59564" lon="4.61872">
        <ele>501.273839</ele>
        <time>2025-09-13T09:00:06.607Z</time>
      </trkpt>
      <trkpt lat="45.59564" lon="4.6189">
        <ele>500.863461</ele>
        <time>2025-09-13T09:00:09.614Z</time>
      </trkpt>
      <trkpt lat="45.59564" lon="4.61908">
        <ele>500.450558</ele>
        <time>2025-09-13T09:00:12.618Z</time>
      </trkpt>
      <trkpt lat="45.59563" lon="4.61922">
        <ele>500.140488</ele>
        <time>2025-09-13T09:00:14.616Z</time>
      </trkpt>
      <trkpt lat="45.59563" lon="4.61938">
        <ele>499.78811</ele>
        <time>2025-09-13T09:00:16.621Z</time>
      </trkpt>
      <trkpt lat="45.59564" lon="4.61953">
        <ele>499.461933</ele>
        <time>2025-09-13T09:00:18.621Z</time>
      </trkpt>
      <trkpt lat="45.59565" lon="4.61968">
        <ele>499.115985</ele>
        <time>2025-09-13T09:00:20.613Z</time>
      </trkpt>
      <trkpt lat="45.59569" lon="4.61981">
        <ele>498.299476</ele>
        <time>2025-09-13T09:00:22.638Z</time>
      </trkpt>
      <trkpt lat="45.59571" lon="4.61994">
        <ele>497.325434</ele>
        <time>2025-09-13T09:00:24.607Z</time>
      </trkpt>
      <trkpt lat="45.59575" lon="4.62007">
        <ele>496.327567</ele>
        <time>2025-09-13T09:00:26.630Z</time>
      </trkpt>
      <trkpt lat="45.59578" lon="4.6202">
        <ele>495.273785</ele>
        <time>2025-09-13T09:00:28.620Z</time>
      </trkpt>
      <trkpt lat="45.59582" lon="4.62032">
        <ele>494.312538</ele>
        <time>2025-09-13T09:00:30.614Z</time>
      </trkpt>
      <trkpt lat="45.59584" lon="4.62046">
        <ele>493.330186</ele>
        <time>2025-09-13T09:00:33.640Z</time>
      </trkpt>
      <trkpt lat="45.59579" lon="4.62076">
        <ele>491.084994</ele>
        <time>2025-09-13T09:01:01.628Z</time>
      </trkpt>
      <trkpt lat="45.59574" lon="4.62089">
        <ele>489.960162</ele>
        <time>2025-09-13T09:01:03.600Z</time>
      </trkpt>
      <trkpt lat="45.59568" lon="4.62105">
        <ele>488.604389</ele>
        <time>2025-09-13T09:01:05.602Z</time>
      </trkpt>
      <trkpt lat="45.5956" lon="4.62123">
        <ele>487.056281</ele>
        <time>2025-09-13T09:01:07.599Z</time>
      </trkpt>
      <trkpt lat="45.5955" lon="4.62141">
        <ele>485.383547</ele>
        <time>2025-09-13T09:01:09.595Z</time>
      </trkpt>
      <trkpt lat="45.5954" lon="4.62161">
        <ele>483.579057</ele>
        <time>2025-09-13T09:01:11.596Z</time>
      </trkpt>
      <trkpt lat="45.59532" lon="4.62184">
        <ele>481.707075</ele>
        <time>2025-09-13T09:01:13.606Z</time>
      </trkpt>
      <trkpt lat="45.59529" lon="4.62197">
        <ele>480.716236</ele>
        <time>2025-09-13T09:01:14.602Z</time>
      </trkpt>
      <trkpt lat="45.59525" lon="4.6221">
        <ele>479.731136</ele>
        <time>2025-09-13T09:01:15.600Z</time>
      </trkpt>
      <trkpt lat="45.59523" lon="4.62224">
        <ele>478.754904</ele>
        <time>2025-09-13T09:01:16.614Z</time>
      </trkpt>
      <trkpt lat="45.59521" lon="4.62237">
        <ele>477.826773</ele>
        <time>2025-09-13T09:01:17.605Z</time>
      </trkpt>
      <trkpt lat="45.5952" lon="4.62251">
        <ele>476.870097</ele>
        <time>2025-09-13T09:01:18.609Z</time>
      </trkpt>
      <trkpt lat="45.59519" lon="4.62265">
        <ele>475.936936</ele>
        <time>2025-09-13T09:01:19.606Z</time>
      </trkpt>
      <trkpt lat="45.59518" lon="4.62279">
        <ele>474.974685</ele>
        <time>2025-09-13T09:01:20.614Z</time>
      </trkpt>
      <trkpt lat="45.59518" lon="4.62293">
        <ele>473.993971</ele>
        <time>2025-09-13T09:01:21.599Z</time>
      </trkpt>
      <trkpt lat="45.59517" lon="4.62309">
        <ele>472.955485</ele>
        <time>2025-09-13T09:01:22.614Z</time>
      </trkpt>
      <trkpt lat="45.59515" lon="4.62324">
        <ele>471.901597</ele>
        <time>2025-09-13T09:01:23.608Z</time>
      </trkpt>
      <trkpt lat="45.59512" lon="4.62339">
        <ele>470.791954</ele>
        <time>2025-09-13T09:01:24.618Z</time>
      </trkpt>
      <trkpt lat="45.59508" lon="4.62355">
        <ele>469.684079</ele>
        <time>2025-09-13T09:01:25.604Z</time>
      </trkpt>
      <trkpt lat="45.59504" lon="4.6237">
        <ele>468.576443</ele>
        <time>2025-09-13T09:01:26.608Z</time>
      </trkpt>
      <trkpt lat="45.59501" lon="4.62385">
        <ele>467.54265</ele>
        <time>2025-09-13T09:01:27.598Z</time>
      </trkpt>
      <trkpt lat="45.595" lon="4.62399">
        <ele>466.565095</ele>
        <time>2025-09-13T09:01:28.611Z</time>
      </trkpt>
      <trkpt lat="45.595" lon="4.62414">
        <ele>465.574907</ele>
        <time>2025-09-13T09:01:29.607Z</time>
      </trkpt>
      <trkpt lat="45.59499" lon="4.62429">
        <ele>464.565187</ele>
        <time>2025-09-13T09:01:30.621Z</time>
      </trkpt>
      <trkpt lat="45.59498" lon="4.62442">
        <ele>463.652867</ele>
        <time>2025-09-13T09:01:31.603Z</time>
      </trkpt>
      <trkpt lat="45.59498" lon="4.62456">
        <ele>462.708907</ele>
        <time>2025-09-13T09:01:32.596Z</time>
      </trkpt>
      <trkpt lat="45.59497" lon="4.6247">
        <ele>462.11738</ele>
        <time>2025-09-13T09:01:33.603Z</time>
      </trkpt>
      <trkpt lat="45.59497" lon="4.62484">
        <ele>461.551379</ele>
        <time>2025-09-13T09:01:34.597Z</time>
      </trkpt>
      <trkpt lat="45.59498" lon="4.62499">
        <ele>460.922964</ele>
        <time>2025-09-13T09:01:35.605Z</time>
      </trkpt>
      <trkpt lat="45.59498" lon="4.62515">
        <ele>460.282489</ele>
        <time>2025-09-13T09:01:36.606Z</time>
      </trkpt>
      <trkpt lat="45.59498" lon="4.62531">
        <ele>459.604838</ele>
        <time>2025-09-13T09:01:37.600Z</time>
      </trkpt>
      <trkpt lat="45.59497" lon="4.62547">
        <ele>458.947522</ele>
        <time>2025-09-13T09:01:38.605Z</time>
      </trkpt>
      <trkpt lat="45.59497" lon="4.62563">
        <ele>458.269562</ele>
        <time>2025-09-13T09:01:39.606Z</time>
      </trkpt>
      <trkpt lat="45.59496" lon="4.6258">
        <ele>457.598612</ele>
        <time>2025-09-13T09:01:40.597Z</time>
      </trkpt>
      <trkpt lat="45.59496" lon="4.62596">
        <ele>456.925091</ele>
        <time>2025-09-13T09:01:41.621Z</time>
      </trkpt>
      <trkpt lat="45.59496" lon="4.62612">
        <ele>456.262383</ele>
        <time>2025-09-13T09:01:42.607Z</time>
      </trkpt>
      <trkpt lat="45.59494" lon="4.62627">
        <ele>455.643388</ele>
        <time>2025-09-13T09:01:43.601Z</time>
      </trkpt>
      <trkpt lat="45.59493" lon="4.62641">
        <ele>455.069558</ele>
        <time>2025-09-13T09:01:44.594Z</time>
      </trkpt>
      <trkpt lat="45.59491" lon="4.62655">
        <ele>454.473013</ele>
        <time>2025-09-13T09:01:45.596Z</time>
      </trkpt>
      <trkpt lat="45.59491" lon="4.62669">
        <ele>453.894587</ele>
        <time>2025-09-13T09:01:46.603Z</time>
      </trkpt>
      <trkpt lat="45.59492" lon="4.62683">
        <ele>453.315108</ele>
        <time>2025-09-13T09:01:47.594Z</time>
      </trkpt>
      <trkpt lat="45.59492" lon="4.62696">
        <ele>452.785466</ele>
        <time>2025-09-13T09:01:48.613Z</time>
      </trkpt>
      <trkpt lat="45.59495" lon="4.6272">
        <ele>452.201328</ele>
        <time>2025-09-13T09:01:50.608Z</time>
      </trkpt>
      <trkpt lat="45.59502" lon="4.62739">
        <ele>452.424341</ele>
        <time>2025-09-13T09:01:52.606Z</time>
      </trkpt>
      <trkpt lat="45.5951" lon="4.62756">
        <ele>452.643534</ele>
        <time>2025-09-13T09:01:54.605Z</time>
      </trkpt>
      <trkpt lat="45.59517" lon="4.62771">
        <ele>452.841877</ele>
        <time>2025-09-13T09:01:56.730Z</time>
      </trkpt>
      <trkpt lat="45.59524" lon="4.62785">
        <ele>453.022021</ele>
        <time>2025-09-13T09:01:58.611Z</time>
      </trkpt>
      <trkpt lat="45.59531" lon="4.62799">
        <ele>453.197848</ele>
        <time>2025-09-13T09:02:00.602Z</time>
      </trkpt>
      <trkpt lat="45.59537" lon="4.62813">
        <ele>453.374615</ele>
        <time>2025-09-13T09:02:02.603Z</time>
      </trkpt>
      <trkpt lat="45.59543" lon="4.62827">
        <ele>453.548151</ele>
        <time>2025-09-13T09:02:04.609Z</time>
      </trkpt>
      <trkpt lat="45.59548" lon="4.62842">
        <ele>453.727603</ele>
        <time>2025-09-13T09:02:06.603Z</time>
      </trkpt>
      <trkpt lat="45.59553" lon="4.62858">
        <ele>453.901886</ele>
        <time>2025-09-13T09:02:08.612Z</time>
      </trkpt>
      <trkpt lat="45.59555" lon="4.62873">
        <ele>454.070367</ele>
        <time>2025-09-13T09:02:10.611Z</time>
      </trkpt>
      <trkpt lat="45.59557" lon="4.6289">
        <ele>454.247491</ele>
        <time>2025-09-13T09:02:12.652Z</time>
      </trkpt>
      <trkpt lat="45.59558" lon="4.62905">
        <ele>454.411842</ele>
        <time>2025-09-13T09:02:14.610Z</time>
      </trkpt>
      <trkpt lat="45.5956" lon="4.6292">
        <ele>454.57455</ele>
        <time>2025-09-13T09:02:16.606Z</time>
      </trkpt>
      <trkpt lat="45.59563" lon="4.62935">
        <ele>454.732529</ele>
        <time>2025-09-13T09:02:18.619Z</time>
      </trkpt>
      <trkpt lat="45.59566" lon="4.62949">
        <ele>454.801843</ele>
        <time>2025-09-13T09:02:20.611Z</time>
      </trkpt>
      <trkpt lat="45.5957" lon="4.62963">
        <ele>454.727327</ele>
        <time>2025-09-13T09:02:22.621Z</time>
      </trkpt>
      <trkpt lat="45.59573" lon="4.62978">
        <ele>454.653925</ele>
        <time>2025-09-13T09:02:24.612Z</time>
      </trkpt>
      <trkpt lat="45.59575" lon="4.62991">
        <ele>454.582785</ele>
        <time>2025-09-13T09:02:26.617Z</time>
      </trkpt>
      <trkpt lat="45.59577" lon="4.63005">
        <ele>454.514194</ele>
        <time>2025-09-13T09:02:28.616Z</time>
      </trkpt>
      <trkpt lat="45.59579" lon="4.63018">
        <ele>454.44698</ele>
        <time>2025-09-13T09:02:30.614Z</time>
      </trkpt>
      <trkpt lat="45.59581" lon="4.63031">
        <ele>454.380834</ele>
        <time>2025-09-13T09:02:32.594Z</time>
      </trkpt>
      <trkpt lat="45.59583" lon="4.6305">
        <ele>454.286012</ele>
        <time>2025-09-13T09:02:35.617Z</time>
      </trkpt>
      <trkpt lat="45.59585" lon="4.63064">
        <ele>454.21536</ele>
        <time>2025-09-13T09:02:37.613Z</time>
      </trkpt>
      <trkpt lat="45.59587" lon="4.63078">
        <ele>454.144192</ele>
        <time>2025-09-13T09:02:39.619Z</time>
      </trkpt>
      <trkpt lat="45.59588" lon="4.63093">
        <ele>454.068501</ele>
        <time>2025-09-13T09:02:41.608Z</time>
      </trkpt>
      <trkpt lat="45.59589" lon="4.63108">
        <ele>453.993949</ele>
        <time>2025-09-13T09:02:43.603Z</time>
      </trkpt>
      <trkpt lat="45.5959" lon="4.63121">
        <ele>453.929447</ele>
        <time>2025-09-13T09:02:45.596Z</time>
      </trkpt>
      <trkpt lat="45.5959" lon="4.63134">
        <ele>453.865055</ele>
        <time>2025-09-13T09:02:47.601Z</time>
      </trkpt>
      <trkpt lat="45.5959" lon="4.63148">
        <ele>453.79278</ele>
        <time>2025-09-13T09:02:49.603Z</time>
      </trkpt>
      <trkpt lat="45.59592" lon="4.63164">
        <ele>453.712909</ele>
        <time>2025-09-13T09:02:51.608Z</time>
      </trkpt>
      <trkpt lat="45.59599" lon="4.63178">
        <ele>453.627207</ele>
        <time>2025-09-13T09:02:53.616Z</time>
      </trkpt>
      <trkpt lat="45.59609" lon="4.63186">
        <ele>453.565646</ele>
        <time>2025-09-13T09:02:55.635Z</time>
      </trkpt>
      <trkpt lat="45.59617" lon="4.6319">
        <ele>453.921223</ele>
        <time>2025-09-13T09:02:57.623Z</time>
      </trkpt>
      <trkpt lat="45.59629" lon="4.63196">
        <ele>454.390794</ele>
        <time>2025-09-13T09:03:00.614Z</time>
      </trkpt>
      <trkpt lat="45.59637" lon="4.63206">
        <ele>454.803403</ele>
        <time>2025-09-13T09:03:03.624Z</time>
      </trkpt>
      <trkpt lat="45.59639" lon="4.63222">
        <ele>455.241862</ele>
        <time>2025-09-13T09:03:07.616Z</time>
      </trkpt>
      <trkpt lat="45.59636" lon="4.63236">
        <ele>455.643433</ele>
        <time>2025-09-13T09:03:11.616Z</time>
      </trkpt>
      <trkpt lat="45.59633" lon="4.63248">
        <ele>456.005581</ele>
        <time>2025-09-13T09:03:15.593Z</time>
      </trkpt>
      <trkpt lat="45.59631" lon="4.63262">
        <ele>456.386969</ele>
        <time>2025-09-13T09:03:20.619Z</time>
      </trkpt>
      <trkpt lat="45.59634" lon="4.63275">
        <ele>456.773612</ele>
        <time>2025-09-13T09:03:33.614Z</time>
      </trkpt>
      <trkpt lat="45.59644" lon="4.6328">
        <ele>457.1729</ele>
        <time>2025-09-13T09:03:38.599Z</time>
      </trkpt>
      <trkpt lat="45.59654" lon="4.63283">
        <ele>457.560941</ele>
        <time>2025-09-13T09:03:42.598Z</time>
      </trkpt>
      <trkpt lat="45.59664" lon="4.63284">
        <ele>457.943442</ele>
        <time>2025-09-13T09:03:47.622Z</time>
      </trkpt>
      <trkpt lat="45.59673" lon="4.63286">
        <ele>458.298519</ele>
        <time>2025-09-13T09:03:52.602Z</time>
      </trkpt>
      <trkpt lat="45.59682" lon="4.63288">
        <ele>458.664424</ele>
        <time>2025-09-13T09:03:59.602Z</time>
      </trkpt>
      <trkpt lat="45.59688" lon="4.63317">
        <ele>459.486976</ele>
        <time>2025-09-13T09:05:38.617Z</time>
      </trkpt>
      <trkpt lat="45.59688" lon="4.63334">
        <ele>459.954335</ele>
        <time>2025-09-13T09:05:41.603Z</time>
      </trkpt>
      <trkpt lat="45.59687" lon="4.63347">
        <ele>460.323723</ele>
        <time>2025-09-13T09:05:43.603Z</time>
      </trkpt>
      <trkpt lat="45.59687" lon="4.63362">
        <ele>460.496812</ele>
        <time>2025-09-13T09:05:45.610Z</time>
      </trkpt>
      <trkpt lat="45.59688" lon="4.63377">
        <ele>460.30963</ele>
        <time>2025-09-13T09:05:47.596Z</time>
      </trkpt>
      <trkpt lat="45.59691" lon="4.6339">
        <ele>460.140508</ele>
        <time>2025-09-13T09:05:49.615Z</time>
      </trkpt>
      <trkpt lat="45.59695" lon="4.63406">
        <ele>459.923097</ele>
        <time>2025-09-13T09:05:52.616Z</time>
      </trkpt>
      <trkpt lat="45.59699" lon="4.63421">
        <ele>459.721087</ele>
        <time>2025-09-13T09:05:56.613Z</time>
      </trkpt>
      <trkpt lat="45.59703" lon="4.63434">
        <ele>459.539278</ele>
        <time>2025-09-13T09:06:00.607Z</time>
      </trkpt>
      <trkpt lat="45.59707" lon="4.63448">
        <ele>459.351277</ele>
        <time>2025-09-13T09:06:05.635Z</time>
      </trkpt>
      <trkpt lat="45.5971" lon="4.6346">
        <ele>459.184524</ele>
        <time>2025-09-13T09:06:09.625Z</time>
      </trkpt>
      <trkpt lat="45.59714" lon="4.63475">
        <ele>458.979629</ele>
        <time>2025-09-13T09:06:13.617Z</time>
      </trkpt>
      <trkpt lat="45.59718" lon="4.63489">
        <ele>458.790843</ele>
        <time>2025-09-13T09:06:17.618Z</time>
      </trkpt>
      <trkpt lat="45.59722" lon="4.63505">
        <ele>458.578772</ele>
        <time>2025-09-13T09:06:21.621Z</time>
      </trkpt>
      <trkpt lat="45.59725" lon="4.6352">
        <ele>458.380467</ele>
        <time>2025-09-13T09:06:25.623Z</time>
      </trkpt>
      <trkpt lat="45.59729" lon="4.63535">
        <ele>458.180804</ele>
        <time>2025-09-13T09:06:29.623Z</time>
      </trkpt>
      <trkpt lat="45.59734" lon="4.63549">
        <ele>457.988709</ele>
        <time>2025-09-13T09:06:33.607Z</time>
      </trkpt>
      <trkpt lat="45.59738" lon="4.63563">
        <ele>457.794324</ele>
        <time>2025-09-13T09:06:41.624Z</time>
      </trkpt>
      <trkpt lat="45.59743" lon="4.63575">
        <ele>457.614422</ele>
        <time>2025-09-13T09:06:44.619Z</time>
      </trkpt>
      <trkpt lat="45.59748" lon="4.63593">
        <ele>457.375011</ele>
        <time>2025-09-13T09:06:47.624Z</time>
      </trkpt>
      <trkpt lat="45.59751" lon="4.63607">
        <ele>457.525475</ele>
        <time>2025-09-13T09:06:49.608Z</time>
      </trkpt>
      <trkpt lat="45.59755" lon="4.63621">
        <ele>457.813967</ele>
        <time>2025-09-13T09:06:51.618Z</time>
      </trkpt>
      <trkpt lat="45.59759" lon="4.63636">
        <ele>458.104382</ele>
        <time>2025-09-13T09:06:53.615Z</time>
      </trkpt>
      <trkpt lat="45.59763" lon="4.63649">
        <ele>458.366693</ele>
        <time>2025-09-13T09:06:55.615Z</time>
      </trkpt>
      <trkpt lat="45.59767" lon="4.63666">
        <ele>458.694287</ele>
        <time>2025-09-13T09:06:58.609Z</time>
      </trkpt>
      <trkpt lat="45.59772" lon="4.63682">
        <ele>459.019735</ele>
        <time>2025-09-13T09:07:01.619Z</time>
      </trkpt>
      <trkpt lat="45.59776" lon="4.63697">
        <ele>459.320868</ele>
        <time>2025-09-13T09:07:04.619Z</time>
      </trkpt>
      <trkpt lat="45.59781" lon="4.63709">
        <ele>459.580855</ele>
        <time>2025-09-13T09:07:08.612Z</time>
      </trkpt>
      <trkpt lat="45.59801" lon="4.63711">
        <ele>460.10731</ele>
        <time>2025-09-13T09:08:13.605Z</time>
      </trkpt>
      <trkpt lat="45.59809" lon="4.63703">
        <ele>460.370264</ele>
        <time>2025-09-13T09:08:17.618Z</time>
      </trkpt>
      <trkpt lat="45.59817" lon="4.63694">
        <ele>460.637082</ele>
        <time>2025-09-13T09:08:21.625Z</time>
      </trkpt>
      <trkpt lat="45.59825" lon="4.63686">
        <ele>460.894677</ele>
        <time>2025-09-13T09:08:25.609Z</time>
      </trkpt>
      <trkpt lat="45.59832" lon="4.63677">
        <ele>461.144936</ele>
        <time>2025-09-13T09:08:29.616Z</time>
      </trkpt>
      <trkpt lat="45.5984" lon="4.63669">
        <ele>461.401628</ele>
        <time>2025-09-13T09:08:33.612Z</time>
      </trkpt>
      <trkpt lat="45.59847" lon="4.6366">
        <ele>461.643651</ele>
        <time>2025-09-13T09:08:37.621Z</time>
      </trkpt>
      <trkpt lat="45.59856" lon="4.63652">
        <ele>461.930029</ele>
        <time>2025-09-13T09:08:42.611Z</time>
      </trkpt>
      <trkpt lat="45.59863" lon="4.63642">
        <ele>462.475259</ele>
        <time>2025-09-13T09:08:46.619Z</time>
      </trkpt>
      <trkpt lat="45.5987" lon="4.63633">
        <ele>463.448428</ele>
        <time>2025-09-13T09:08:50.603Z</time>
      </trkpt>
      <trkpt lat="45.59876" lon="4.63623">
        <ele>464.421596</ele>
        <time>2025-09-13T09:08:54.612Z</time>
      </trkpt>
      <trkpt lat="45.59883" lon="4.63614">
        <ele>465.399544</ele>
        <time>2025-09-13T09:08:58.615Z</time>
      </trkpt>
      <trkpt lat="45.59891" lon="4.63605">
        <ele>466.361707</ele>
        <time>2025-09-13T09:09:02.615Z</time>
      </trkpt>
      <trkpt lat="45.59898" lon="4.63597">
        <ele>467.343666</ele>
        <time>2025-09-13T09:09:06.610Z</time>
      </trkpt>
      <trkpt lat="45.59906" lon="4.63589">
        <ele>468.275952</ele>
        <time>2025-09-13T09:09:11.636Z</time>
      </trkpt>
      <trkpt lat="45.59914" lon="4.63582">
        <ele>469.257186</ele>
        <time>2025-09-13T09:09:16.608Z</time>
      </trkpt>
      <trkpt lat="45.59922" lon="4.63574">
        <ele>470.292673</ele>
        <time>2025-09-13T09:09:22.618Z</time>
      </trkpt>
      <trkpt lat="45.59928" lon="4.63563">
        <ele>471.26255</ele>
        <time>2025-09-13T09:09:27.643Z</time>
      </trkpt>
      <trkpt lat="45.59932" lon="4.6355">
        <ele>472.253083</ele>
        <time>2025-09-13T09:09:31.621Z</time>
      </trkpt>
      <trkpt lat="45.59934" lon="4.63536">
        <ele>473.303105</ele>
        <time>2025-09-13T09:09:36.618Z</time>
      </trkpt>
      <trkpt lat="45.59936" lon="4.63523">
        <ele>474.270116</ele>
        <time>2025-09-13T09:09:41.618Z</time>
      </trkpt>
      <trkpt lat="45.59938" lon="4.6351">
        <ele>475.223172</ele>
        <time>2025-09-13T09:09:46.620Z</time>
      </trkpt>
      <trkpt lat="45.5994" lon="4.63496">
        <ele>476.185308</ele>
        <time>2025-09-13T09:09:51.642Z</time>
      </trkpt>
      <trkpt lat="45.59943" lon="4.63482">
        <ele>477.217172</ele>
        <time>2025-09-13T09:09:57.630Z</time>
      </trkpt>
      <trkpt lat="45.59947" lon="4.6347">
        <ele>478.157875</ele>
        <time>2025-09-13T09:10:02.615Z</time>
      </trkpt>
      <trkpt lat="45.59953" lon="4.6346">
        <ele>479.180797</ele>
        <time>2025-09-13T09:10:07.618Z</time>
      </trkpt>
      <trkpt lat="45.59961" lon="4.63451">
        <ele>480.195564</ele>
        <time>2025-09-13T09:10:12.616Z</time>
      </trkpt>
      <trkpt lat="45.5997" lon="4.63445">
        <ele>480.954221</ele>
        <time>2025-09-13T09:10:17.613Z</time>
      </trkpt>
      <trkpt lat="45.59978" lon="4.63439">
        <ele>481.629028</ele>
        <time>2025-09-13T09:10:22.602Z</time>
      </trkpt>
      <trkpt lat="45.59988" lon="4.63432">
        <ele>482.418896</ele>
        <time>2025-09-13T09:10:27.626Z</time>
      </trkpt>
      <trkpt lat="45.59997" lon="4.63425">
        <ele>483.162914</ele>
        <time>2025-09-13T09:10:32.610Z</time>
      </trkpt>
      <trkpt lat="45.60007" lon="4.63418">
        <ele>483.975123</ele>
        <time>2025-09-13T09:10:37.612Z</time>
      </trkpt>
      <trkpt lat="45.60016" lon="4.63411">
        <ele>484.739869</ele>
        <time>2025-09-13T09:10:42.613Z</time>
      </trkpt>
      <trkpt lat="45.60024" lon="4.63403">
        <ele>485.46693</ele>
        <time>2025-09-13T09:10:47.606Z</time>
      </trkpt>
      <trkpt lat="45.60032" lon="4.63394">
        <ele>486.185746</ele>
        <time>2025-09-13T09:10:52.599Z</time>
      </trkpt>
      <trkpt lat="45.60038" lon="4.63385">
        <ele>486.862178</ele>
        <time>2025-09-13T09:10:57.603Z</time>
      </trkpt>
      <trkpt lat="45.60044" lon="4.63372">
        <ele>487.635832</ele>
        <time>2025-09-13T09:11:03.607Z</time>
      </trkpt>
      <trkpt lat="45.60052" lon="4.63363">
        <ele>488.36672</ele>
        <time>2025-09-13T09:11:09.609Z</time>
      </trkpt>
      <trkpt lat="45.60062" lon="4.63359">
        <ele>489.104225</ele>
        <time>2025-09-13T09:11:15.606Z</time>
      </trkpt>
      <trkpt lat="45.60069" lon="4.63351">
        <ele>489.769767</ele>
        <time>2025-09-13T09:11:21.595Z</time>
      </trkpt>
      <trkpt lat="45.60078" lon="4.63361">
        <ele>490.616097</ele>
        <time>2025-09-13T09:15:45.604Z</time>
      </trkpt>
      <trkpt lat="45.60083" lon="4.63374">
        <ele>491.370439</ele>
        <time>2025-09-13T09:15:50.602Z</time>
      </trkpt>
      <trkpt lat="45.60089" lon="4.63385">
        <ele>492.089367</ele>
        <time>2025-09-13T09:15:54.591Z</time>
      </trkpt>
      <trkpt lat="45.60095" lon="4.634">
        <ele>492.955725</ele>
        <time>2025-09-13T09:15:58.606Z</time>
      </trkpt>
      <trkpt lat="45.60101" lon="4.63412">
        <ele>493.311658</ele>
        <time>2025-09-13T09:16:02.596Z</time>
      </trkpt>
      <trkpt lat="45.60107" lon="4.63425">
        <ele>492.596528</ele>
        <time>2025-09-13T09:16:06.604Z</time>
      </trkpt>
      <trkpt lat="45.60113" lon="4.63438">
        <ele>491.87385</ele>
        <time>2025-09-13T09:16:10.600Z</time>
      </trkpt>
      <trkpt lat="45.6012" lon="4.6345">
        <ele>491.158727</ele>
        <time>2025-09-13T09:16:14.606Z</time>
      </trkpt>
      <trkpt lat="45.60125" lon="4.63461">
        <ele>490.564053</ele>
        <time>2025-09-13T09:16:17.610Z</time>
      </trkpt>
      <trkpt lat="45.6013" lon="4.63475">
        <ele>489.822511</ele>
        <time>2025-09-13T09:16:20.599Z</time>
      </trkpt>
      <trkpt lat="45.60134" lon="4.63488">
        <ele>489.167452</ele>
        <time>2025-09-13T09:16:22.609Z</time>
      </trkpt>
      <trkpt lat="45.60136" lon="4.63503">
        <ele>488.457589</ele>
        <time>2025-09-13T09:16:24.606Z</time>
      </trkpt>
      <trkpt lat="45.60137" lon="4.63518">
        <ele>487.805894</ele>
        <time>2025-09-13T09:16:26.596Z</time>
      </trkpt>
      <trkpt lat="45.60139" lon="4.63533">
        <ele>487.076168</ele>
        <time>2025-09-13T09:16:28.603Z</time>
      </trkpt>
      <trkpt lat="45.60145" lon="4.6355">
        <ele>486.225452</ele>
        <time>2025-09-13T09:16:30.602Z</time>
      </trkpt>
      <trkpt lat="45.60153" lon="4.63565">
        <ele>485.359068</ele>
        <time>2025-09-13T09:16:32.605Z</time>
      </trkpt>
      <trkpt lat="45.60162" lon="4.63581">
        <ele>484.416837</ele>
        <time>2025-09-13T09:16:34.618Z</time>
      </trkpt>
      <trkpt lat="45.60172" lon="4.63595">
        <ele>483.485309</ele>
        <time>2025-09-13T09:16:36.607Z</time>
      </trkpt>
      <trkpt lat="45.60182" lon="4.6361">
        <ele>482.555932</ele>
        <time>2025-09-13T09:16:38.610Z</time>
      </trkpt>
      <trkpt lat="45.60192" lon="4.63626">
        <ele>481.518741</ele>
        <time>2025-09-13T09:16:40.614Z</time>
      </trkpt>
      <trkpt lat="45.60203" lon="4.63642">
        <ele>480.278047</ele>
        <time>2025-09-13T09:16:42.601Z</time>
      </trkpt>
      <trkpt lat="45.60214" lon="4.63659">
        <ele>479.014282</ele>
        <time>2025-09-13T09:16:44.597Z</time>
      </trkpt>
      <trkpt lat="45.60224" lon="4.63675">
        <ele>477.791012</ele>
        <time>2025-09-13T09:16:46.611Z</time>
      </trkpt>
      <trkpt lat="45.60235" lon="4.63692">
        <ele>476.556495</ele>
        <time>2025-09-13T09:16:48.610Z</time>
      </trkpt>
      <trkpt lat="45.60246" lon="4.6371">
        <ele>475.235657</ele>
        <time>2025-09-13T09:16:50.610Z</time>
      </trkpt>
      <trkpt lat="45.60255" lon="4.63726">
        <ele>474.043703</ele>
        <time>2025-09-13T09:16:52.611Z</time>
      </trkpt>
      <trkpt lat="45.60265" lon="4.63741">
        <ele>472.963325</ele>
        <time>2025-09-13T09:16:54.605Z</time>
      </trkpt>
      <trkpt lat="45.60276" lon="4.63753">
        <ele>471.844242</ele>
        <time>2025-09-13T09:16:56.608Z</time>
      </trkpt>
      <trkpt lat="45.60285" lon="4.63765">
        <ele>470.906375</ele>
        <time>2025-09-13T09:16:58.609Z</time>
      </trkpt>
      <trkpt lat="45.60289" lon="4.6378">
        <ele>469.968719</ele>
        <time>2025-09-13T09:17:00.601Z</time>
      </trkpt>
      <trkpt lat="45.60288" lon="4.63799">
        <ele>468.959144</ele>
        <time>2025-09-13T09:17:02.611Z</time>
      </trkpt>
      <trkpt lat="45.60285" lon="4.63817">
        <ele>467.943388</ele>
        <time>2025-09-13T09:17:04.592Z</time>
      </trkpt>
      <trkpt lat="45.60283" lon="4.63832">
        <ele>467.57288</ele>
        <time>2025-09-13T09:17:06.599Z</time>
      </trkpt>
      <trkpt lat="45.60285" lon="4.63845">
        <ele>467.739279</ele>
        <time>2025-09-13T09:17:08.595Z</time>
      </trkpt>
      <trkpt lat="45.60292" lon="4.63854">
        <ele>467.911503</ele>
        <time>2025-09-13T09:17:10.598Z</time>
      </trkpt>
      <trkpt lat="45.60302" lon="4.63857">
        <ele>468.105181</ele>
        <time>2025-09-13T09:17:12.630Z</time>
      </trkpt>
      <trkpt lat="45.60312" lon="4.63855">
        <ele>468.281301</ele>
        <time>2025-09-13T09:17:14.598Z</time>
      </trkpt>
      <trkpt lat="45.60321" lon="4.63852">
        <ele>468.45536</ele>
        <time>2025-09-13T09:17:16.608Z</time>
      </trkpt>
      <trkpt lat="45.6033" lon="4.63849">
        <ele>468.624346</ele>
        <time>2025-09-13T09:17:18.618Z</time>
      </trkpt>
      <trkpt lat="45.60342" lon="4.63849">
        <ele>468.844043</ele>
        <time>2025-09-13T09:17:21.604Z</time>
      </trkpt>
      <trkpt lat="45.6035" lon="4.63856">
        <ele>469.014994</ele>
        <time>2025-09-13T09:17:23.619Z</time>
      </trkpt>
      <trkpt lat="45.60359" lon="4.63864">
        <ele>469.198162</ele>
        <time>2025-09-13T09:17:25.617Z</time>
      </trkpt>
      <trkpt lat="45.60366" lon="4.63873">
        <ele>469.365481</ele>
        <time>2025-09-13T09:17:27.612Z</time>
      </trkpt>
      <trkpt lat="45.60375" lon="4.63883">
        <ele>469.578418</ele>
        <time>2025-09-13T09:17:30.613Z</time>
      </trkpt>
      <trkpt lat="45.60383" lon="4.63892">
        <ele>469.771976</ele>
        <time>2025-09-13T09:17:33.610Z</time>
      </trkpt>
      <trkpt lat="45.60391" lon="4.639">
        <ele>469.940358</ele>
        <time>2025-09-13T09:17:36.618Z</time>
      </trkpt>
      <trkpt lat="45.60399" lon="4.63909">
        <ele>470.131702</ele>
        <time>2025-09-13T09:17:39.615Z</time>
      </trkpt>
      <trkpt lat="45.60408" lon="4.63919">
        <ele>470.341525</ele>
        <time>2025-09-13T09:17:42.602Z</time>
      </trkpt>
      <trkpt lat="45.60417" lon="4.63928">
        <ele>470.521717</ele>
        <time>2025-09-13T09:17:45.614Z</time>
      </trkpt>
      <trkpt lat="45.60424" lon="4.63935">
        <ele>470.684924</ele>
        <time>2025-09-13T09:17:48.611Z</time>
      </trkpt>
      <trkpt lat="45.60434" lon="4.63943">
        <ele>471.409487</ele>
        <time>2025-09-13T09:17:52.602Z</time>
      </trkpt>
      <trkpt lat="45.60443" lon="4.63941">
        <ele>472.14818</ele>
        <time>2025-09-13T09:17:56.614Z</time>
      </trkpt>
      <trkpt lat="45.60449" lon="4.6393">
        <ele>472.888983</ele>
        <time>2025-09-13T09:18:01.611Z</time>
      </trkpt>
      <trkpt lat="45.60452" lon="4.63918">
        <ele>473.628076</ele>
        <time>2025-09-13T09:18:06.610Z</time>
      </trkpt>
      <trkpt lat="45.60456" lon="4.63905">
        <ele>474.434902</ele>
        <time>2025-09-13T09:18:12.614Z</time>
      </trkpt>
      <trkpt lat="45.60462" lon="4.63893">
        <ele>475.221695</ele>
        <time>2025-09-13T09:18:18.594Z</time>
      </trkpt>
      <trkpt lat="45.60468" lon="4.63883">
        <ele>475.98442</ele>
        <time>2025-09-13T09:18:22.597Z</time>
      </trkpt>
      <trkpt lat="45.60477" lon="4.63875">
        <ele>476.879655</ele>
        <time>2025-09-13T09:18:27.608Z</time>
      </trkpt>
      <trkpt lat="45.60486" lon="4.63867">
        <ele>477.723172</ele>
        <time>2025-09-13T09:18:32.590Z</time>
      </trkpt>
      <trkpt lat="45.60494" lon="4.63858">
        <ele>478.53715</ele>
        <time>2025-09-13T09:18:37.603Z</time>
      </trkpt>
      <trkpt lat="45.60502" lon="4.63849">
        <ele>479.334568</ele>
        <time>2025-09-13T09:18:42.596Z</time>
      </trkpt>
      <trkpt lat="45.60509" lon="4.63841">
        <ele>480.097007</ele>
        <time>2025-09-13T09:18:47.594Z</time>
      </trkpt>
      <trkpt lat="45.60517" lon="4.63833">
        <ele>480.882476</ele>
        <time>2025-09-13T09:18:52.614Z</time>
      </trkpt>
      <trkpt lat="45.60524" lon="4.63824">
        <ele>481.637021</ele>
        <time>2025-09-13T09:18:57.600Z</time>
      </trkpt>
      <trkpt lat="45.60532" lon="4.63817">
        <ele>482.36937</ele>
        <time>2025-09-13T09:19:02.602Z</time>
      </trkpt>
      <trkpt lat="45.60539" lon="4.63809">
        <ele>483.094824</ele>
        <time>2025-09-13T09:19:07.598Z</time>
      </trkpt>
      <trkpt lat="45.60547" lon="4.63802">
        <ele>483.833616</ele>
        <time>2025-09-13T09:19:12.604Z</time>
      </trkpt>
      <trkpt lat="45.60555" lon="4.63792">
        <ele>484.698641</ele>
        <time>2025-09-13T09:19:18.596Z</time>
      </trkpt>
      <trkpt lat="45.60563" lon="4.63783">
        <ele>485.422567</ele>
        <time>2025-09-13T09:19:24.606Z</time>
      </trkpt>
      <trkpt lat="45.60571" lon="4.63774">
        <ele>485.887477</ele>
        <time>2025-09-13T09:19:30.596Z</time>
      </trkpt>
      <trkpt lat="45.60578" lon="4.63763">
        <ele>486.372888</ele>
        <time>2025-09-13T09:19:36.609Z</time>
      </trkpt>
      <trkpt lat="45.60584" lon="4.63752">
        <ele>486.835674</ele>
        <time>2025-09-13T09:19:41.603Z</time>
      </trkpt>
      <trkpt lat="45.60591" lon="4.63741">
        <ele>487.352285</ele>
        <time>2025-09-13T09:19:46.593Z</time>
      </trkpt>
      <trkpt lat="45.60598" lon="4.63729">
        <ele>487.840736</ele>
        <time>2025-09-13T09:19:50.597Z</time>
      </trkpt>
      <trkpt lat="45.60605" lon="4.63719">
        <ele>488.315735</ele>
        <time>2025-09-13T09:19:54.597Z</time>
      </trkpt>
      <trkpt lat="45.60615" lon="4.63717">
        <ele>488.805016</ele>
        <time>2025-09-13T09:19:59.615Z</time>
      </trkpt>
      <trkpt lat="45.60624" lon="4.63727">
        <ele>489.299271</ele>
        <time>2025-09-13T09:20:04.617Z</time>
      </trkpt>
      <trkpt lat="45.60628" lon="4.63738">
        <ele>489.73055</ele>
        <time>2025-09-13T09:20:08.622Z</time>
      </trkpt>
      <trkpt lat="45.60635" lon="4.63751">
        <ele>490.246705</ele>
        <time>2025-09-13T09:20:12.618Z</time>
      </trkpt>
      <trkpt lat="45.6064" lon="4.63761">
        <ele>490.66782</ele>
        <time>2025-09-13T09:20:15.606Z</time>
      </trkpt>
      <trkpt lat="45.60647" lon="4.6377">
        <ele>491.094472</ele>
        <time>2025-09-13T09:20:18.615Z</time>
      </trkpt>
      <trkpt lat="45.60655" lon="4.63777">
        <ele>491.532624</ele>
        <time>2025-09-13T09:20:21.604Z</time>
      </trkpt>
      <trkpt lat="45.60663" lon="4.63783">
        <ele>491.972321</ele>
        <time>2025-09-13T09:20:24.608Z</time>
      </trkpt>
      <trkpt lat="45.60673" lon="4.63788">
        <ele>492.443806</ele>
        <time>2025-09-13T09:20:27.597Z</time>
      </trkpt>
      <trkpt lat="45.60681" lon="4.63793">
        <ele>492.875482</ele>
        <time>2025-09-13T09:20:30.622Z</time>
      </trkpt>
      <trkpt lat="45.60691" lon="4.63796">
        <ele>493.336294</ele>
        <time>2025-09-13T09:20:34.593Z</time>
      </trkpt>
      <trkpt lat="45.60699" lon="4.63803">
        <ele>493.575742</ele>
        <time>2025-09-13T09:20:39.613Z</time>
      </trkpt>
      <trkpt lat="45.60703" lon="4.63815">
        <ele>492.996356</ele>
        <time>2025-09-13T09:20:43.604Z</time>
      </trkpt>
      <trkpt lat="45.60707" lon="4.63829">
        <ele>492.282529</ele>
        <time>2025-09-13T09:20:47.609Z</time>
      </trkpt>
      <trkpt lat="45.60712" lon="4.63842">
        <ele>491.639564</ele>
        <time>2025-09-13T09:20:50.601Z</time>
      </trkpt>
      <trkpt lat="45.60716" lon="4.63858">
        <ele>490.891863</ele>
        <time>2025-09-13T09:20:53.609Z</time>
      </trkpt>
      <trkpt lat="45.60721" lon="4.6387">
        <ele>490.256941</ele>
        <time>2025-09-13T09:20:56.611Z</time>
      </trkpt>
      <trkpt lat="45.60725" lon="4.63883">
        <ele>489.629862</ele>
        <time>2025-09-13T09:20:59.599Z</time>
      </trkpt>
      <trkpt lat="45.60729" lon="4.63895">
        <ele>489.005243</ele>
        <time>2025-09-13T09:21:02.621Z</time>
      </trkpt>
      <trkpt lat="45.60733" lon="4.63909">
        <ele>488.366348</ele>
        <time>2025-09-13T09:21:06.616Z</time>
      </trkpt>
      <trkpt lat="45.60737" lon="4.63922">
        <ele>487.714737</ele>
        <time>2025-09-13T09:21:11.603Z</time>
      </trkpt>
      <trkpt lat="45.60742" lon="4.63936">
        <ele>486.981181</ele>
        <time>2025-09-13T09:21:15.611Z</time>
      </trkpt>
      <trkpt lat="45.60746" lon="4.63949">
        <ele>486.374818</ele>
        <time>2025-09-13T09:21:18.618Z</time>
      </trkpt>
      <trkpt lat="45.60752" lon="4.63961">
        <ele>485.708452</ele>
        <time>2025-09-13T09:21:21.600Z</time>
      </trkpt>
      <trkpt lat="45.60756" lon="4.63977">
        <ele>484.933471</ele>
        <time>2025-09-13T09:21:24.615Z</time>
      </trkpt>
      <trkpt lat="45.60762" lon="4.63995">
        <ele>484.058544</ele>
        <time>2025-09-13T09:21:27.597Z</time>
      </trkpt>
      <trkpt lat="45.60765" lon="4.64008">
        <ele>483.434496</ele>
        <time>2025-09-13T09:21:29.613Z</time>
      </trkpt>
      <trkpt lat="45.60771" lon="4.6402">
        <ele>482.828788</ele>
        <time>2025-09-13T09:21:31.605Z</time>
      </trkpt>
      <trkpt lat="45.60777" lon="4.64033">
        <ele>482.037353</ele>
        <time>2025-09-13T09:21:34.618Z</time>
      </trkpt>
      <trkpt lat="45.60785" lon="4.6407">
        <ele>479.013428</ele>
        <time>2025-09-13T09:22:40.596Z</time>
      </trkpt>
      <trkpt lat="45.60788" lon="4.64082">
        <ele>477.979074</ele>
        <time>2025-09-13T09:22:42.618Z</time>
      </trkpt>
      <trkpt lat="45.60792" lon="4.64097">
        <ele>476.72461</ele>
        <time>2025-09-13T09:22:44.601Z</time>
      </trkpt>
      <trkpt lat="45.60798" lon="4.64111">
        <ele>475.404686</ele>
        <time>2025-09-13T09:22:46.596Z</time>
      </trkpt>
      <trkpt lat="45.60806" lon="4.64129">
        <ele>473.77292</ele>
        <time>2025-09-13T09:22:48.604Z</time>
      </trkpt>
      <trkpt lat="45.60815" lon="4.64148">
        <ele>471.971153</ele>
        <time>2025-09-13T09:22:50.606Z</time>
      </trkpt>
      <trkpt lat="45.60825" lon="4.64167">
        <ele>470.072387</ele>
        <time>2025-09-13T09:22:52.603Z</time>
      </trkpt>
      <trkpt lat="45.60833" lon="4.64183">
        <ele>468.541702</ele>
        <time>2025-09-13T09:22:54.602Z</time>
      </trkpt>
      <trkpt lat="45.6084" lon="4.64196">
        <ele>467.235015</ele>
        <time>2025-09-13T09:22:56.595Z</time>
      </trkpt>
      <trkpt lat="45.60848" lon="4.6421">
        <ele>465.791104</ele>
        <time>2025-09-13T09:22:58.594Z</time>
      </trkpt>
      <trkpt lat="45.60855" lon="4.64219">
        <ele>464.691465</ele>
        <time>2025-09-13T09:23:00.588Z</time>
      </trkpt>
      <trkpt lat="45.60863" lon="4.64227">
        <ele>463.632888</ele>
        <time>2025-09-13T09:23:03.597Z</time>
      </trkpt>
      <trkpt lat="45.60868" lon="4.64239">
        <ele>462.527177</ele>
        <time>2025-09-13T09:23:07.603Z</time>
      </trkpt>
      <trkpt lat="45.60874" lon="4.64253">
        <ele>461.456683</ele>
        <time>2025-09-13T09:23:12.591Z</time>
      </trkpt>
      <trkpt lat="45.60875" lon="4.64266">
        <ele>460.703765</ele>
        <time>2025-09-13T09:23:16.614Z</time>
      </trkpt>
      <trkpt lat="45.60881" lon="4.64276">
        <ele>459.934151</ele>
        <time>2025-09-13T09:23:20.594Z</time>
      </trkpt>
      <trkpt lat="45.60889" lon="4.64283">
        <ele>459.18019</ele>
        <time>2025-09-13T09:23:24.602Z</time>
      </trkpt>
      <trkpt lat="45.60896" lon="4.64292">
        <ele>458.391881</ele>
        <time>2025-09-13T09:23:29.628Z</time>
      </trkpt>
      <trkpt lat="45.60895" lon="4.64307">
        <ele>457.533824</ele>
        <time>2025-09-13T09:23:33.618Z</time>
      </trkpt>
      <trkpt lat="45.60902" lon="4.64319">
        <ele>456.655996</ele>
        <time>2025-09-13T09:23:36.614Z</time>
      </trkpt>
      <trkpt lat="45.60909" lon="4.6433">
        <ele>455.798118</ele>
        <time>2025-09-13T09:23:38.616Z</time>
      </trkpt>
      <trkpt lat="45.60919" lon="4.64342">
        <ele>454.711101</ele>
        <time>2025-09-13T09:23:40.607Z</time>
      </trkpt>
      <trkpt lat="45.60917" lon="4.64359">
        <ele>453.75661</ele>
        <time>2025-09-13T09:23:43.602Z</time>
      </trkpt>
      <trkpt lat="45.60926" lon="4.64349">
        <ele>452.825034</ele>
        <time>2025-09-13T09:23:57.598Z</time>
      </trkpt>
      <trkpt lat="45.60946" lon="4.64323">
        <ele>450.584584</ele>
        <time>2025-09-13T09:24:37.620Z</time>
      </trkpt>
      <trkpt lat="45.60955" lon="4.6432">
        <ele>449.845781</ele>
        <time>2025-09-13T09:24:39.610Z</time>
      </trkpt>
      <trkpt lat="45.60966" lon="4.64329">
        <ele>448.850884</ele>
        <time>2025-09-13T09:24:42.614Z</time>
      </trkpt>
      <trkpt lat="45.60969" lon="4.64345">
        <ele>447.899767</ele>
        <time>2025-09-13T09:24:45.614Z</time>
      </trkpt>
      <trkpt lat="45.60972" lon="4.64359">
        <ele>447.220372</ele>
        <time>2025-09-13T09:24:48.601Z</time>
      </trkpt>
      <trkpt lat="45.60981" lon="4.64369">
        <ele>447.683381</ele>
        <time>2025-09-13T09:24:52.600Z</time>
      </trkpt>
      <trkpt lat="45.6099" lon="4.64374">
        <ele>448.076916</ele>
        <time>2025-09-13T09:24:58.617Z</time>
      </trkpt>
      <trkpt lat="45.60999" lon="4.6438">
        <ele>448.472054</ele>
        <time>2025-09-13T09:25:06.609Z</time>
      </trkpt>
      <trkpt lat="45.61008" lon="4.64386">
        <ele>448.850537</ele>
        <time>2025-09-13T09:25:14.607Z</time>
      </trkpt>
      <trkpt lat="45.61013" lon="4.64397">
        <ele>449.215846</ele>
        <time>2025-09-13T09:25:18.611Z</time>
      </trkpt>
      <trkpt lat="45.61018" lon="4.64409">
        <ele>449.6083</ele>
        <time>2025-09-13T09:25:21.591Z</time>
      </trkpt>
      <trkpt lat="45.61024" lon="4.64419">
        <ele>449.990731</ele>
        <time>2025-09-13T09:25:25.599Z</time>
      </trkpt>
      <trkpt lat="45.61022" lon="4.64433">
        <ele>450.37841</ele>
        <time>2025-09-13T09:25:29.603Z</time>
      </trkpt>
      <trkpt lat="45.61019" lon="4.64447">
        <ele>450.796758</ele>
        <time>2025-09-13T09:25:34.600Z</time>
      </trkpt>
      <trkpt lat="45.61018" lon="4.6446">
        <ele>451.165591</ele>
        <time>2025-09-13T09:25:39.609Z</time>
      </trkpt>
      <trkpt lat="45.61017" lon="4.64475">
        <ele>451.570413</ele>
        <time>2025-09-13T09:25:44.600Z</time>
      </trkpt>
      <trkpt lat="45.61016" lon="4.6449">
        <ele>451.983884</ele>
        <time>2025-09-13T09:25:49.613Z</time>
      </trkpt>
      <trkpt lat="45.61015" lon="4.64504">
        <ele>452.39181</ele>
        <time>2025-09-13T09:25:54.609Z</time>
      </trkpt>
      <trkpt lat="45.61014" lon="4.64519">
        <ele>452.808815</ele>
        <time>2025-09-13T09:26:00.608Z</time>
      </trkpt>
      <trkpt lat="45.61012" lon="4.64533">
        <ele>453.193728</ele>
        <time>2025-09-13T09:26:06.594Z</time>
      </trkpt>
      <trkpt lat="45.6101" lon="4.64545">
        <ele>453.554499</ele>
        <time>2025-09-13T09:26:11.595Z</time>
      </trkpt>
      <trkpt lat="45.61006" lon="4.64559">
        <ele>453.971032</ele>
        <time>2025-09-13T09:26:16.611Z</time>
      </trkpt>
      <trkpt lat="45.61003" lon="4.64572">
        <ele>454.343131</ele>
        <time>2025-09-13T09:26:21.605Z</time>
      </trkpt>
      <trkpt lat="45.60999" lon="4.64587">
        <ele>454.766535</ele>
        <time>2025-09-13T09:26:27.599Z</time>
      </trkpt>
      <trkpt lat="45.60996" lon="4.64603">
        <ele>455.201102</ele>
        <time>2025-09-13T09:26:30.605Z</time>
      </trkpt>
      <trkpt lat="45.60992" lon="4.64621">
        <ele>455.696057</ele>
        <time>2025-09-13T09:26:33.614Z</time>
      </trkpt>
      <trkpt lat="45.60993" lon="4.64639">
        <ele>456.156469</ele>
        <time>2025-09-13T09:26:36.607Z</time>
      </trkpt>
      <trkpt lat="45.60996" lon="4.64651">
        <ele>456.511012</ele>
        <time>2025-09-13T09:26:39.613Z</time>
      </trkpt>
      <trkpt lat="45.60994" lon="4.64667">
        <ele>456.939315</ele>
        <time>2025-09-13T09:26:43.599Z</time>
      </trkpt>
      <trkpt lat="45.60991" lon="4.6468">
        <ele>457.28174</ele>
        <time>2025-09-13T09:26:47.611Z</time>
      </trkpt>
      <trkpt lat="45.6099" lon="4.64693">
        <ele>457.638995</ele>
        <time>2025-09-13T09:26:52.611Z</time>
      </trkpt>
      <trkpt lat="45.60989" lon="4.64708">
        <ele>458.029537</ele>
        <time>2025-09-13T09:26:58.584Z</time>
      </trkpt>
      <trkpt lat="45.60993" lon="4.64721">
        <ele>458.402832</ele>
        <time>2025-09-13T09:27:04.615Z</time>
      </trkpt>
      <trkpt lat="45.60997" lon="4.64733">
        <ele>458.752528</ele>
        <time>2025-09-13T09:27:10.607Z</time>
      </trkpt>
      <trkpt lat="45.61002" lon="4.64745">
        <ele>459.113218</ele>
        <time>2025-09-13T09:27:16.612Z</time>
      </trkpt>
      <trkpt lat="45.61006" lon="4.64757">
        <ele>459.472178</ele>
        <time>2025-09-13T09:27:22.595Z</time>
      </trkpt>
      <trkpt lat="45.61008" lon="4.64773">
        <ele>459.879932</ele>
        <time>2025-09-13T09:27:28.598Z</time>
      </trkpt>
      <trkpt lat="45.61009" lon="4.64789">
        <ele>460.293284</ele>
        <time>2025-09-13T09:27:33.610Z</time>
      </trkpt>
      <trkpt lat="45.61007" lon="4.64803">
        <ele>460.67731</ele>
        <time>2025-09-13T09:27:38.607Z</time>
      </trkpt>
      <trkpt lat="45.61006" lon="4.64818">
        <ele>461.069611</ele>
        <time>2025-09-13T09:27:42.605Z</time>
      </trkpt>
      <trkpt lat="45.61006" lon="4.64831">
        <ele>461.435945</ele>
        <time>2025-09-13T09:27:45.594Z</time>
      </trkpt>
      <trkpt lat="45.61002" lon="4.64844">
        <ele>461.829093</ele>
        <time>2025-09-13T09:27:49.609Z</time>
      </trkpt>
      <trkpt lat="45.61" lon="4.64858">
        <ele>462.234719</ele>
        <time>2025-09-13T09:27:54.605Z</time>
      </trkpt>
      <trkpt lat="45.60999" lon="4.64872">
        <ele>462.638705</ele>
        <time>2025-09-13T09:27:59.590Z</time>
      </trkpt>
      <trkpt lat="45.60999" lon="4.64887">
        <ele>463.044856</ele>
        <time>2025-09-13T09:28:04.598Z</time>
      </trkpt>
      <trkpt lat="45.60998" lon="4.649">
        <ele>463.424033</ele>
        <time>2025-09-13T09:28:09.584Z</time>
      </trkpt>
      <trkpt lat="45.60994" lon="4.64913">
        <ele>463.817114</ele>
        <time>2025-09-13T09:28:14.602Z</time>
      </trkpt>
      <trkpt lat="45.60989" lon="4.64928">
        <ele>464.266245</ele>
        <time>2025-09-13T09:28:19.587Z</time>
      </trkpt>
      <trkpt lat="45.60986" lon="4.64942">
        <ele>464.694403</ele>
        <time>2025-09-13T09:28:23.590Z</time>
      </trkpt>
      <trkpt lat="45.60984" lon="4.64956">
        <ele>465.103683</ele>
        <time>2025-09-13T09:28:27.601Z</time>
      </trkpt>
      <trkpt lat="45.60981" lon="4.64972">
        <ele>465.555139</ele>
        <time>2025-09-13T09:28:31.592Z</time>
      </trkpt>
      <trkpt lat="45.60978" lon="4.64988">
        <ele>466.014581</ele>
        <time>2025-09-13T09:28:35.595Z</time>
      </trkpt>
      <trkpt lat="45.60975" lon="4.65003">
        <ele>466.470888</ele>
        <time>2025-09-13T09:28:39.584Z</time>
      </trkpt>
      <trkpt lat="45.60972" lon="4.65018">
        <ele>466.911776</ele>
        <time>2025-09-13T09:28:43.594Z</time>
      </trkpt>
      <trkpt lat="45.60971" lon="4.65033">
        <ele>467.325883</ele>
        <time>2025-09-13T09:28:48.588Z</time>
      </trkpt>
      <trkpt lat="45.60974" lon="4.65046">
        <ele>467.715181</ele>
        <time>2025-09-13T09:28:53.600Z</time>
      </trkpt>
      <trkpt lat="45.60981" lon="4.65056">
        <ele>468.110397</ele>
        <time>2025-09-13T09:28:57.604Z</time>
      </trkpt>
      <trkpt lat="45.6099" lon="4.65064">
        <ele>468.104114</ele>
        <time>2025-09-13T09:29:02.594Z</time>
      </trkpt>
      <trkpt lat="45.61001" lon="4.65069">
        <ele>467.842291</ele>
        <time>2025-09-13T09:29:07.591Z</time>
      </trkpt>
      <trkpt lat="45.61009" lon="4.65077">
        <ele>467.610195</ele>
        <time>2025-09-13T09:29:11.605Z</time>
      </trkpt>
      <trkpt lat="45.61018" lon="4.65081">
        <ele>467.378638</ele>
        <time>2025-09-13T09:29:15.608Z</time>
      </trkpt>
      <trkpt lat="45.61028" lon="4.65085">
        <ele>467.136118</ele>
        <time>2025-09-13T09:29:19.610Z</time>
      </trkpt>
      <trkpt lat="45.61038" lon="4.65091">
        <ele>466.876602</ele>
        <time>2025-09-13T09:29:23.604Z</time>
      </trkpt>
      <trkpt lat="45.6105" lon="4.65094">
        <ele>466.594963</ele>
        <time>2025-09-13T09:29:27.613Z</time>
      </trkpt>
      <trkpt lat="45.61061" lon="4.65099">
        <ele>466.323135</ele>
        <time>2025-09-13T09:29:31.601Z</time>
      </trkpt>
      <trkpt lat="45.6107" lon="4.65104">
        <ele>466.089563</ele>
        <time>2025-09-13T09:29:34.597Z</time>
      </trkpt>
      <trkpt lat="45.6108" lon="4.6511">
        <ele>465.848793</ele>
        <time>2025-09-13T09:29:37.611Z</time>
      </trkpt>
      <trkpt lat="45.61089" lon="4.65118">
        <ele>465.583909</ele>
        <time>2025-09-13T09:29:40.626Z</time>
      </trkpt>
      <trkpt lat="45.61101" lon="4.65122">
        <ele>465.298691</ele>
        <time>2025-09-13T09:29:43.589Z</time>
      </trkpt>
      <trkpt lat="45.61112" lon="4.65128">
        <ele>465.017924</ele>
        <time>2025-09-13T09:29:46.599Z</time>
      </trkpt>
      <trkpt lat="45.61123" lon="4.65137">
        <ele>464.725647</ele>
        <time>2025-09-13T09:29:49.593Z</time>
      </trkpt>
      <trkpt lat="45.61132" lon="4.6514">
        <ele>464.492009</ele>
        <time>2025-09-13T09:29:53.600Z</time>
      </trkpt>
      <trkpt lat="45.61125" lon="4.65169">
        <ele>463.950742</ele>
        <time>2025-09-13T09:31:00.582Z</time>
      </trkpt>
      <trkpt lat="45.6112" lon="4.65181">
        <ele>463.55752</ele>
        <time>2025-09-13T09:31:02.606Z</time>
      </trkpt>
      <trkpt lat="45.61115" lon="4.65192">
        <ele>463.137127</ele>
        <time>2025-09-13T09:31:04.598Z</time>
      </trkpt>
      <trkpt lat="45.61108" lon="4.65204">
        <ele>462.683901</ele>
        <time>2025-09-13T09:31:06.590Z</time>
      </trkpt>
      <trkpt lat="45.611" lon="4.65217">
        <ele>462.162121</ele>
        <time>2025-09-13T09:31:08.588Z</time>
      </trkpt>
      <trkpt lat="45.61092" lon="4.65232">
        <ele>461.612326</ele>
        <time>2025-09-13T09:31:10.586Z</time>
      </trkpt>
      <trkpt lat="45.61083" lon="4.65247">
        <ele>461.022831</ele>
        <time>2025-09-13T09:31:12.600Z</time>
      </trkpt>
      <trkpt lat="45.61074" lon="4.65263">
        <ele>460.412946</ele>
        <time>2025-09-13T09:31:14.592Z</time>
      </trkpt>
      <trkpt lat="45.61064" lon="4.65279">
        <ele>459.783035</ele>
        <time>2025-09-13T09:31:16.601Z</time>
      </trkpt>
      <trkpt lat="45.61056" lon="4.65297">
        <ele>459.146566</ele>
        <time>2025-09-13T09:31:18.604Z</time>
      </trkpt>
      <trkpt lat="45.61047" lon="4.65315">
        <ele>458.495524</ele>
        <time>2025-09-13T09:31:20.590Z</time>
      </trkpt>
      <trkpt lat="45.61039" lon="4.65331">
        <ele>457.919616</ele>
        <time>2025-09-13T09:31:22.590Z</time>
      </trkpt>
      <trkpt lat="45.61033" lon="4.65345">
        <ele>457.430903</ele>
        <time>2025-09-13T09:31:25.600Z</time>
      </trkpt>
      <trkpt lat="45.61042" lon="4.65355">
        <ele>456.9375</ele>
        <time>2025-09-13T09:31:30.604Z</time>
      </trkpt>
      <trkpt lat="45.61052" lon="4.65359">
        <ele>456.51764</ele>
        <time>2025-09-13T09:31:33.616Z</time>
      </trkpt>
      <trkpt lat="45.61063" lon="4.65363">
        <ele>456.161356</ele>
        <time>2025-09-13T09:31:36.590Z</time>
      </trkpt>
      <trkpt lat="45.61072" lon="4.65367">
        <ele>455.926998</ele>
        <time>2025-09-13T09:31:38.584Z</time>
      </trkpt>
      <trkpt lat="45.61081" lon="4.65371">
        <ele>455.689908</ele>
        <time>2025-09-13T09:31:40.590Z</time>
      </trkpt>
      <trkpt lat="45.6109" lon="4.65375">
        <ele>455.449027</ele>
        <time>2025-09-13T09:31:42.596Z</time>
      </trkpt>
      <trkpt lat="45.61103" lon="4.6538">
        <ele>455.103455</ele>
        <time>2025-09-13T09:31:45.605Z</time>
      </trkpt>
      <trkpt lat="45.61116" lon="4.65386">
        <ele>454.7532</ele>
        <time>2025-09-13T09:31:48.594Z</time>
      </trkpt>
      <trkpt lat="45.61125" lon="4.65391">
        <ele>454.499699</ele>
        <time>2025-09-13T09:31:50.602Z</time>
      </trkpt>
      <trkpt lat="45.61134" lon="4.65396">
        <ele>454.249879</ele>
        <time>2025-09-13T09:31:52.588Z</time>
      </trkpt>
      <trkpt lat="45.61143" lon="4.654">
        <ele>454.013919</ele>
        <time>2025-09-13T09:31:54.593Z</time>
      </trkpt>
      <trkpt lat="45.61152" lon="4.65404">
        <ele>453.762271</ele>
        <time>2025-09-13T09:31:56.594Z</time>
      </trkpt>
      <trkpt lat="45.61161" lon="4.65408">
        <ele>453.518926</ele>
        <time>2025-09-13T09:31:58.589Z</time>
      </trkpt>
      <trkpt lat="45.61171" lon="4.65412">
        <ele>453.256276</ele>
        <time>2025-09-13T09:32:00.584Z</time>
      </trkpt>
      <trkpt lat="45.61181" lon="4.65417">
        <ele>452.978718</ele>
        <time>2025-09-13T09:32:02.592Z</time>
      </trkpt>
      <trkpt lat="45.61191" lon="4.6542">
        <ele>452.701112</ele>
        <time>2025-09-13T09:32:04.589Z</time>
      </trkpt>
      <trkpt lat="45.61202" lon="4.65425">
        <ele>452.426543</ele>
        <time>2025-09-13T09:32:06.588Z</time>
      </trkpt>
      <trkpt lat="45.61211" lon="4.65429">
        <ele>452.164371</ele>
        <time>2025-09-13T09:32:08.597Z</time>
      </trkpt>
      <trkpt lat="45.61221" lon="4.65432">
        <ele>451.898117</ele>
        <time>2025-09-13T09:32:10.605Z</time>
      </trkpt>
      <trkpt lat="45.61231" lon="4.65435">
        <ele>451.523025</ele>
        <time>2025-09-13T09:32:12.591Z</time>
      </trkpt>
      <trkpt lat="45.61241" lon="4.65437">
        <ele>451.054776</ele>
        <time>2025-09-13T09:32:14.594Z</time>
      </trkpt>
      <trkpt lat="45.61252" lon="4.65439">
        <ele>450.499135</ele>
        <time>2025-09-13T09:32:17.591Z</time>
      </trkpt>
      <trkpt lat="45.61263" lon="4.65441">
        <ele>449.947552</ele>
        <time>2025-09-13T09:32:20.588Z</time>
      </trkpt>
      <trkpt lat="45.61274" lon="4.65447">
        <ele>449.37187</ele>
        <time>2025-09-13T09:32:23.595Z</time>
      </trkpt>
      <trkpt lat="45.61276" lon="4.65465">
        <ele>448.727378</ele>
        <time>2025-09-13T09:32:26.606Z</time>
      </trkpt>
      <trkpt lat="45.61272" lon="4.65478">
        <ele>448.232417</ele>
        <time>2025-09-13T09:32:28.622Z</time>
      </trkpt>
      <trkpt lat="45.61266" lon="4.65493">
        <ele>447.621551</ele>
        <time>2025-09-13T09:32:31.632Z</time>
      </trkpt>
      <trkpt lat="45.61261" lon="4.65508">
        <ele>447.061641</ele>
        <time>2025-09-13T09:32:34.606Z</time>
      </trkpt>
      <trkpt lat="45.61267" lon="4.65522">
        <ele>446.484429</ele>
        <time>2025-09-13T09:32:38.613Z</time>
      </trkpt>
      <trkpt lat="45.61276" lon="4.65528">
        <ele>446.023374</ele>
        <time>2025-09-13T09:32:40.597Z</time>
      </trkpt>
      <trkpt lat="45.61286" lon="4.65536">
        <ele>445.432412</ele>
        <time>2025-09-13T09:32:43.605Z</time>
      </trkpt>
      <trkpt lat="45.61297" lon="4.65544">
        <ele>444.832252</ele>
        <time>2025-09-13T09:32:46.595Z</time>
      </trkpt>
      <trkpt lat="45.61308" lon="4.65552">
        <ele>444.217538</ele>
        <time>2025-09-13T09:32:49.607Z</time>
      </trkpt>
      <trkpt lat="45.61317" lon="4.65557">
        <ele>443.73834</ele>
        <time>2025-09-13T09:32:51.600Z</time>
      </trkpt>
      <trkpt lat="45.61327" lon="4.65562">
        <ele>443.223441</ele>
        <time>2025-09-13T09:32:53.599Z</time>
      </trkpt>
      <trkpt lat="45.61335" lon="4.65567">
        <ele>442.832324</ele>
        <time>2025-09-13T09:32:55.606Z</time>
      </trkpt>
      <trkpt lat="45.61344" lon="4.65571">
        <ele>442.985904</ele>
        <time>2025-09-13T09:32:57.610Z</time>
      </trkpt>
      <trkpt lat="45.61353" lon="4.65575">
        <ele>443.13401</ele>
        <time>2025-09-13T09:32:59.606Z</time>
      </trkpt>
      <trkpt lat="45.61362" lon="4.65579">
        <ele>443.282768</ele>
        <time>2025-09-13T09:33:01.610Z</time>
      </trkpt>
      <trkpt lat="45.61371" lon="4.65583">
        <ele>443.436825</ele>
        <time>2025-09-13T09:33:03.611Z</time>
      </trkpt>
      <trkpt lat="45.6138" lon="4.65586">
        <ele>443.591818</ele>
        <time>2025-09-13T09:33:05.610Z</time>
      </trkpt>
      <trkpt lat="45.61391" lon="4.65591">
        <ele>443.768625</ele>
        <time>2025-09-13T09:33:07.614Z</time>
      </trkpt>
      <trkpt lat="45.61402" lon="4.65594">
        <ele>443.952611</ele>
        <time>2025-09-13T09:33:09.603Z</time>
      </trkpt>
      <trkpt lat="45.61413" lon="4.65598">
        <ele>444.131169</ele>
        <time>2025-09-13T09:33:11.602Z</time>
      </trkpt>
      <trkpt lat="45.61423" lon="4.65601">
        <ele>444.29615</ele>
        <time>2025-09-13T09:33:13.609Z</time>
      </trkpt>
      <trkpt lat="45.61433" lon="4.65603">
        <ele>444.461466</ele>
        <time>2025-09-13T09:33:15.606Z</time>
      </trkpt>
      <trkpt lat="45.61442" lon="4.65605">
        <ele>444.611248</ele>
        <time>2025-09-13T09:33:18.595Z</time>
      </trkpt>
      <trkpt lat="45.61453" lon="4.65607">
        <ele>444.782122</ele>
        <time>2025-09-13T09:33:24.602Z</time>
      </trkpt>
      <trkpt lat="45.61462" lon="4.6561">
        <ele>444.935918</ele>
        <time>2025-09-13T09:33:40.579Z</time>
      </trkpt>
      <trkpt lat="45.61472" lon="4.65613">
        <ele>445.102479</ele>
        <time>2025-09-13T09:33:52.590Z</time>
      </trkpt>
      <trkpt lat="45.61483" lon="4.65615">
        <ele>445.273827</ele>
        <time>2025-09-13T09:33:57.614Z</time>
      </trkpt>
      <trkpt lat="45.61493" lon="4.65617">
        <ele>445.440922</ele>
        <time>2025-09-13T09:34:02.597Z</time>
      </trkpt>
      <trkpt lat="45.61503" lon="4.6562">
        <ele>445.601275</ele>
        <time>2025-09-13T09:34:07.589Z</time>
      </trkpt>
      <trkpt lat="45.61504" lon="4.65644">
        <ele>445.19739</ele>
        <time>2025-09-13T09:36:28.599Z</time>
      </trkpt>
      <trkpt lat="45.61512" lon="4.65653">
        <ele>444.691949</ele>
        <time>2025-09-13T09:36:34.591Z</time>
      </trkpt>
      <trkpt lat="45.61522" lon="4.65653">
        <ele>444.180736</ele>
        <time>2025-09-13T09:36:40.602Z</time>
      </trkpt>
      <trkpt lat="45.61532" lon="4.65651">
        <ele>443.62951</ele>
        <time>2025-09-13T09:36:45.597Z</time>
      </trkpt>
      <trkpt lat="45.61543" lon="4.65649">
        <ele>443.055835</ele>
        <time>2025-09-13T09:36:49.604Z</time>
      </trkpt>
      <trkpt lat="45.61554" lon="4.65651">
        <ele>442.475539</ele>
        <time>2025-09-13T09:36:52.611Z</time>
      </trkpt>
      <trkpt lat="45.61564" lon="4.65655">
        <ele>441.936588</ele>
        <time>2025-09-13T09:36:54.600Z</time>
      </trkpt>
      <trkpt lat="45.61576" lon="4.65662">
        <ele>441.299372</ele>
        <time>2025-09-13T09:36:56.601Z</time>
      </trkpt>
      <trkpt lat="45.61587" lon="4.65666">
        <ele>440.715209</ele>
        <time>2025-09-13T09:36:58.604Z</time>
      </trkpt>
      <trkpt lat="45.61599" lon="4.65665">
        <ele>440.08963</ele>
        <time>2025-09-13T09:37:01.614Z</time>
      </trkpt>
      <trkpt lat="45.61607" lon="4.65655">
        <ele>439.534811</ele>
        <time>2025-09-13T09:37:04.605Z</time>
      </trkpt>
      <trkpt lat="45.61616" lon="4.65649">
        <ele>439.022605</ele>
        <time>2025-09-13T09:37:09.597Z</time>
      </trkpt>
      <trkpt lat="45.61623" lon="4.65659">
        <ele>438.503682</ele>
        <time>2025-09-13T09:37:14.590Z</time>
      </trkpt>
      <trkpt lat="45.6163" lon="4.6567">
        <ele>437.949798</ele>
        <time>2025-09-13T09:37:20.604Z</time>
      </trkpt>
      <trkpt lat="45.61635" lon="4.65686">
        <ele>437.335977</ele>
        <time>2025-09-13T09:37:24.591Z</time>
      </trkpt>
      <trkpt lat="45.61641" lon="4.65702">
        <ele>436.666142</ele>
        <time>2025-09-13T09:37:26.603Z</time>
      </trkpt>
      <trkpt lat="45.61647" lon="4.65723">
        <ele>436.21692</ele>
        <time>2025-09-13T09:37:28.600Z</time>
      </trkpt>
      <trkpt lat="45.61654" lon="4.65736">
        <ele>435.99462</ele>
        <time>2025-09-13T09:37:30.595Z</time>
      </trkpt>
      <trkpt lat="45.61663" lon="4.65741">
        <ele>435.806202</ele>
        <time>2025-09-13T09:37:33.624Z</time>
      </trkpt>
      <trkpt lat="45.61671" lon="4.65747">
        <ele>435.629177</ele>
        <time>2025-09-13T09:37:45.598Z</time>
      </trkpt>
      <trkpt lat="45.61675" lon="4.65759">
        <ele>435.445386</ele>
        <time>2025-09-13T09:38:01.584Z</time>
      </trkpt>
      <trkpt lat="45.61679" lon="4.65771">
        <ele>435.267423</ele>
        <time>2025-09-13T09:38:15.598Z</time>
      </trkpt>
      <trkpt lat="45.61678" lon="4.65786">
        <ele>435.061908</ele>
        <time>2025-09-13T09:38:24.602Z</time>
      </trkpt>
      <trkpt lat="45.61677" lon="4.65803">
        <ele>434.824802</ele>
        <time>2025-09-13T09:38:29.606Z</time>
      </trkpt>
      <trkpt lat="45.61676" lon="4.65818">
        <ele>434.617773</ele>
        <time>2025-09-13T09:38:33.602Z</time>
      </trkpt>
      <trkpt lat="45.61674" lon="4.65832">
        <ele>434.421645</ele>
        <time>2025-09-13T09:38:37.603Z</time>
      </trkpt>
      <trkpt lat="45.61673" lon="4.65847">
        <ele>434.208746</ele>
        <time>2025-09-13T09:38:42.594Z</time>
      </trkpt>
      <trkpt lat="45.61672" lon="4.6586">
        <ele>434.027394</ele>
        <time>2025-09-13T09:38:47.599Z</time>
      </trkpt>
      <trkpt lat="45.6167" lon="4.65874">
        <ele>433.844208</ele>
        <time>2025-09-13T09:38:51.605Z</time>
      </trkpt>
      <trkpt lat="45.61669" lon="4.65889">
        <ele>433.635472</ele>
        <time>2025-09-13T09:38:55.604Z</time>
      </trkpt>
      <trkpt lat="45.61671" lon="4.65904">
        <ele>433.428016</ele>
        <time>2025-09-13T09:38:59.598Z</time>
      </trkpt>
      <trkpt lat="45.61674" lon="4.65918">
        <ele>433.215691</ele>
        <time>2025-09-13T09:39:03.592Z</time>
      </trkpt>
      <trkpt lat="45.61675" lon="4.65934">
        <ele>433.003018</ele>
        <time>2025-09-13T09:39:06.587Z</time>
      </trkpt>
      <trkpt lat="45.61677" lon="4.65951">
        <ele>432.7094</ele>
        <time>2025-09-13T09:39:09.601Z</time>
      </trkpt>
      <trkpt lat="45.6168" lon="4.6597">
        <ele>432.33812</ele>
        <time>2025-09-13T09:39:12.607Z</time>
      </trkpt>
      <trkpt lat="45.61683" lon="4.65985">
        <ele>432.041662</ele>
        <time>2025-09-13T09:39:14.595Z</time>
      </trkpt>
      <trkpt lat="45.61687" lon="4.66002">
        <ele>431.71606</ele>
        <time>2025-09-13T09:39:16.591Z</time>
      </trkpt>
      <trkpt lat="45.61692" lon="4.66018">
        <ele>431.384946</ele>
        <time>2025-09-13T09:39:18.592Z</time>
      </trkpt>
      <trkpt lat="45.61697" lon="4.66035">
        <ele>431.035412</ele>
        <time>2025-09-13T09:39:20.596Z</time>
      </trkpt>
      <trkpt lat="45.61702" lon="4.66054">
        <ele>430.662755</ele>
        <time>2025-09-13T09:39:22.586Z</time>
      </trkpt>
      <trkpt lat="45.61708" lon="4.66074">
        <ele>430.245863</ele>
        <time>2025-09-13T09:39:24.586Z</time>
      </trkpt>
      <trkpt lat="45.61714" lon="4.66094">
        <ele>429.838382</ele>
        <time>2025-09-13T09:39:26.583Z</time>
      </trkpt>
      <trkpt lat="45.6172" lon="4.66114">
        <ele>429.429052</ele>
        <time>2025-09-13T09:39:28.601Z</time>
      </trkpt>
      <trkpt lat="45.61724" lon="4.66132">
        <ele>429.06095</ele>
        <time>2025-09-13T09:39:30.597Z</time>
      </trkpt>
      <trkpt lat="45.61726" lon="4.66151">
        <ele>428.696724</ele>
        <time>2025-09-13T09:39:32.596Z</time>
      </trkpt>
      <trkpt lat="45.61727" lon="4.66169">
        <ele>428.35737</ele>
        <time>2025-09-13T09:39:34.603Z</time>
      </trkpt>
      <trkpt lat="45.61728" lon="4.66188">
        <ele>428.055122</ele>
        <time>2025-09-13T09:39:36.580Z</time>
      </trkpt>
      <trkpt lat="45.61736" lon="4.66198">
        <ele>428.016637</ele>
        <time>2025-09-13T09:39:39.606Z</time>
      </trkpt>
      <trkpt lat="45.61746" lon="4.66201">
        <ele>427.976761</ele>
        <time>2025-09-13T09:39:43.594Z</time>
      </trkpt>
      <trkpt lat="45.61757" lon="4.66203">
        <ele>427.939506</ele>
        <time>2025-09-13T09:39:47.602Z</time>
      </trkpt>
      <trkpt lat="45.61767" lon="4.66205">
        <ele>427.900578</ele>
        <time>2025-09-13T09:39:51.596Z</time>
      </trkpt>
      <trkpt lat="45.61778" lon="4.66208">
        <ele>427.858906</ele>
        <time>2025-09-13T09:39:55.589Z</time>
      </trkpt>
      <trkpt lat="45.61789" lon="4.66211">
        <ele>427.818359</ele>
        <time>2025-09-13T09:40:00.587Z</time>
      </trkpt>
      <trkpt lat="45.61785" lon="4.66242">
        <ele>427.737448</ele>
        <time>2025-09-13T09:40:41.614Z</time>
      </trkpt>
      <trkpt lat="45.6178" lon="4.66257">
        <ele>427.695246</ele>
        <time>2025-09-13T09:40:44.597Z</time>
      </trkpt>
      <trkpt lat="45.61773" lon="4.66273">
        <ele>427.646937</ele>
        <time>2025-09-13T09:40:47.605Z</time>
      </trkpt>
      <trkpt lat="45.61769" lon="4.66285">
        <ele>427.612333</ele>
        <time>2025-09-13T09:40:49.601Z</time>
      </trkpt>
      <trkpt lat="45.61764" lon="4.66296">
        <ele>427.579111</ele>
        <time>2025-09-13T09:40:51.596Z</time>
      </trkpt>
      <trkpt lat="45.6176" lon="4.66308">
        <ele>427.546072</ele>
        <time>2025-09-13T09:40:53.597Z</time>
      </trkpt>
      <trkpt lat="45.61755" lon="4.66319">
        <ele>427.512142</ele>
        <time>2025-09-13T09:40:55.601Z</time>
      </trkpt>
      <trkpt lat="45.61751" lon="4.66332">
        <ele>427.476803</ele>
        <time>2025-09-13T09:40:57.599Z</time>
      </trkpt>
      <trkpt lat="45.61746" lon="4.66343">
        <ele>427.44195</ele>
        <time>2025-09-13T09:40:59.601Z</time>
      </trkpt>
      <trkpt lat="45.61741" lon="4.66356">
        <ele>427.404086</ele>
        <time>2025-09-13T09:41:01.592Z</time>
      </trkpt>
      <trkpt lat="45.61737" lon="4.6637">
        <ele>426.87217</ele>
        <time>2025-09-13T09:41:03.616Z</time>
      </trkpt>
      <trkpt lat="45.61735" lon="4.66385">
        <ele>426.32852</ele>
        <time>2025-09-13T09:41:05.608Z</time>
      </trkpt>
      <trkpt lat="45.61732" lon="4.66399">
        <ele>425.824599</ele>
        <time>2025-09-13T09:41:07.587Z</time>
      </trkpt>
      <trkpt lat="45.6173" lon="4.66415">
        <ele>425.281955</ele>
        <time>2025-09-13T09:41:09.603Z</time>
      </trkpt>
      <trkpt lat="45.61727" lon="4.6643">
        <ele>424.72778</ele>
        <time>2025-09-13T09:41:11.603Z</time>
      </trkpt>
      <trkpt lat="45.61723" lon="4.66444">
        <ele>424.189724</ele>
        <time>2025-09-13T09:41:13.606Z</time>
      </trkpt>
      <trkpt lat="45.61719" lon="4.66459">
        <ele>423.644807</ele>
        <time>2025-09-13T09:41:15.610Z</time>
      </trkpt>
      <trkpt lat="45.61716" lon="4.66472">
        <ele>423.141165</ele>
        <time>2025-09-13T09:41:17.627Z</time>
      </trkpt>
      <trkpt lat="45.61712" lon="4.66485">
        <ele>422.640216</ele>
        <time>2025-09-13T09:41:19.615Z</time>
      </trkpt>
      <trkpt lat="45.61707" lon="4.66498">
        <ele>422.143794</ele>
        <time>2025-09-13T09:41:21.605Z</time>
      </trkpt>
      <trkpt lat="45.61704" lon="4.66511">
        <ele>421.664729</ele>
        <time>2025-09-13T09:41:23.601Z</time>
      </trkpt>
      <trkpt lat="45.61701" lon="4.6653">
        <ele>420.999146</ele>
        <time>2025-09-13T09:41:26.608Z</time>
      </trkpt>
      <trkpt lat="45.61701" lon="4.66544">
        <ele>420.492204</ele>
        <time>2025-09-13T09:41:28.593Z</time>
      </trkpt>
      <trkpt lat="45.61706" lon="4.6656">
        <ele>419.891173</ele>
        <time>2025-09-13T09:41:30.600Z</time>
      </trkpt>
      <trkpt lat="45.61712" lon="4.66575">
        <ele>419.29909</ele>
        <time>2025-09-13T09:41:32.598Z</time>
      </trkpt>
      <trkpt lat="45.61717" lon="4.6659">
        <ele>418.707753</ele>
        <time>2025-09-13T09:41:34.601Z</time>
      </trkpt>
      <trkpt lat="45.61723" lon="4.66606">
        <ele>417.557241</ele>
        <time>2025-09-13T09:41:36.595Z</time>
      </trkpt>
      <trkpt lat="45.6173" lon="4.66624">
        <ele>415.785515</ele>
        <time>2025-09-13T09:41:38.577Z</time>
      </trkpt>
      <trkpt lat="45.61735" lon="4.66639">
        <ele>414.296649</ele>
        <time>2025-09-13T09:41:40.597Z</time>
      </trkpt>
      <trkpt lat="45.6174" lon="4.66654">
        <ele>412.801095</ele>
        <time>2025-09-13T09:41:43.588Z</time>
      </trkpt>
      <trkpt lat="45.61745" lon="4.66665">
        <ele>411.64867</ele>
        <time>2025-09-13T09:41:47.598Z</time>
      </trkpt>
      <trkpt lat="45.61757" lon="4.66694">
        <ele>408.713774</ele>
        <time>2025-09-13T09:42:10.599Z</time>
      </trkpt>
      <trkpt lat="45.61764" lon="4.66708">
        <ele>407.191448</ele>
        <time>2025-09-13T09:42:12.602Z</time>
      </trkpt>
      <trkpt lat="45.61771" lon="4.66719">
        <ele>405.927771</ele>
        <time>2025-09-13T09:42:14.600Z</time>
      </trkpt>
      <trkpt lat="45.61779" lon="4.66732">
        <ele>404.370323</ele>
        <time>2025-09-13T09:42:16.572Z</time>
      </trkpt>
      <trkpt lat="45.61784" lon="4.66744">
        <ele>403.146586</ele>
        <time>2025-09-13T09:42:18.567Z</time>
      </trkpt>
      <trkpt lat="45.61792" lon="4.66754">
        <ele>401.87376</ele>
        <time>2025-09-13T09:42:21.570Z</time>
      </trkpt>
      <trkpt lat="45.61798" lon="4.66763">
        <ele>400.700943</ele>
        <time>2025-09-13T09:42:24.584Z</time>
      </trkpt>
      <trkpt lat="45.61808" lon="4.66769">
        <ele>399.404663</ele>
        <time>2025-09-13T09:42:26.593Z</time>
      </trkpt>
      <trkpt lat="45.61818" lon="4.66775">
        <ele>398.029821</ele>
        <time>2025-09-13T09:42:29.571Z</time>
      </trkpt>
      <trkpt lat="45.61828" lon="4.66779">
        <ele>396.776397</ele>
        <time>2025-09-13T09:42:39.584Z</time>
      </trkpt>
      <trkpt lat="45.61835" lon="4.66787">
        <ele>395.893781</ele>
        <time>2025-09-13T09:42:55.602Z</time>
      </trkpt>
      <trkpt lat="45.61845" lon="4.66788">
        <ele>396.326868</ele>
        <time>2025-09-13T09:43:03.613Z</time>
      </trkpt>
      <trkpt lat="45.61854" lon="4.66793">
        <ele>396.783166</ele>
        <time>2025-09-13T09:43:06.589Z</time>
      </trkpt>
      <trkpt lat="45.61865" lon="4.66799">
        <ele>397.267298</ele>
        <time>2025-09-13T09:43:10.591Z</time>
      </trkpt>
      <trkpt lat="45.61877" lon="4.66796">
        <ele>397.804083</ele>
        <time>2025-09-13T09:43:14.599Z</time>
      </trkpt>
      <trkpt lat="45.61886" lon="4.6679">
        <ele>398.253856</ele>
        <time>2025-09-13T09:43:18.581Z</time>
      </trkpt>
      <trkpt lat="45.61897" lon="4.66788">
        <ele>398.726925</ele>
        <time>2025-09-13T09:43:23.600Z</time>
      </trkpt>
      <trkpt lat="45.61906" lon="4.66784">
        <ele>399.177374</ele>
        <time>2025-09-13T09:43:28.598Z</time>
      </trkpt>
      <trkpt lat="45.61917" lon="4.6678">
        <ele>399.647569</ele>
        <time>2025-09-13T09:43:33.601Z</time>
      </trkpt>
      <trkpt lat="45.61926" lon="4.66782">
        <ele>400.055194</ele>
        <time>2025-09-13T09:43:37.606Z</time>
      </trkpt>
      <trkpt lat="45.61937" lon="4.66781">
        <ele>400.53012</ele>
        <time>2025-09-13T09:43:42.589Z</time>
      </trkpt>
      <trkpt lat="45.61947" lon="4.66783">
        <ele>400.990449</ele>
        <time>2025-09-13T09:43:47.600Z</time>
      </trkpt>
      <trkpt lat="45.61958" lon="4.66785">
        <ele>401.457694</ele>
        <time>2025-09-13T09:43:52.590Z</time>
      </trkpt>
      <trkpt lat="45.61968" lon="4.66784">
        <ele>401.89017</ele>
        <time>2025-09-13T09:43:57.601Z</time>
      </trkpt>
      <trkpt lat="45.61977" lon="4.66785">
        <ele>402.303632</ele>
        <time>2025-09-13T09:44:02.595Z</time>
      </trkpt>
      <trkpt lat="45.61987" lon="4.66787">
        <ele>402.761252</ele>
        <time>2025-09-13T09:44:07.621Z</time>
      </trkpt>
      <trkpt lat="45.61998" lon="4.66786">
        <ele>403.214695</ele>
        <time>2025-09-13T09:44:13.591Z</time>
      </trkpt>
      <trkpt lat="45.62007" lon="4.66789">
        <ele>403.647846</ele>
        <time>2025-09-13T09:44:18.581Z</time>
      </trkpt>
      <trkpt lat="45.62008" lon="4.66803">
        <ele>404.362278</ele>
        <time>2025-09-13T09:44:23.619Z</time>
      </trkpt>
      <trkpt lat="45.62002" lon="4.66815">
        <ele>405.183481</ele>
        <time>2025-09-13T09:44:28.583Z</time>
      </trkpt>
      <trkpt lat="45.61994" lon="4.66825">
        <ele>406.077199</ele>
        <time>2025-09-13T09:44:33.587Z</time>
      </trkpt>
      <trkpt lat="45.61986" lon="4.66836">
        <ele>406.98848</ele>
        <time>2025-09-13T09:44:38.587Z</time>
      </trkpt>
      <trkpt lat="45.61979" lon="4.66844">
        <ele>407.737084</ele>
        <time>2025-09-13T09:44:42.587Z</time>
      </trkpt>
      <trkpt lat="45.6197" lon="4.66854">
        <ele>408.616835</ele>
        <time>2025-09-13T09:44:47.583Z</time>
      </trkpt>
      <trkpt lat="45.61964" lon="4.66865">
        <ele>409.437547</ele>
        <time>2025-09-13T09:44:52.585Z</time>
      </trkpt>
      <trkpt lat="45.61956" lon="4.66874">
        <ele>410.248045</ele>
        <time>2025-09-13T09:44:57.577Z</time>
      </trkpt>
      <trkpt lat="45.61951" lon="4.66886">
        <ele>411.034982</ele>
        <time>2025-09-13T09:45:02.584Z</time>
      </trkpt>
      <trkpt lat="45.61948" lon="4.66899">
        <ele>411.83859</ele>
        <time>2025-09-13T09:45:07.601Z</time>
      </trkpt>
      <trkpt lat="45.61947" lon="4.66914">
        <ele>412.649559</ele>
        <time>2025-09-13T09:45:11.608Z</time>
      </trkpt>
      <trkpt lat="45.61946" lon="4.66928">
        <ele>413.467078</ele>
        <time>2025-09-13T09:45:15.620Z</time>
      </trkpt>
      <trkpt lat="45.61944" lon="4.66943">
        <ele>414.347533</ele>
        <time>2025-09-13T09:45:20.586Z</time>
      </trkpt>
      <trkpt lat="45.61941" lon="4.66958">
        <ele>415.242319</ele>
        <time>2025-09-13T09:45:25.587Z</time>
      </trkpt>
      <trkpt lat="45.61938" lon="4.66973">
        <ele>416.109049</ele>
        <time>2025-09-13T09:45:30.583Z</time>
      </trkpt>
      <trkpt lat="45.61936" lon="4.66989">
        <ele>417.029411</ele>
        <time>2025-09-13T09:45:35.586Z</time>
      </trkpt>
      <trkpt lat="45.61934" lon="4.67004">
        <ele>417.908399</ele>
        <time>2025-09-13T09:45:40.588Z</time>
      </trkpt>
      <trkpt lat="45.61934" lon="4.67019">
        <ele>418.367052</ele>
        <time>2025-09-13T09:45:45.599Z</time>
      </trkpt>
      <trkpt lat="45.61934" lon="4.67032">
        <ele>418.367052</ele>
        <time>2025-09-13T09:45:49.595Z</time>
      </trkpt>
      <trkpt lat="45.61934" lon="4.67046">
        <ele>418.367052</ele>
        <time>2025-09-13T09:45:53.603Z</time>
      </trkpt>
      <trkpt lat="45.61935" lon="4.67062">
        <ele>418.367052</ele>
        <time>2025-09-13T09:45:57.599Z</time>
      </trkpt>
      <trkpt lat="45.61938" lon="4.67077">
        <ele>418.367052</ele>
        <time>2025-09-13T09:46:01.601Z</time>
      </trkpt>
      <trkpt lat="45.61941" lon="4.67091">
        <ele>418.367052</ele>
        <time>2025-09-13T09:46:06.596Z</time>
      </trkpt>
      <trkpt lat="45.61941" lon="4.67105">
        <ele>418.367052</ele>
        <time>2025-09-13T09:46:10.592Z</time>
      </trkpt>
      <trkpt lat="45.61942" lon="4.67118">
        <ele>418.367052</ele>
        <time>2025-09-13T09:46:14.598Z</time>
      </trkpt>
      <trkpt lat="45.61949" lon="4.67129">
        <ele>418.367052</ele>
        <time>2025-09-13T09:46:19.603Z</time>
      </trkpt>
      <trkpt lat="45.61957" lon="4.67138">
        <ele>418.367052</ele>
        <time>2025-09-13T09:46:23.593Z</time>
      </trkpt>
      <trkpt lat="45.61965" lon="4.67146">
        <ele>418.367052</ele>
        <time>2025-09-13T09:46:28.599Z</time>
      </trkpt>
    </trkseg>
  </trk>
</gpx>